[[{"header":{"parameterUnit":"m.s-1","parameterCategory":1,"la1":30.6,"la2":29.2853,"lo1":-89.7004,"lo2":-87.6739,"dy":0.0162,"dx":0.0183,"nx":112,"ny":82,"refTime":"2026-03-14T00:00:00:Z","depth":0,"parameterNumber":2,"parameterNumberName":"U-component_of_WINDS"},"data":[0.0,0.0,0.0,0.0,0.0,0.0,0.0,0.0,0.0,0.0,0.0,0.0,0.0,0.0,0.0,0.0,0.0,0.0,0.0,0.0,0.0,0.0,0.0,0.0,0.0,0.0,0.0,0.0,0.0,0.0,0.0,0.0,0.0,0.0,0.0,0.0,0.0,0.0,0.0,0.0,0.0,0.0,0.0,0.0,0.0,0.0,0.0,0.0,0.0,0.0,0.0,0.0,0.0,0.0,0.0,0.0,0.0,0.0,0.0,0.0,0.0,0.0,0.0,0.0,0.0,0.0,0.0,0.0,0.0,0.0,0.0,0.0,0.0,0.0,0.0,0.0,0.0,0.0,0.0,0.0,0.0,0.0,0.0,0.0,0.0,0.0,0.0,0.0,0.0,0.0,0.0,-1.6871,-1.9199,-2.0293,-1.9551,-1.9194,-1.7666,-1.4508,0.0,0.0,0.0,0.0,0.0,0.0,0.0,0.0,0.0,0.0,0.0,0.0,0.0,0.0,0.0,0.0,0.0,0.0,0.0,0.0,0.0,0.0,0.0,0.0,0.0,0.0,0.0,0.0,0.0,0.0,0.0,0.0,0.0,0.0,0.0,0.0,0.0,0.0,0.0,0.0,0.0,0.0,0.0,0.0,0.0,0.0,0.0,0.0,0.0,0.0,0.0,0.0,0.0,0.0,0.0,0.0,0.0,0.0,0.0,0.0,0.0,0.0,0.0,0.0,0.0,0.0,0.0,0.0,0.0,0.0,0.0,0.0,0.0,0.0,0.0,0.0,0.0,0.0,0.0,0.0,0.0,0.0,0.0,0.0,0.0,0.0,0.0,0.0,0.0,0.0,0.0,0.0,0.0,0.0,0.0,0.0,0.0,0.0,0.0,0.0,0.0,0.0,0.0,0.0,-1.5264,-1.8554,-1.9922,-2.0547,-2.041,-1.8999,-1.7278,-1.5332,0.0,0.0,0.0,0.0,0.0,0.0,0.0,0.0,0.0,0.0,0.0,0.0,0.0,0.0,0.0,0.0,0.0,0.0,0.0,0.0,0.0,0.0,0.0,0.0,0.0,0.0,0.0,0.0,0.0,0.0,0.0,0.0,0.0,0.0,0.0,0.0,0.0,0.0,0.0,0.0,0.0,0.0,0.0,0.0,0.0,0.0,0.0,0.0,0.0,0.0,0.0,0.0,0.0,0.0,0.0,0.0,0.0,0.0,0.0,0.0,0.0,0.0,0.0,0.0,0.0,0.0,0.0,0.0,0.0,0.0,0.0,0.0,0.0,0.0,0.0,0.0,0.0,0.0,0.0,0.0,0.0,0.0,0.0,0.0,0.0,0.0,0.0,0.0,0.0,0.0,0.0,0.0,0.0,0.0,0.0,0.0,0.0,0.0,0.0,0.0,0.0,0.0,0.0,-1.4929,-1.663,-1.9687,-2.0352,-2.0605,-2.0605,-1.8935,-1.7185,-1.5519,-1.4073,0.0,0.0,0.0,0.0,0.0,0.0,0.0,0.0,0.0,0.0,0.0,0.0,0.0,0.0,0.0,0.0,0.0,0.0,0.0,0.0,0.0,0.0,0.0,0.0,0.0,0.0,0.0,0.0,0.0,0.0,0.0,0.0,0.0,0.0,0.0,0.0,0.0,0.0,0.0,0.0,0.0,0.0,0.0,0.0,0.0,0.0,0.0,0.0,0.0,0.0,0.0,0.0,0.0,0.0,0.0,0.0,0.0,0.0,0.0,0.0,0.0,0.0,0.0,0.0,0.0,0.0,0.0,0.0,0.0,0.0,0.0,0.0,0.0,0.0,0.0,0.0,0.0,0.0,0.0,0.0,0.0,0.0,0.0,0.0,0.0,0.0,0.0,0.0,0.0,0.0,0.0,0.0,0.0,0.0,0.0,0.0,0.0,0.0,0.0,0.0,0.0,0.0,-1.6754,-1.7928,-2.0332,-2.0585,-2.0585,-2.0585,-1.8724,-1.694,-1.5475,-1.3504,0.0,0.0,0.0,0.0,0.0,0.0,0.0,0.0,0.0,0.0,0.0,0.0,0.0,0.0,0.0,0.0,0.0,0.0,0.0,0.0,0.0,0.0,0.0,0.0,0.0,0.0,0.0,0.0,0.0,0.0,0.0,0.0,0.0,0.0,0.0,0.0,0.0,0.0,0.0,0.0,0.0,0.0,0.0,0.0,0.0,0.0,0.0,0.0,0.0,0.0,0.0,0.0,0.0,0.0,0.0,0.0,0.0,0.0,0.0,0.0,0.0,0.0,0.0,0.0,0.0,0.0,0.0,0.0,0.0,0.0,0.0,0.0,0.0,0.0,0.0,0.0,0.0,0.0,0.0,0.0,0.0,0.0,0.0,0.0,0.0,0.0,0.0,0.0,0.0,0.0,0.0,0.0,0.0,0.0,0.0,0.0,0.0,0.0,0.0,0.0,0.0,0.0,-1.6913,-1.8594,-2.041,-2.0541,-2.0511,-2.0511,-1.81,-1.6233,-1.5356,-1.291,0.0,0.0,0.0,0.0,0.0,0.0,0.0,0.0,0.0,0.0,0.0,0.0,0.0,0.0,0.0,0.0,0.0,0.0,0.0,0.0,0.0,0.0,0.0,0.0,0.0,0.0,0.0,0.0,0.0,0.0,0.0,0.0,0.0,0.0,0.0,0.0,0.0,0.0,0.0,0.0,0.0,0.0,0.0,0.0,0.0,0.0,0.0,0.0,0.0,0.0,0.0,0.0,0.0,0.0,0.0,0.0,0.0,0.0,0.0,0.0,0.0,0.0,0.0,0.0,0.0,0.0,0.0,0.0,0.0,0.0,0.0,0.0,0.0,0.0,0.0,0.0,0.0,0.0,0.0,0.0,0.0,0.0,0.0,0.0,0.0,0.0,0.0,0.0,0.0,0.0,0.0,0.0,0.0,0.0,0.0,0.0,0.0,0.0,0.0,0.0,0.0,0.0,-1.6366,-1.7957,0.0,-2.0478,-2.0222,-1.974,-1.823,-1.6508,-1.4609,0.0,0.0,0.0,0.0,0.0,0.0,0.0,0.0,0.0,0.0,0.0,0.0,0.0,0.0,0.0,0.0,0.0,0.0,0.0,0.0,0.0,0.0,0.0,0.0,0.0,0.0,0.0,0.0,0.0,0.0,0.0,0.0,0.0,0.0,0.0,0.0,0.0,0.0,0.0,0.0,0.0,0.0,0.0,0.0,0.0,0.0,0.0,0.0,0.0,0.0,0.0,0.0,0.0,0.0,0.0,0.0,0.0,0.0,0.0,0.0,0.0,0.0,0.0,0.0,0.0,0.0,0.0,0.0,0.0,0.0,0.0,0.0,0.0,0.0,0.0,0.0,0.0,0.0,0.0,0.0,0.0,0.0,0.0,0.0,0.0,0.0,0.0,0.0,0.0,0.0,0.0,0.0,0.0,0.0,0.0,0.0,0.0,0.0,0.0,0.0,0.0,0.0,-1.5098,-1.6291,-1.7751,0.0,-2.0029,-1.953,-1.8401,-1.7222,-1.5673,-1.3687,0.0,0.0,0.0,0.0,0.0,0.0,0.0,0.0,0.0,0.0,0.0,0.0,0.0,0.0,0.0,0.0,0.0,0.0,0.0,0.0,0.0,0.0,0.0,0.0,0.0,0.0,0.0,0.0,0.0,0.0,0.0,0.0,0.0,0.0,0.0,0.0,0.0,0.0,0.0,0.0,0.0,0.0,0.0,0.0,0.0,0.0,0.0,0.0,0.0,0.0,0.0,0.0,0.0,0.0,0.0,0.0,0.0,0.0,0.0,0.0,0.0,0.0,0.0,0.0,0.0,0.0,0.0,0.0,0.0,0.0,0.0,0.0,0.0,0.0,0.0,0.0,0.0,0.0,0.0,0.0,0.0,0.0,0.0,0.0,0.0,0.0,0.0,0.0,0.0,0.0,0.0,0.0,0.0,0.0,0.0,0.0,0.0,0.0,0.0,0.0,0.0,0.0,-1.5152,-1.6842,-1.821,-1.9093,-1.9117,-1.8346,-1.6543,-1.479,-1.3453,0.0,0.0,0.0,0.0,0.0,0.0,0.0,0.0,0.0,0.0,0.0,0.0,0.0,0.0,0.0,0.0,0.0,0.0,0.0,0.0,0.0,0.0,0.0,0.0,0.0,0.0,0.0,0.0,0.0,0.0,0.0,0.0,0.0,0.0,0.0,0.0,0.0,0.0,0.0,0.0,0.0,0.0,0.0,0.0,0.0,0.0,0.0,0.0,0.0,0.0,0.0,0.0,0.0,0.0,0.0,0.0,0.0,0.0,0.0,0.0,0.0,0.0,0.0,0.0,0.0,0.0,0.0,0.0,0.0,0.0,0.0,0.0,0.0,0.0,0.0,0.0,0.0,0.0,0.0,0.0,0.0,0.0,0.0,0.0,0.0,0.0,0.0,0.0,0.0,0.0,0.0,0.0,0.0,0.0,0.0,0.0,0.0,0.0,0.0,0.0,0.0,0.0,0.0,-1.4257,-1.5287,-1.6415,-1.7907,-1.7979,-1.7201,-1.5487,-1.4871,-1.3745,-1.1801,0.0,0.0,0.0,0.0,0.0,0.0,0.0,0.0,0.0,0.0,0.0,0.0,0.0,0.0,0.0,0.0,0.0,0.0,0.0,0.0,0.0,0.0,0.0,0.0,0.0,0.0,0.0,0.0,0.0,0.0,0.0,0.0,0.0,0.0,0.0,0.0,0.0,0.0,0.0,0.0,0.0,0.0,0.0,0.0,0.0,0.0,0.0,0.0,0.0,0.0,0.0,0.0,0.0,0.0,0.0,0.0,0.0,0.0,0.0,0.0,0.0,0.0,0.0,0.0,0.0,0.0,0.0,0.0,0.0,0.0,0.0,0.0,0.0,0.0,0.0,0.0,0.0,0.0,0.0,0.0,0.0,0.0,0.0,0.0,0.0,0.0,0.0,0.0,0.0,0.0,0.0,0.0,0.0,0.0,0.0,0.0,0.0,0.0,0.0,0.0,0.0,0.0,-1.3767,-1.4543,-1.5472,-1.6862,-1.6924,-1.6068,-1.4028,-1.3854,-1.2934,-1.0753,0.0,0.0,0.0,0.0,0.0,0.0,0.0,0.0,0.0,0.0,0.0,0.0,0.0,0.0,0.0,0.0,0.0,0.0,0.0,0.0,0.0,0.0,0.0,0.0,0.0,0.0,0.0,0.0,0.0,0.0,0.0,0.0,0.0,0.0,0.0,0.0,0.0,0.0,0.0,0.0,0.0,0.0,0.0,0.0,0.0,0.0,0.0,0.0,0.0,0.0,0.0,0.0,0.0,0.0,0.0,0.0,0.0,0.0,0.0,0.0,0.0,0.0,0.0,0.0,0.0,0.0,0.0,0.0,0.0,0.0,0.0,0.0,0.0,0.0,0.0,0.0,0.0,0.0,0.0,0.0,0.0,0.0,0.0,0.0,0.0,0.0,0.0,0.0,0.0,0.0,0.0,0.0,0.0,0.0,0.0,0.0,0.0,0.0,0.0,0.0,0.0,0.0,-1.3459,-1.4243,-1.4982,-1.588,-1.596,-1.4963,-1.2485,-1.2286,-1.15,-0.9614,0.0,0.0,0.0,0.0,0.0,0.0,0.0,0.0,0.0,0.0,0.0,0.0,0.0,0.0,0.0,0.0,0.0,0.0,0.0,0.0,0.0,0.0,0.0,0.0,0.0,0.0,0.0,0.0,0.0,0.0,0.0,0.0,0.0,0.0,0.0,0.0,0.0,0.0,0.0,0.0,0.0,0.0,0.0,0.0,0.0,0.0,0.0,0.0,0.0,0.0,0.0,0.0,0.0,0.0,0.0,0.0,0.0,0.0,0.0,0.0,-1.1713,0.0,0.0,0.0,0.0,0.0,0.0,0.0,0.0,0.0,0.0,0.0,0.0,0.0,0.0,0.0,0.0,0.0,0.0,0.0,0.0,0.0,0.0,0.0,0.0,0.0,0.0,0.0,0.0,0.0,0.0,0.0,0.0,0.0,0.0,0.0,0.0,0.0,0.0,0.0,0.0,0.0,-1.2563,-1.2775,-1.335,-1.485,-1.4897,-1.4114,-1.2299,-1.2147,-1.1164,-0.8881,-0.9246,0.0,0.0,0.0,0.0,0.0,0.0,0.0,0.0,0.0,0.0,0.0,0.0,0.0,0.0,0.0,0.0,0.0,0.0,0.0,0.0,0.0,0.0,0.0,0.0,0.0,0.0,0.0,0.0,0.0,0.0,0.0,0.0,0.0,0.0,0.0,0.0,0.0,0.0,0.0,0.0,0.0,0.0,0.0,0.0,0.0,0.0,0.0,0.0,0.0,0.0,0.0,0.0,0.0,0.0,0.0,0.0,0.0,0.0,0.0,0.0,-1.3187,0.0,0.0,0.0,0.0,0.0,0.0,0.0,0.0,0.0,0.0,0.0,0.0,0.0,0.0,0.0,0.0,0.0,0.0,0.0,0.0,0.0,0.0,0.0,0.0,0.0,0.0,0.0,0.0,0.0,0.0,0.0,0.0,0.0,0.0,0.0,0.0,0.0,0.0,0.0,0.0,-1.215,-1.2244,-1.2784,-1.4431,-1.4545,-1.3811,-1.2154,-1.2003,-1.1076,-0.893,-0.8841,0.0,0.0,0.0,0.0,0.0,0.0,0.0,0.0,0.0,0.0,0.0,0.0,0.0,0.0,0.0,0.0,0.0,0.0,0.0,0.0,0.0,0.0,0.0,0.0,0.0,0.0,0.0,0.0,0.0,0.0,0.0,0.0,0.0,0.0,0.0,0.0,0.0,0.0,0.0,0.0,0.0,0.0,0.0,0.0,0.0,0.0,0.0,0.0,0.0,0.0,0.0,0.0,0.0,-1.7059,-1.7703,-1.759,-1.7644,-1.8277,-1.9207,-1.6884,-1.5758,-1.5477,-1.4583,0.0,0.0,0.0,0.0,0.0,0.0,0.0,0.0,0.0,0.0,0.0,0.0,0.0,0.0,0.0,0.0,0.0,0.0,0.0,0.0,0.0,0.0,0.0,0.0,-1.1592,-1.1309,-1.0379,0.0,0.0,0.0,0.0,0.0,0.0,0.0,0.0,0.0,0.0,0.0,-1.1934,-1.2172,-1.2764,-1.4247,-1.4393,-1.375,-1.2175,-1.1922,-1.1053,-0.9218,-0.8633,-0.815,0.0,0.0,0.0,0.0,0.0,0.0,0.0,0.0,0.0,0.0,0.0,0.0,0.0,0.0,0.0,0.0,0.0,0.0,0.0,0.0,0.0,0.0,0.0,0.0,0.0,0.0,0.0,0.0,0.0,0.0,0.0,0.0,-1.0806,-1.2176,0.0,0.0,0.0,0.0,0.0,0.0,0.0,0.0,0.0,0.0,0.0,0.0,0.0,-1.68,-1.6686,-1.7986,-1.8314,-1.7721,-1.9024,-1.9316,-1.8716,-1.9338,-1.9738,-1.9866,-1.9501,0.0,-1.7531,-1.5523,0.0,0.0,0.0,0.0,0.0,0.0,0.0,0.0,0.0,0.0,0.0,0.0,0.0,0.0,0.0,0.0,0.0,0.0,0.0,0.0,0.0,0.0,-1.2096,-1.1503,-1.1349,-1.1329,0.0,-1.0966,-1.0633,-1.0524,-1.008,0.0,0.0,0.0,0.0,0.0,0.0,0.0,-1.1654,-1.2276,-1.2977,-1.3887,-1.3983,-1.36,-1.2672,-1.202,-1.0917,-0.9208,-0.9027,-0.8347,-0.6916,-0.7336,0.0,0.0,0.0,0.0,0.0,0.0,0.0,0.0,0.0,0.0,0.0,0.0,0.0,0.0,0.0,0.0,0.0,0.0,0.0,0.0,0.0,0.0,0.0,0.0,0.0,0.0,0.0,0.0,0.0,-1.1414,-1.2606,-1.3715,-1.3806,-1.3857,0.0,0.0,0.0,0.0,0.0,0.0,0.0,0.0,0.0,-1.6226,-1.8051,-1.8762,-1.8192,-1.9605,-2.0159,-1.9853,-2.1251,-2.1735,-2.1431,-2.1769,-2.1907,-2.1857,-2.1042,-2.0361,-1.9677,-1.7546,-1.652,-1.6247,0.0,0.0,0.0,0.0,-1.5132,-1.4793,-1.5041,-1.4828,-1.4378,-1.3922,0.0,0.0,0.0,0.0,0.0,0.0,0.0,0.0,0.0,0.0,-1.423,-1.3812,-1.3718,-1.3735,-1.3801,-1.2944,-1.1971,0.0,-1.1672,-1.1729,-1.0435,0.0,0.0,0.0,0.0,-1.0948,-1.2115,-1.2525,-1.301,-1.3811,-1.3906,-1.3539,-1.2665,-1.1905,-1.0947,-0.9686,-0.883,-0.798,-0.7127,-0.7089,-0.689,0.0,0.0,0.0,0.0,0.0,0.0,0.0,0.0,0.0,0.0,0.0,0.0,0.0,0.0,0.0,0.0,0.0,0.0,0.0,0.0,0.0,0.0,0.0,0.0,0.0,0.0,0.0,0.0,-1.2827,-1.391,-1.4891,-1.5439,-1.5603,0.0,0.0,0.0,0.0,0.0,0.0,-1.7611,-1.8333,-1.8652,-1.859,-2.0088,-2.0631,-2.0056,-2.1376,-2.2037,-2.2053,-2.3154,-2.3678,-2.3678,-2.3678,-2.3678,-2.3613,-2.2527,-2.1935,-2.1576,-1.9257,-1.8332,-1.8269,-1.7133,-1.672,-1.6853,-1.759,-1.7369,-1.6736,-1.7149,-1.675,-1.6007,-1.5402,-1.4873,-1.4348,-1.3655,0.0,0.0,0.0,0.0,-1.5365,-1.596,-1.5965,-1.579,-1.5634,-1.5595,-1.5595,-1.5595,-1.4942,-1.3887,0.0,-1.2763,-1.2851,-1.1079,0.0,0.0,0.0,0.0,-1.132,-1.2453,-1.276,-1.3105,-1.3708,-1.3761,-1.3499,-1.2796,-1.1878,-1.102,-1.0282,-0.884,-0.7823,-0.7376,-0.6798,-0.641,-0.6202,0.0,0.0,0.0,0.0,0.0,0.0,0.0,0.0,0.0,0.0,0.0,0.0,0.0,0.0,0.0,0.0,0.0,0.0,0.0,0.0,0.0,0.0,0.0,0.0,0.0,0.0,0.0,0.0,0.0,-1.5395,-1.6365,0.0,0.0,0.0,0.0,-1.7942,-1.7897,-1.8155,-1.8788,-1.9053,-1.9395,-1.9891,-2.1397,-2.2527,-2.3173,-2.3949,-2.4321,-2.4321,-2.4406,-2.444,-2.444,-2.444,-2.444,-2.444,-2.4355,-2.3949,-2.3054,-2.0073,-1.8978,-1.9074,-1.8293,-1.8107,-1.8363,-1.8914,-1.8648,-1.7979,-1.7815,-1.7274,-1.6641,-1.6607,-1.67,-1.6695,-1.5962,-1.588,0.0,0.0,-1.6394,-1.5977,-1.6516,-1.615,-1.5615,-1.5605,-1.5595,-1.5595,-1.5595,-1.6296,-1.6196,0.0,-1.219,-1.1261,-1.1261,0.0,-1.1263,-1.127,-1.1858,-1.2309,-1.2326,-1.2921,-1.337,-1.343,-1.343,-1.3404,-1.3362,-1.1981,-1.103,-1.0879,-0.9468,-0.8214,-0.7242,-0.6578,-0.6212,-0.6197,-0.5544,0.0,0.0,0.0,0.0,0.0,0.0,0.0,0.0,0.0,0.0,0.0,0.0,0.0,0.0,0.0,0.0,0.0,0.0,0.0,0.0,0.0,0.0,0.0,0.0,0.0,0.0,0.0,0.0,-1.8256,-1.8887,0.0,-1.858,-1.8737,-1.9,-1.9301,-1.9311,-1.9847,-2.1025,-2.1613,-2.2207,-2.2868,-2.3441,-2.3848,-2.4101,-2.4831,-2.5203,-2.5203,-2.5692,-2.5929,-2.5912,-2.5423,-2.5203,-2.5169,-2.4711,-2.4355,-2.4017,-2.2951,-2.1718,-2.0407,-1.9629,-1.9358,-1.9451,-1.9636,-1.9549,-1.9299,-1.9244,-1.9051,-1.8674,-1.7726,-1.7148,-1.6761,-1.6489,-1.6453,-1.6647,-1.7324,-1.7337,-1.7163,-1.7359,-1.7219,-1.7033,-1.7033,-1.7033,-1.7033,-1.7033,-1.6766,-1.632,-1.5646,-1.4845,-1.3934,-1.2953,-1.2304,-1.1967,-1.1995,-1.2187,-1.2432,-1.2706,-1.3126,-1.3337,-1.3156,-1.3303,-1.3396,-1.3396,-1.1983,-1.1032,-1.0914,-0.9511,-0.8251,-0.7246,-0.6562,-0.5928,-0.5376,-0.4704,-0.4865,0.0,0.0,0.0,0.0,0.0,0.0,0.0,0.0,0.0,0.0,0.0,0.0,0.0,0.0,0.0,0.0,0.0,0.0,0.0,0.0,0.0,0.0,0.0,0.0,0.0,0.0,-1.8628,-1.9849,-2.0841,-2.1152,-2.0479,-2.0798,-2.108,-2.1143,-2.1383,-2.1958,-2.2987,-2.3511,-2.4118,-2.4846,-2.488,-2.4998,-2.5235,-2.5727,-2.5981,-2.5981,-2.6471,-2.6691,-2.6674,-2.6184,-2.5981,-2.5947,-2.5455,-2.51,-2.488,-2.488,-2.3864,-2.224,-2.1451,-2.1147,-2.1113,-2.0876,-2.0623,-2.0369,-2.0086,-2.0002,-1.9833,-1.8865,-1.8205,-1.7811,-1.7811,-1.7811,-1.7912,-1.8408,-1.8358,-1.8166,-1.8166,-1.7986,-1.78,-1.78,-1.78,-1.78,-1.78,-1.7159,-1.6634,-1.6859,-1.6159,-1.5223,-1.4268,-1.3343,-1.2873,-1.3261,-1.2791,-1.263,-1.3295,-1.3227,-1.306,-1.2871,-1.3024,-1.313,-1.313,-1.2047,-1.1168,-1.0693,-0.9597,-0.8505,-0.7484,-0.6793,-0.616,-0.5586,-0.485,-0.4885,-0.5731,0.0,0.0,0.0,0.0,0.0,0.0,0.0,0.0,0.0,0.0,0.0,0.0,0.0,0.0,0.0,0.0,0.0,0.0,0.0,0.0,0.0,0.0,0.0,-1.68,-1.8076,-1.9299,-2.0052,-2.2076,-2.2868,-2.1444,-2.3238,-2.4203,-2.3477,-2.4118,-2.4525,-2.4525,-2.4558,-2.4897,-2.5609,-2.5626,-2.5981,-2.6691,-2.6691,-2.6691,-2.6691,-2.6691,-2.6691,-2.6691,-2.6691,-2.6691,-2.6657,-2.6657,-2.6251,-2.5575,-2.5575,-2.5135,-2.4423,-2.3712,-2.3427,-2.3342,-2.2615,-2.187,-2.1123,-2.0335,-2.0052,-2.0035,-2.0023,-2.0006,-1.9989,-1.9976,-1.9963,-1.9963,-1.9963,-1.9436,-1.8887,-1.887,-1.8334,-1.7783,-1.7777,-1.7777,-1.7777,-1.7777,-1.7502,-1.7268,-1.7284,-1.5854,-1.4738,-1.5054,-1.4293,-1.3967,-1.4928,-1.3676,0.0,-1.3949,-1.32,-1.2601,-1.2623,-1.2633,-1.2633,-1.2633,-1.2165,-1.1408,-1.0265,-0.9731,-0.8975,-0.7906,-0.7235,-0.6878,-0.6842,-0.6043,-0.536,-0.4838,0.0,0.0,0.0,0.0,0.0,0.0,0.0,0.0,0.0,0.0,0.0,0.0,0.0,0.0,0.0,0.0,0.0,0.0,0.0,0.0,0.0,0.0,-1.8471,-1.9017,-2.0403,-2.1837,-2.3105,-2.3814,-2.4034,-2.3628,-2.4135,-2.4406,-2.4203,-2.4881,-2.5304,-2.5304,-2.5795,-2.62,-2.6387,-2.6404,-2.6488,-2.6691,-2.6691,-2.6691,-2.6691,-2.6691,-2.6691,-2.6691,-2.6691,-2.6404,-2.5896,-2.5896,-2.5473,-2.4795,-2.4795,-2.4677,-2.4474,-2.4271,-2.4203,-2.4118,-2.3359,-2.2632,-2.1972,-2.1738,-2.1329,-2.0816,-2.0467,-1.9992,-1.9511,-1.9207,-1.9139,-1.9139,-1.9139,-1.8977,-1.8718,-1.8227,-1.7951,-1.7675,-1.7182,-1.708,-1.708,-1.708,-1.6799,-1.6659,-1.6892,-1.615,-1.5483,-1.5527,-1.4856,-1.4417,-1.4698,-1.3924,0.0,-1.3441,-1.2943,-1.2705,-1.2999,-1.3215,-1.3339,-1.3339,-1.2274,-1.1204,-1.0257,-0.9124,-0.8019,-0.7001,-0.6785,-0.6382,-0.5747,-0.5986,-0.5935,0.0,0.0,0.0,0.0,0.0,0.0,0.0,0.0,0.0,0.0,0.0,0.0,0.0,0.0,0.0,0.0,0.0,0.0,0.0,0.0,0.0,0.0,-1.9092,-2.0331,-2.1701,-2.2665,-2.3646,-2.4829,-2.5235,-2.5422,-2.5422,-2.5422,-2.5422,-2.5422,-2.5812,-2.6065,-2.6065,-2.6759,-2.7165,-2.7165,-2.7165,-2.7165,-2.7165,-2.6843,-2.6691,-2.6691,-2.6691,-2.6691,-2.6691,-2.6387,-2.6015,-2.5576,-2.527,-2.4897,-2.4491,-2.4491,-2.4491,0.0,0.0,0.0,0.0,0.0,-2.2868,-2.2688,-2.2178,-2.1733,-2.1278,-2.0854,-2.0412,-2.0028,-1.979,-1.9714,-1.9714,-1.9714,-1.9508,-1.9174,-1.8791,-1.8233,-1.7704,-1.7319,-1.6997,-1.6802,-1.6802,-1.6528,-1.6369,-1.6541,-1.6163,0.0,-1.5761,-1.5151,-1.4835,-1.5252,-1.4378,-1.3674,-1.3663,-1.309,-1.2675,-1.2626,-1.2741,-1.2847,-1.2847,-1.2201,0.0,0.0,0.0,-0.8392,-0.707,-0.6907,0.0,0.0,0.0,0.0,0.0,0.0,0.0,0.0,-0.4571,-0.5005,0.0,0.0,0.0,0.0,0.0,0.0,0.0,0.0,0.0,0.0,0.0,0.0,0.0,0.0,0.0,0.0,-2.0991,-2.229,-2.4338,-2.4694,-2.4998,-2.5659,-2.6302,-2.6691,-2.6691,-2.6776,-2.6826,-2.6826,-2.6911,-2.6962,-2.6962,0.0,0.0,0.0,0.0,-2.7756,-2.7672,-2.7029,-2.6691,-2.6691,-2.6691,-2.6691,-2.6674,-2.5947,-2.5542,-2.5439,-2.4694,-2.4291,-2.4176,-2.4176,-2.4211,-2.4264,-2.4511,-2.4169,-2.3444,-2.2796,-2.2933,-2.3259,-2.2068,0.0,0.0,-2.1071,-2.0926,-2.091,-2.0862,-2.0845,-2.0845,-2.0845,-2.0385,-1.9862,-1.9783,-1.8833,-1.7883,-1.7804,-1.7278,-1.6784,-1.6784,-1.651,-1.6246,-1.6246,-1.5997,-1.5799,-1.5799,-1.5305,-1.522,-1.6112,-1.4905,-1.4013,-1.4324,-1.3453,-1.2594,-1.2089,0.0,0.0,-1.191,-1.2059,-1.1744,-1.0812,-1.0288,-0.9329,-0.7772,-0.7462,-0.7327,-0.7327,-0.7112,-0.6625,-0.5887,-0.6138,-0.5579,-0.4309,-0.5723,-0.5933,0.0,0.0,0.0,0.0,0.0,0.0,0.0,0.0,0.0,0.0,0.0,0.0,0.0,0.0,0.0,-2.1603,-2.297,-2.422,-2.5236,-2.5896,-2.6336,-2.6471,-2.6607,-2.6691,-2.6691,-2.7249,-2.7587,-2.7587,-2.818,-2.8553,-2.8553,-2.8688,-2.8467,-2.7824,-2.7807,-2.7503,-2.6911,-2.6776,-2.6691,-2.6691,0.0,0.0,-2.6674,-2.5947,-2.527,-2.4677,-2.3917,-2.3063,-2.2162,-2.2162,-2.2307,-2.2753,-2.4643,-2.4932,-2.4292,-2.4298,-2.4034,-2.3489,-2.2329,-2.1922,-2.1759,-2.0771,-2.0433,-2.0365,-2.0052,-1.9945,0.0,-1.9945,-1.9851,-1.9606,-1.9061,-1.8743,-1.8393,-1.7848,-1.7212,-1.6713,-1.6713,-1.629,-1.5898,-1.5898,-1.5842,-1.5799,-1.5799,-1.5694,-1.5663,-1.5869,-1.5152,-1.4629,-1.4679,-1.3587,-1.2954,-1.3376,-1.2927,-1.2609,-1.2609,-1.2159,-1.1478,-1.0542,-0.9493,-0.8758,-0.8415,-0.8202,-0.8083,-0.8083,-0.7735,-0.7368,-0.6997,-0.6782,-0.6426,-0.5932,-0.5772,-0.5315,0.0,0.0,0.0,0.0,0.0,0.0,0.0,0.0,0.0,0.0,0.0,-1.8843,0.0,0.0,-2.2632,-2.3782,-2.4577,-2.5304,-2.6048,-2.6471,-2.6691,-2.6691,-2.7029,-2.7249,-2.7249,-2.796,-2.8399,-2.8399,-2.8755,-2.8883,-2.8569,-2.8829,-2.8679,-2.7964,-2.785,-2.7621,-2.7249,-2.6877,-2.659,-2.6349,-2.6349,-2.621,-2.5929,-2.5185,-2.4477,-2.3753,-2.3012,-2.2179,-2.1291,-2.1291,-2.1407,-2.1729,-2.362,-2.4347,-2.4296,-2.4021,-2.39,-2.3734,-2.2568,-2.1935,-2.1522,-2.075,-2.0271,-1.9947,-1.9764,-1.9708,-1.9708,-1.9708,-1.9708,-1.9633,-1.9286,-1.8957,-1.8627,-1.8267,-1.7699,-1.7115,-1.6771,-1.6458,-1.6159,-1.5858,-1.5799,-1.5799,-1.5799,-1.5799,-1.5799,-1.5799,-1.5514,-1.517,-1.4841,-1.4212,-1.361,-1.3092,-1.2756,-1.2358,-1.1898,-1.1546,-1.1007,-1.0197,-0.9492,-0.8852,-0.833,-0.8107,-0.7923,-0.7757,-0.7554,-0.7315,-0.7048,-0.6883,-0.6561,-0.6104,-0.6029,-0.5694,0.0,0.0,0.0,0.0,0.0,0.0,0.0,0.0,-1.7963,-2.02,-2.1177,-2.1986,-2.3173,-2.4118,-2.4965,-2.5693,-2.5914,-2.6218,-2.6826,-2.6843,-2.6707,-2.6573,-2.7094,-2.7497,-2.7614,-2.8265,-2.8714,-2.8865,-2.8881,-2.8677,-2.8174,-2.8505,-2.841,-2.7765,-2.7587,-2.7439,-2.7289,-2.672,-2.6263,-2.6013,-2.5888,-2.567,-2.5338,-2.4481,-2.3818,-2.3227,-2.2294,-2.1481,-2.0862,-2.078,-2.081,-2.1079,-2.2327,-2.3262,-2.3853,-2.3423,-2.3647,-2.3992,-2.2786,-2.2014,-2.1501,-2.1031,-2.0438,-1.9902,-1.9902,-1.9813,-1.9708,-1.9708,-1.9708,-1.9708,-1.9708,-1.9286,-1.8897,-1.8897,-1.8371,-1.7758,-1.7204,-1.6875,-1.6562,-1.6069,-1.5801,-1.5653,-1.5653,-1.5595,-1.5595,-1.577,-1.5726,-1.5475,-1.4926,-1.4679,-1.4028,-1.268,-1.2313,-1.1842,-1.0976,-1.0837,-1.057,-1.0028,-0.9792,-0.9248,-0.8313,-0.8108,-0.7865,-0.751,-0.7449,-0.7314,-0.7081,-0.6933,-0.6575,-0.6064,-0.6276,-0.6133,-1.9266,-1.7704,0.0,-1.8025,-1.7416,-1.7602,0.0,0.0,-2.0285,-2.2547,-2.3088,-2.319,-2.3359,-2.4543,-2.5727,-2.6454,-2.7131,-2.7587,-2.7672,-2.7317,-2.6813,-2.6168,-2.6151,-2.6412,-2.6947,-2.7302,-2.7738,-2.8324,-2.842,-2.8441,-2.8378,-2.7865,-2.7256,-2.6523,-2.6486,-2.615,-2.5502,-2.5406,-2.5596,-2.5979,-2.5521,-2.5521,-2.5872,-2.4664,-2.4055,-2.3893,-2.2131,-2.0986,-2.0348,-1.9997,-2.0198,-2.0813,-2.1571,-2.2269,-2.298,-2.3906,-2.43,-2.4208,-2.3046,-2.262,-2.2455,-2.1789,-2.1141,-2.0583,-2.0583,-2.0168,-1.9708,-1.9708,-1.9708,-1.9708,-1.9708,-1.9648,-1.9588,-1.9588,-1.9076,-1.8568,-1.8493,-1.7533,-1.6681,-1.6622,-1.5829,-1.518,-1.518,-1.4876,-1.4907,-1.5668,-1.5448,-1.5151,-1.5093,-1.4236,-1.3578,-1.3396,-1.2402,-1.152,-1.0952,-1.0631,-1.0419,-1.034,-1.0045,-0.9678,-0.9256,-0.9217,-0.902,-0.8621,-0.833,-0.8161,-0.8133,-0.7425,-0.7026,-0.6939,-0.627,-0.5725,-2.0733,0.0,0.0,0.0,-1.9756,-2.045,-2.2327,-2.2361,-2.2496,-2.4306,-2.4678,-2.4814,-2.5236,-2.5812,-2.6488,0.0,-2.7305,-2.7308,-2.7379,-2.6915,-2.6312,-2.5621,-2.5259,-2.5454,-2.6435,-2.7375,-2.7902,-2.7774,-2.8142,-2.8078,-2.7318,-2.6951,-2.6461,-2.5801,-2.57,-2.5525,-2.5202,-2.5202,-2.5163,-2.5067,-2.4835,-2.4692,-2.4576,-2.405,-2.3625,-2.3225,-2.2045,-2.1159,-2.0534,-2.0347,-2.0453,-2.0763,-2.144,-2.2119,-2.2798,-2.3631,-2.3927,-2.3876,-2.3381,-2.3002,-2.2643,-2.2373,-2.1814,-2.1216,-2.0808,-2.0513,-2.0198,-1.9813,-1.9708,-1.9708,-1.9708,-1.9708,-1.9708,-1.9708,-1.9235,-1.8709,-1.8311,-1.7557,-1.673,-1.6021,-1.552,-1.5126,-1.4793,-1.4611,-1.4627,-1.4997,-1.4876,-1.4752,-1.4752,-1.4358,-1.3868,-1.3271,-1.2258,-1.1408,-1.0834,-1.0664,-1.0443,-1.0123,-0.979,-0.9449,-0.9062,-0.8869,-0.8565,-0.8166,-0.8019,-0.7947,-0.7947,-0.7379,-0.6975,-0.6745,-0.6324,-0.5906,-2.1749,0.0,0.0,-2.1113,-2.1772,-2.2702,-2.3108,-2.363,-2.4374,-2.5642,-2.5913,-2.6065,-2.659,-2.6691,0.0,-2.7746,-2.7514,-2.7213,-2.7153,-2.6643,-2.5964,-2.5084,-2.4511,-2.455,-2.548,-2.664,-2.7229,-2.693,-2.7182,-2.6955,-2.6026,-2.5696,-2.5363,-2.4925,-2.4817,-2.4772,-2.4772,-2.4772,-2.4652,-2.441,-2.4246,-2.4053,-2.3815,-2.3659,-2.3266,-2.2673,-2.2194,-2.1605,-2.0957,-2.0778,-2.0932,-2.1291,-2.1575,-2.2203,-2.3002,-2.343,-2.3595,-2.3595,-2.3595,-2.331,-2.2957,-2.2957,-2.2523,-2.1874,-2.1395,-2.0991,-2.0598,-2.0109,-1.9733,-1.9479,-1.9479,-1.9369,-1.9262,-1.9262,-1.8968,-1.8555,-1.8063,-1.7506,-1.6853,-1.597,-1.5564,-1.5182,-1.4648,-1.4457,-1.4338,-1.4176,-1.4133,-1.4181,-1.4326,-1.4214,-1.3808,-1.2928,-1.2229,-1.1515,-1.0784,-1.072,-1.0518,-0.9989,-0.9625,-0.9253,-0.8849,-0.8485,-0.8181,-0.79,-0.7895,-0.7869,-0.7846,-0.7431,-0.7006,-0.6586,-0.6364,-0.6121,0.0,0.0,-2.1563,-2.2953,-2.3325,-2.3731,-2.5186,-2.5524,-2.5761,-2.6505,-2.6657,-2.6674,-2.6691,-2.6691,-2.7009,-2.7946,-2.8079,-2.7885,-2.7366,-2.6839,-2.5973,-2.4585,-2.3948,-2.3653,0.0,-2.4312,-2.4987,-2.5601,-2.5077,-2.4695,-2.4657,-2.4043,-2.3668,-2.3646,-2.3653,-2.3659,-2.3659,-2.3659,-2.39,-2.4389,-2.3879,-2.39,-2.4348,-2.3837,-2.3266,-2.2703,-2.2673,-2.2298,-2.162,-2.0976,-2.147,-2.2583,-2.1934,-2.2473,-2.3565,-2.3595,-2.3595,-2.3595,-2.3595,-2.3595,-2.3565,-2.3565,-2.3167,-2.2658,-2.2643,-2.1724,-2.0703,-2.0673,-1.9832,-1.893,-1.893,-1.8535,-1.8165,-1.8165,-1.8145,-1.8112,-1.8098,-1.757,-1.71,-1.7059,-1.6203,-1.533,-1.4787,-1.4359,-1.3907,-1.3325,-1.325,-1.3408,-1.3868,-1.3514,-1.3036,-1.2483,-1.2391,-1.195,-1.088,-1.0802,-1.0599,-1.0116,-0.9726,-0.9309,-0.8915,-0.8507,-0.8325,-0.8381,-0.8375,-0.8311,-0.8183,-0.7772,-0.7312,-0.6777,-0.6389,-0.6201,0.0,0.0,-2.3509,-2.4,-2.4492,-2.5118,-2.6116,-2.6336,-2.6251,-2.6031,-2.5981,-2.5828,-2.5337,-2.5346,-2.5725,-2.6556,-2.6865,-2.6756,-2.6193,-2.638,-2.5894,-2.4091,-2.4093,0.0,0.0,0.0,0.0,-2.4918,-2.4724,-2.4605,-2.4605,-2.3947,-2.3595,-2.3595,-2.3595,-2.3595,-2.3595,-2.3595,-2.3702,-2.3879,-2.3702,-2.3702,-2.3858,-2.3681,-2.349,-2.3295,-2.3295,-2.2936,-2.2358,-2.2134,-2.2298,-2.2673,-2.2448,-2.2862,-2.3595,-2.3595,-2.3595,-2.3595,-2.3595,-2.3595,-2.3595,-2.3595,-2.3186,-2.2608,-2.2163,-2.1434,-2.0599,-1.9749,-1.9501,-1.9329,-1.8571,-1.8496,-1.8528,-1.8169,-1.7827,-1.7565,-1.7565,-1.7113,-1.6604,-1.6236,-1.5877,-1.5465,-1.4923,-1.4721,-1.4437,-1.3878,-1.3453,-1.3267,-1.3425,-1.303,-1.2677,-1.2496,-1.2182,-1.1682,-1.0934,-1.0866,-1.0653,-1.0134,-0.9772,-0.9504,-0.9375,-0.8983,-0.8763,-0.8789,-0.8445,-0.8239,-0.8193,-0.7443,-0.6977,-0.6796,-0.6574,-0.6246,0.0,-2.3968,-2.4626,-2.5151,-2.5642,-2.6116,-2.659,-2.6488,-2.6167,-2.571,-2.5389,-2.505,-2.4592,-2.4496,-2.479,-2.5778,-2.5977,-2.5988,-2.5837,-2.6267,-2.6019,-2.4507,-2.4694,0.0,0.0,0.0,0.0,-2.4619,-2.4605,-2.4605,-2.4605,-2.3947,-2.3595,-2.3595,-2.3595,-2.3595,-2.3595,-2.3595,-2.3595,-2.3595,-2.3595,-2.3595,-2.3595,-2.3595,-2.3595,-2.3595,-2.3595,-2.337,-2.3002,-2.2793,-2.2823,-2.3002,-2.2778,-2.3077,-2.3595,-2.3595,-2.3465,-2.3312,-2.353,-2.3595,-2.3551,-2.3355,-2.3024,-2.2577,-2.19,-2.1279,-2.0643,-1.9822,-1.9544,-1.9363,-1.8607,-1.8392,-1.8283,-1.7918,-1.7429,-1.7013,-1.7013,-1.6731,-1.6387,-1.6057,-1.5994,-1.5819,-1.5286,-1.4723,-1.4223,-1.3877,-1.3167,-1.2756,-1.2925,-1.2685,-1.2437,-1.2276,-1.1975,-1.1567,-1.0984,-1.0945,-1.0726,-1.02,-0.9819,-0.9599,-0.9599,-0.9219,-0.8969,-0.8921,-0.8585,-0.8306,-0.8094,-0.7493,-0.7087,-0.6857,-0.6593,-0.6259,-2.5101,-2.5169,-2.4998,-2.6404,-2.6725,-2.6691,-2.664,-2.6099,-2.5575,-2.544,-2.4898,-2.4406,0.0,0.0,-2.4198,-2.5389,-2.5473,-2.5568,-2.6216,-2.6524,-2.6378,0.0,0.0,0.0,0.0,0.0,0.0,-2.4754,0.0,-2.4619,-2.4649,-2.3984,-2.3595,-2.3595,-2.3595,-2.3595,-2.3595,-2.3595,-2.3595,-2.3595,-2.3595,-2.3595,-2.3595,-2.3595,-2.3595,-2.3595,-2.3595,-2.3595,-2.355,-2.2987,-2.3071,-2.3492,-2.293,-2.3029,-2.3508,-2.3508,-2.3143,-2.2717,-2.3297,-2.3508,-2.3406,-2.283,-2.2626,-2.2475,-2.1852,-2.123,-2.0745,-2.0717,-1.9902,-1.9022,-1.8957,-1.8215,-1.7473,-1.7423,-1.6961,-1.6538,-1.65,-1.65,-1.65,-1.6457,-1.6423,-1.6261,-1.5736,-1.4359,-1.3314,-1.331,-1.2459,-1.1991,-1.2419,-1.2443,-1.2246,-1.1811,-1.1737,-1.1516,-1.1019,-1.0962,-1.0772,-1.0322,-0.9855,-0.9595,-0.9595,-0.9207,-0.8932,-0.8789,-0.8761,-0.8465,-0.7899,-0.787,-0.7551,-0.6979,-0.6456,-0.6179,-2.6268,-2.6691,-2.7046,-2.7435,-2.7114,-2.6556,-2.6015,-2.5744,-2.5119,-2.3479,-2.3427,-2.3156,0.0,0.0,0.0,-2.2785,-2.3946,0.0,-2.504,-2.6384,0.0,0.0,0.0,-2.6153,-2.5659,-2.6048,0.0,0.0,-2.5158,-2.4814,-2.5307,-2.4238,-2.3595,-2.3595,-2.3595,-2.3595,-2.3595,-2.3595,-2.3595,-2.3595,-2.3595,-2.3595,-2.3595,-2.3595,-2.3595,-2.3595,-2.3595,-2.3595,-2.3595,-2.343,-2.3186,-2.2905,-2.276,-2.2491,-2.2179,-2.2179,-2.2086,-2.1969,-2.2132,-2.2179,-2.2156,-2.1993,-2.1653,-2.1248,-2.1077,-2.0578,-1.9974,-1.9576,-1.953,-1.9419,-1.8607,-1.8488,-1.8405,-1.7576,-1.7285,-1.7049,-1.6588,-1.65,-1.638,-1.5908,-1.5466,-1.5118,-1.4979,-1.4285,-1.3644,-1.3279,-1.2684,-1.2177,-1.2002,-1.1634,-1.1338,-1.1226,-1.0897,-1.064,-1.0486,-1.0486,-1.0428,-1.0322,-0.9818,-0.9529,-0.9529,-0.9041,-0.8759,-0.8734,-0.8343,-0.8054,-0.7899,-0.7447,-0.7147,-0.6979,-0.6456,-0.5959,-2.7537,-2.801,-2.8247,-2.7891,-2.7249,-2.6505,-2.5778,-2.5101,-2.4188,-2.2617,-2.2378,0.0,0.0,0.0,0.0,0.0,0.0,0.0,-2.5228,-2.641,-2.7001,0.0,-2.6821,0.0,-2.6497,-2.6821,-2.7046,0.0,-2.5809,-2.5187,-2.5585,-2.4328,-2.3595,-2.3595,-2.3595,-2.3595,-2.3595,-2.3595,-2.3595,-2.3595,-2.3595,-2.3595,-2.3595,-2.3334,-2.3224,-2.3187,0.0,-2.2764,-2.2764,-2.2764,-2.2575,-2.2276,-2.2276,-2.2016,-2.1697,-2.1697,-2.152,-2.1293,-2.1293,-2.1124,-2.0915,-2.1221,-2.1064,-2.0759,-2.0446,-2.0105,-1.9748,-1.9447,-1.9572,-1.966,-1.9058,-1.8722,-1.8362,-1.775,-1.7183,-1.6681,-1.636,-1.6134,-1.5828,-1.53,-1.4926,-1.4698,-1.4698,-1.4071,-1.3455,-1.3194,-1.253,-1.1888,-1.1464,-1.1183,-1.0924,-1.0696,-1.0467,-1.0303,-1.0303,-1.0303,-1.0205,-0.9961,-0.9657,-0.9399,-0.9159,-0.8857,-0.8582,-0.8357,-0.8057,-0.7663,-0.7154,-0.6816,-0.6513,-0.6246,-0.5674,-0.5221,-2.8637,-2.8993,-2.884,-2.8128,-2.7249,-2.6353,-2.5625,-2.4306,-2.3004,-2.2161,0.0,0.0,-1.9812,0.0,-2.0318,-2.2004,0.0,-2.3441,-2.5928,-2.6462,-2.6866,-2.7525,-2.76,-2.76,-2.76,-2.76,-2.7555,-2.7465,-2.6303,-2.5615,-2.5615,-2.4328,-2.3595,-2.3595,-2.3508,-2.3486,-2.3486,-2.3384,-2.3363,-2.3363,-2.3363,-2.3363,-2.3341,-2.2894,-2.2686,-2.2664,-2.2146,0.0,-2.1821,-2.1821,-2.1732,-2.1592,-2.1592,-2.1544,-2.1435,-2.1435,-2.1124,-2.0671,-2.0671,-2.0295,-1.9901,-2.0472,-2.0671,-2.0547,-1.9978,-1.9798,-1.9798,-1.9798,-1.9798,-1.9773,-1.9669,-1.8835,-1.7974,-1.7788,-1.6903,-1.6092,-1.6025,-1.5576,-1.5076,-1.4738,-1.4535,-1.4456,-1.4456,-1.3684,-1.3036,-1.2996,-1.2232,-1.1516,-1.1055,-1.0984,-1.0806,-1.0341,-1.0303,-1.0283,-1.0205,-1.0196,-0.9961,-0.9419,-0.9319,-0.9079,-0.8614,-0.8513,-0.8247,-0.7787,-0.7787,-0.7259,-0.6206,-0.6206,-0.5894,-0.5281,-0.4674,-0.4408,-2.8925,-2.8993,-2.8976,-2.884,-2.7283,-2.5592,-2.4863,-2.3545,0.0,0.0,0.0,-1.9702,-1.807,0.0,0.0,-2.0452,0.0,0.0,0.0,0.0,-2.6866,0.0,0.0,0.0,0.0,0.0,0.0,0.0,0.0,-2.5615,-2.5615,-2.4328,-2.3595,-2.3595,-2.3135,-2.2867,-2.2867,-2.2308,-2.2025,-2.2025,-2.2025,-2.2025,-2.2053,-2.2442,-2.262,-2.2648,-2.2958,0.0,-2.2435,-2.2435,-2.1852,-2.0968,-2.0968,-2.0608,-2.0131,-2.0131,-2.0067,-1.9978,-1.9978,-1.9901,-1.9824,-1.9927,-1.9978,-1.9952,-1.9824,-1.9798,-1.9798,-1.9798,-1.9798,-1.9669,-1.9044,-1.8723,-1.8307,-1.7232,-1.6826,-1.6554,-1.6103,-1.5253,-1.4542,-1.4468,-1.3786,-1.32,-1.32,-1.3068,-1.2794,-1.2404,-1.2204,-1.1953,-1.1526,-1.1148,-1.0765,-1.0342,-1.0303,-1.0118,-0.9677,-0.9637,-0.9399,-0.8878,-0.8419,-0.8139,-0.8036,-0.7565,-0.7252,-0.7154,-0.7147,-0.6831,-0.6206,-0.6206,-0.5894,-0.5281,-0.4674,-0.4408,-2.9465,-2.9364,-2.913,-2.9039,-2.6918,-2.4761,-2.4296,0.0,0.0,0.0,0.0,0.0,-1.753,0.0,0.0,0.0,0.0,0.0,0.0,0.0,0.0,0.0,0.0,0.0,0.0,0.0,0.0,0.0,0.0,-2.5019,-2.509,-2.4148,-2.3465,-2.3143,-2.2852,-2.2521,-2.217,-2.1852,-2.1697,-2.1697,-2.1697,-2.1697,-2.1724,-2.1966,-2.2088,-2.2089,-2.2313,0.0,-2.2036,-2.2036,-2.1694,-2.1144,-2.1144,-2.0971,-2.0677,-2.0677,-2.0501,-2.0277,-2.0277,-2.0049,-1.9798,-1.9798,-1.9798,-1.9721,-1.9333,-1.9501,-1.9721,-1.9345,-1.9228,-1.915,-1.8794,-1.814,-1.7412,-1.6797,-1.6358,-1.5929,-1.5481,-1.4973,-1.4548,-1.428,-1.368,-1.3203,-1.3203,-1.3052,-1.2812,-1.2607,-1.2568,-1.2412,-1.1963,-1.142,-1.0898,-1.0496,-1.0459,-1.0197,-0.9551,-0.9371,-0.906,-0.8521,-0.8107,-0.7767,-0.7447,-0.7147,-0.7,-0.7,-0.6795,-0.6411,-0.5841,-0.5629,-0.5218,-0.4614,-0.4334,-0.4197,-2.9267,-2.9148,-2.8768,-2.8488,-2.6165,-2.3919,-2.3766,-2.1883,0.0,0.0,0.0,0.0,0.0,0.0,0.0,0.0,0.0,0.0,0.0,0.0,0.0,0.0,0.0,0.0,0.0,0.0,0.0,0.0,0.0,0.0,-2.4344,-2.3723,-2.3154,-2.2689,-2.2445,-2.2044,-2.152,-2.1363,-2.1304,-2.1304,-2.1304,-2.1372,-2.1496,-2.1548,-2.1641,-2.1758,-2.1817,0.0,0.0,-2.1656,-2.1594,-2.1493,-2.1493,-2.1493,-2.1493,-2.1493,-2.1122,-2.0586,-2.0474,-2.0032,-1.9466,-1.9344,-1.9527,-1.9669,-1.8927,-1.9097,-1.9423,-1.8661,-1.8463,-1.8421,-1.8274,-1.7357,-1.6464,-1.6293,-1.5806,-1.5322,-1.499,-1.4844,-1.4687,-1.4309,-1.3899,-1.3588,-1.35,-1.3132,-1.2772,-1.2676,-1.2544,-1.2323,-1.1936,-1.1444,-1.0939,-1.0478,-1.0388,-1.0089,-0.9382,-0.9136,-0.8786,-0.8245,-0.8012,-0.7695,-0.7214,-0.72,-0.7128,-0.6963,-0.6638,-0.6124,-0.5367,-0.505,-0.4586,-0.3994,-0.3994,-0.3994,-2.7286,-2.7354,-2.7188,-2.6685,-2.4861,-2.3199,-2.3187,0.0,0.0,0.0,0.0,-1.683,-1.6463,0.0,0.0,0.0,0.0,0.0,0.0,0.0,0.0,0.0,0.0,0.0,0.0,0.0,0.0,0.0,0.0,0.0,-2.3504,-2.2984,-2.2665,-2.2616,-2.1556,-2.0944,-2.0894,-2.0295,-1.9965,-1.9965,-1.9965,-2.027,-2.0803,-2.1291,-2.1766,-2.227,-2.2736,0.0,0.0,-2.2234,-2.1945,-2.1493,-2.1493,-2.1493,-2.1493,-2.1493,-2.0981,-2.0182,-1.9829,-1.9153,-1.8368,-1.7944,-1.8715,-1.9669,-1.8927,-1.8741,-1.8661,-1.7907,-1.7715,-1.755,-1.6877,-1.6595,-1.6322,-1.5661,-1.5439,-1.54,-1.5361,-1.5049,-1.4803,-1.4727,-1.4375,-1.3929,-1.3549,-1.2955,-1.2393,-1.1977,-1.1366,-1.0981,-1.0923,-1.0864,-1.0579,-0.9954,-0.9707,-0.9382,-0.8811,-0.8742,-0.8502,-0.7984,-0.791,-0.7873,-0.7826,-0.7826,-0.75,-0.683,-0.6782,-0.6176,-0.4955,-0.4923,-0.4586,-0.3994,-0.3994,-0.3994,-2.6431,-2.6531,-2.6474,-2.5844,-2.3954,-2.2133,-2.1652,0.0,0.0,-1.8008,-1.7176,-1.6448,-1.6328,0.0,0.0,0.0,0.0,0.0,0.0,0.0,0.0,0.0,0.0,0.0,0.0,0.0,0.0,0.0,0.0,0.0,-2.3212,-2.3124,-2.2744,-2.2011,-2.1531,-2.0924,-2.0207,-2.0294,-2.0352,-2.0352,-2.0665,-2.0941,-2.1207,-2.1732,-2.2108,-2.2347,-2.2869,0.0,0.0,-2.2782,-2.2644,-2.2443,-2.2443,-2.2443,-2.2385,-2.193,-2.1284,-2.0559,-1.9605,-1.8861,-1.8253,-1.8092,-1.8228,-1.8328,-1.7605,-1.7688,-1.7868,-1.7146,-1.695,-1.6866,-1.6567,-1.6179,-1.5748,-1.5468,-1.541,-1.541,-1.541,-1.5283,-1.5156,-1.5156,-1.4411,-1.3737,-1.358,-1.2706,-1.1888,-1.1558,-1.1273,-1.1043,-1.0821,-1.044,-1.009,-0.984,-0.9726,-0.9425,-0.8822,-0.8605,-0.8435,-0.8221,-0.7594,-0.723,-0.723,-0.6846,-0.6503,-0.6202,-0.5918,-0.5533,-0.5009,-0.4785,-0.428,-0.3587,-0.3587,-0.3345,-2.4723,-2.4896,-2.5005,-2.4378,-2.2825,-2.1212,0.0,0.0,-1.7869,-1.7241,-1.6611,-1.615,-1.615,-1.6305,-1.6697,0.0,0.0,0.0,0.0,0.0,0.0,0.0,0.0,0.0,0.0,0.0,0.0,0.0,0.0,0.0,-2.3108,-2.3221,-2.2843,-2.1835,-2.1653,-2.1157,-2.03,-2.0729,-2.0943,-2.0943,-2.1333,-2.1568,-2.1744,-2.2133,-2.2397,-2.2543,-2.2932,0.0,0.0,-2.3108,-2.3108,-2.3078,-2.2823,-2.2763,-2.2641,-2.1803,-2.109,-2.0357,-1.931,-1.8542,-1.7999,-1.786,-1.7513,-1.707,-1.6547,-1.6814,-1.7107,-1.6368,-1.6179,-1.6179,-1.6179,-1.5777,-1.541,-1.541,-1.5235,-1.505,-1.505,-1.4874,-1.4688,-1.4688,-1.3988,-1.3386,-1.3281,-1.2327,-1.1487,-1.1173,-1.0868,-1.0585,-1.0371,-0.9848,-0.9517,-0.9517,-0.9517,-0.9309,-0.8831,-0.8617,-0.8421,-0.8216,-0.7472,-0.6961,-0.6762,-0.6287,-0.5936,-0.5705,-0.5384,-0.5111,-0.4934,-0.4402,-0.3846,-0.3287,-0.3065,-0.2593,-2.1645,-2.1968,-2.2331,-2.1853,-2.1216,-2.0524,0.0,-1.8672,-1.7519,-1.6846,-1.6219,-1.5813,-1.5813,-1.5814,-1.6218,0.0,0.0,0.0,0.0,0.0,0.0,0.0,0.0,0.0,0.0,0.0,0.0,0.0,0.0,0.0,-2.3108,-2.3095,-2.2862,-2.2309,-2.1769,-2.1509,-2.1468,-2.1481,-2.1481,-2.1481,-2.1493,-2.1782,-2.2297,-2.2309,-2.2581,0.0,0.0,0.0,0.0,-2.3108,-2.3108,-2.3005,-2.223,-2.1908,-2.1815,-2.0942,-2.0074,-1.9258,-1.8753,-1.8082,-1.7328,-1.6865,-1.6447,-1.6115,-1.6115,-1.6304,-1.635,-1.5613,-1.541,-1.541,-1.541,-1.541,-1.541,-1.541,-1.4776,-1.4204,-1.4204,-1.3584,-1.3009,-1.3009,-1.3,-1.2893,-1.248,-1.1811,-1.1159,-1.0781,-0.9862,-0.9211,-0.9204,-0.8985,-0.8804,-0.8804,-0.8804,-0.8811,-0.8804,-0.8804,-0.8474,-0.7744,-0.7691,-0.7364,-0.6632,-0.6605,-0.6249,-0.5506,-0.5511,-0.5164,-0.4515,-0.3705,-0.3314,-0.3287,-0.2565,-0.1813,-2.0741,-2.1219,-2.144,-2.0014,-1.9824,-1.96,-1.8012,-1.7684,-1.74,-1.6308,-1.5919,-1.5799,-1.5799,-1.5799,-1.6218,-1.7489,0.0,0.0,0.0,0.0,0.0,0.0,0.0,0.0,0.0,0.0,0.0,0.0,0.0,0.0,-2.3108,-2.3108,-2.2844,-2.2334,-2.2146,-2.187,-2.1493,-2.1857,-2.2046,-2.2058,-2.2406,-2.2681,-2.2844,-2.2844,-2.2632,0.0,0.0,0.0,0.0,-2.1385,-2.1385,-2.1353,-2.1101,-2.1005,-2.091,-2.0042,-1.9529,-1.9137,-1.8124,-1.7592,-1.7396,-1.7227,-1.6885,-1.6572,-1.6875,-1.6424,-1.569,-1.5468,-1.541,-1.5255,-1.4717,-1.4569,-1.4451,-1.3876,-1.3584,-1.3364,-1.3364,-1.3191,-1.3009,-1.3009,-1.2543,-1.2143,-1.2004,-1.1354,-1.0701,-1.0336,-1.0012,-0.9664,-0.9264,-0.9131,-0.8998,-0.8831,-0.8348,-0.8049,-0.8049,-0.8049,-0.7723,-0.6993,-0.647,-0.6086,-0.5869,-0.5414,-0.5062,-0.4814,-0.4814,-0.4453,-0.368,-0.3428,-0.2788,-0.1786,-0.1034,-0.0567,0.0,-1.9493,-1.9796,-1.8622,-1.8642,-1.8553,-1.704,-1.7025,-1.7041,-1.6009,-1.5799,-1.5799,-1.5799,-1.5653,-1.5876,-1.6923,0.0,0.0,0.0,0.0,0.0,0.0,0.0,0.0,0.0,0.0,0.0,0.0,0.0,0.0,-2.3108,-2.3108,-2.2945,-2.2606,-2.2594,-2.2431,-2.2121,-2.2418,-2.2594,-2.2594,-2.2945,-2.3108,-2.3078,-2.2793,-2.2384,0.0,0.0,0.0,0.0,-2.059,-2.059,-2.0558,-2.0236,-2.0107,-2.0009,-1.9144,-1.8821,-1.868,-1.7895,-1.7627,-1.7627,-1.7627,-1.7334,-1.6928,-1.6691,-1.6261,-1.581,-1.5508,-1.5321,-1.5072,-1.4369,-1.3965,-1.3606,-1.313,-1.2765,-1.2543,-1.2543,-1.2305,-1.2097,-1.2097,-1.1686,-1.1351,-1.1351,-1.0926,-1.0526,-1.0314,-1.0187,-0.9957,-0.959,-0.9444,-0.918,-0.864,-0.8175,-0.7606,-0.6934,-0.7122,-0.6966,-0.6226,-0.576,-0.5378,-0.5136,-0.4732,-0.4491,-0.4491,-0.4208,-0.379,-0.3287,-0.2732,-0.1853,-0.0684,-0.02,0.0,0.0,-1.7115,-1.7624,-1.7579,-1.7609,-1.7443,-1.6801,-1.6666,0.0,-1.5919,-1.577,-1.577,-1.5815,-1.5417,-1.5345,-1.6067,0.0,0.0,0.0,0.0,0.0,0.0,0.0,0.0,0.0,0.0,0.0,0.0,0.0,0.0,-2.3108,-2.3108,-2.3078,-2.3005,-2.3005,-2.3005,-2.3005,-2.3005,-2.2975,-2.2914,-2.2914,-2.2914,-2.2884,-2.2156,-2.1784,0.0,0.0,0.0,0.0,-2.043,-2.043,-2.0333,-1.9529,-1.9199,-1.911,-1.8303,-1.8008,-1.8008,-1.8008,-1.8008,-1.8008,-1.8008,-1.7711,-1.7095,-1.5752,-1.5914,-1.6427,-1.5554,-1.5051,-1.4723,-1.4198,-1.3498,-1.2911,-1.2864,-1.2266,-1.171,-1.171,-1.1139,-1.0593,-1.0593,-1.0593,-1.0593,-1.0593,-1.0593,-1.0593,-1.0593,-1.029,-1.0019,-1.0023,-0.9732,-0.9189,-0.822,-0.8084,-0.7359,-0.568,-0.6136,-0.6199,-0.5487,-0.5433,-0.514,-0.4532,-0.4505,-0.4484,-0.4438,-0.3591,-0.3144,-0.3144,-0.1714,-0.0659,0.0,0.0,0.003,-1.6009,0.0,-1.6816,-1.6368,-1.6592,-1.6771,0.0,-1.6368,0.0,0.0,0.0,0.0,0.0,0.0,0.0,0.0,0.0,0.0,0.0,0.0,0.0,0.0,0.0,0.0,0.0,0.0,0.0,0.0,0.0,-2.3108,-2.3108,-2.3108,-2.2823,-2.2187,-2.2199,-2.2199,-2.2199,-2.2199,-2.1846,-2.1195,-2.1195,-2.1195,-2.1195,-2.1005,-2.0526,0.0,0.0,0.0,-1.863,-1.863,-1.863,-1.8596,-1.8395,-1.8303,-1.8269,-1.8076,-1.8008,-1.8008,-1.8008,-1.8008,-1.8008,-1.8008,-1.7434,-1.6676,-1.5954,-1.5695,-1.5455,-1.4521,-1.4184,-1.3908,-1.2925,-1.2521,-1.2174,-1.1353,-1.1021,-1.0863,-1.0863,-1.0744,-1.0593,-1.0593,-1.0593,-1.0593,-1.0593,-1.0593,-1.0593,-1.0593,-0.9952,-0.9386,-0.9138,-0.8474,-0.7861,-0.7391,-0.6841,-0.6354,-0.5923,-0.5795,-0.5464,-0.4787,-0.4732,-0.4706,-0.4658,-0.4665,-0.4397,-0.3814,-0.2374,-0.1624,-0.1624,-0.0693,-0.0182,0.0,0.0,0.0372,-1.5741,-1.6248,-1.6622,-1.6278,-1.6321,-1.6391,-1.6249,0.0,0.0,0.0,0.0,0.0,0.0,0.0,0.0,0.0,0.0,0.0,0.0,0.0,0.0,0.0,0.0,0.0,0.0,0.0,0.0,0.0,0.0,-2.2944,-2.2567,-2.2537,-2.2156,-2.1333,-2.1302,-2.1302,-2.1302,-2.1302,-2.108,-2.059,-2.059,-2.059,-2.059,-2.0171,-1.9759,0.0,0.0,0.0,-1.8008,-1.8008,-1.8008,-1.8008,-1.8008,-1.8008,-1.8008,-1.8008,-1.8008,-1.8008,-1.8008,-1.7716,-1.7364,-1.7364,-1.6715,-1.5826,-1.5124,-1.4726,-1.4469,-1.4015,-1.378,-1.345,-1.2645,-1.2134,-1.1659,-1.0951,-1.0787,-1.0754,-1.062,-1.0593,-1.0593,-1.0593,-1.0269,-1.0009,-1.0009,-0.9684,-0.9422,-0.9422,-0.9,-0.8628,-0.8454,-0.8033,-0.7479,-0.6835,-0.6419,-0.5992,-0.5521,-0.5317,-0.5067,-0.4702,-0.467,-0.4707,-0.4792,-0.4403,-0.3653,-0.2487,-0.1568,-0.0924,-0.0586,-0.0185,0.0,0.0,0.0,0.048,-1.5448,-1.6054,-1.6512,-1.647,-1.6219,-1.6056,0.0,0.0,0.0,0.0,0.0,0.0,0.0,0.0,0.0,0.0,0.0,0.0,0.0,0.0,0.0,0.0,0.0,0.0,0.0,0.0,0.0,0.0,0.0,-2.2567,-2.1753,-2.169,-2.1302,-2.043,-2.0398,-2.0333,-2.0204,-2.0333,-2.0333,-2.0204,-2.0204,-2.0204,-2.0171,-1.9431,-1.911,-1.9044,0.0,0.0,-1.8008,-1.8008,-1.8008,-1.8008,-1.8008,-1.8008,-1.8008,-1.8008,-1.8008,-1.7974,-1.7828,-1.7182,-1.6393,-1.6393,-1.5755,-1.4807,-1.3954,-1.36,-1.3518,-1.3614,-1.342,-1.305,-1.2665,-1.2039,-1.141,-1.1076,-1.0995,-1.0915,-1.0653,-1.0593,-1.0561,-1.0428,-0.9817,-0.9274,-0.9139,-0.8484,-0.7994,-0.7994,-0.7897,-0.78,-0.78,-0.7702,-0.7247,-0.6351,-0.624,-0.59,-0.5058,-0.4986,-0.4924,-0.4766,-0.485,-0.4836,-0.4734,-0.3789,-0.2585,-0.1154,-0.0999,-0.0625,0.0,0.0,0.0,0.0,0.013,0.0657,-1.4411,-1.5186,-1.5635,-1.5392,-1.5382,-1.5311,0.0,0.0,0.0,0.0,0.0,0.0,0.0,0.0,0.0,0.0,0.0,0.0,0.0,0.0,0.0,0.0,0.0,0.0,0.0,0.0,0.0,0.0,0.0,-2.1721,-2.0846,-2.0814,-2.0398,-1.9529,-1.9497,-1.9144,-1.8395,-1.9144,-1.9144,-1.8395,-1.8395,-1.8395,-1.8395,-1.8269,-1.8202,-1.8202,0.0,-1.8008,-1.8008,-1.8008,-1.8008,-1.8008,-1.8008,-1.8008,-1.8008,-1.8008,-1.8008,-1.7906,-1.7104,-1.6184,-1.5403,-1.5403,-1.4736,-1.389,-1.3745,-1.3135,-1.2535,-1.2549,-1.2483,-1.2383,-1.209,-1.191,-1.1663,-1.1122,-1.0995,-1.0915,-1.0653,-1.0593,-1.0364,-0.9658,-0.9402,-0.9075,-0.8318,-0.8091,-0.7994,-0.7994,-0.7372,-0.6915,-0.6915,-0.6272,-0.5745,-0.5555,-0.5555,-0.5482,-0.5327,-0.5327,-0.4993,-0.4197,-0.4612,-0.463,-0.4006,-0.2479,-0.1521,-0.1258,-0.0531,-0.01,0.0,0.0,0.0,0.0033,0.0767,0.1602,-1.3852,-1.4157,-1.4282,-1.4426,-1.5203,-1.5951,0.0,0.0,0.0,0.0,0.0,0.0,0.0,0.0,0.0,0.0,0.0,0.0,0.0,0.0,0.0,0.0,0.0,0.0,0.0,0.0,0.0,0.0,0.0,0.0,-1.9944,-1.989,-1.9497,-1.863,-1.8596,-1.8395,-1.8008,-1.8395,-1.8405,-1.8008,-1.8008,-1.7891,-1.7676,-1.791,-1.7881,-1.7676,0.0,-1.7676,-1.7676,-1.7676,-1.7346,-1.6899,-1.7123,-1.6932,-1.6481,-1.6481,-1.6481,-1.6446,-1.6009,-1.5199,-1.4386,-1.4386,-1.3738,-1.2952,-1.2952,-1.2622,-1.2305,-1.2305,-1.2305,-1.2271,-1.2138,-1.2104,-1.1997,-1.1605,-1.1504,-1.1246,-1.0409,-1.0207,-0.9931,-0.8904,-0.8309,-0.7839,-0.7391,-0.692,-0.6601,-0.6601,-0.6239,-0.6009,-0.6009,-0.5653,-0.5395,-0.5395,-0.5395,-0.5193,-0.4686,-0.4652,-0.4453,-0.4015,-0.3821,-0.3335,-0.2492,-0.1695,-0.1073,-0.0605,-0.0202,0.0,0.0,0.0,0.0236,0.0706,0.1106,0.2041,-1.3238,-1.3213,-1.3162,0.0,0.0,0.0,0.0,0.0,0.0,0.0,0.0,0.0,0.0,0.0,0.0,0.0,0.0,0.0,0.0,0.0,0.0,0.0,0.0,0.0,0.0,0.0,0.0,0.0,0.0,0.0,-1.9044,-1.9011,-1.8687,-1.8008,-1.8008,-1.7959,-1.7861,-1.7861,-1.7861,-1.7861,-1.7861,-1.7646,-1.7246,-1.7568,-1.7539,-1.7227,-1.7227,-1.7129,-1.6956,-1.7019,-1.6466,-1.5671,-1.6094,-1.5825,-1.5199,-1.5199,-1.5057,-1.4843,-1.4843,-1.4207,-1.3382,-1.3382,-1.2879,-1.2305,-1.2305,-1.2305,-1.2305,-1.2305,-1.2305,-1.2305,-1.2305,-1.2305,-1.2151,-1.168,-1.1537,-1.1169,-0.9828,-0.9557,-0.9229,-0.8167,-0.7418,-0.6843,-0.6493,-0.5903,-0.5474,-0.5405,-0.5453,-0.5487,-0.5453,-0.5477,-0.5484,-0.545,-0.5245,-0.4721,-0.3785,-0.348,-0.338,-0.338,-0.2744,-0.2043,-0.134,-0.1106,-0.0672,0.0,0.0,0.0101,0.0303,0.0303,0.0773,0.1641,0.1842,0.2678,-1.2206,-1.249,-1.2718,-1.3806,0.0,0.0,0.0,0.0,0.0,0.0,0.0,0.0,0.0,0.0,0.0,0.0,0.0,0.0,0.0,0.0,0.0,0.0,0.0,0.0,0.0,0.0,0.0,0.0,0.0,0.0,-1.8134,-1.8076,-1.8076,-1.8008,-1.8008,-1.7822,-1.7432,-1.7432,-1.7432,-1.7432,-1.7432,-1.7197,-1.6746,-1.6775,-1.6775,-1.6746,-1.6746,-1.6344,-1.5661,-1.5918,-1.5526,-1.4822,-1.5163,-1.5269,-1.5199,-1.5199,-1.4593,-1.3818,-1.3818,-1.3208,-1.2409,-1.2409,-1.2378,-1.2305,-1.2305,-1.2305,-1.2305,-1.2305,-1.2305,-1.2305,-1.2305,-1.2305,-1.2004,-1.0791,-1.0515,-1.0152,-0.8805,-0.8509,-0.8258,-0.7341,-0.7132,-0.6792,-0.5835,-0.5716,-0.5677,-0.5436,-0.5627,-0.5722,-0.5589,-0.5688,-0.5718,-0.5589,-0.4804,-0.389,-0.2885,-0.2009,-0.1507,-0.1507,-0.1441,-0.1374,-0.1307,-0.0538,-0.0067,0.0,0.0,0.0404,0.1207,0.1207,0.1675,0.2611,0.3445,0.3882,-1.1789,-1.1873,-1.2036,0.0,0.0,0.0,0.0,0.0,0.0,0.0,0.0,0.0,0.0,0.0,0.0,0.0,0.0,0.0,0.0,0.0,0.0,0.0,0.0,0.0,0.0,0.0,0.0,0.0,0.0,0.0,-1.8008,-1.7764,-1.7627,-1.7627,-1.7353,-1.7106,-1.6982,-1.695,-1.6836,-1.6594,-1.6846,-1.6748,-1.6328,-1.6602,-1.6551,-1.6287,-1.5804,-1.5495,-1.533,-1.495,-1.4353,-1.3666,-1.3467,-1.3411,-1.3411,-1.3411,-1.3164,-1.2842,-1.2842,-1.2592,-1.2305,-1.2305,-1.2305,-1.2187,-1.1545,-1.1354,-1.1242,-1.0608,-1.0421,-1.0571,-1.1205,-1.1354,-1.11,-0.9968,-0.9723,-0.9405,-0.8282,-0.8046,-0.7714,-0.6618,-0.6416,-0.6255,-0.5816,-0.5691,-0.5661,-0.5637,-0.5654,-0.5681,-0.5718,-0.5191,-0.4778,-0.4726,-0.3331,-0.2235,-0.1877,-0.1007,-0.0504,-0.0504,-0.0504,-0.0504,-0.0504,-0.0168,0.0,0.0,0.0538,0.0973,0.1307,0.1876,0.2644,0.3513,0.3846,0.4317,-1.14,-1.1323,-1.145,0.0,0.0,0.0,0.0,0.0,0.0,0.0,0.0,0.0,0.0,0.0,0.0,0.0,0.0,0.0,0.0,0.0,0.0,0.0,0.0,0.0,0.0,0.0,0.0,0.0,0.0,0.0,0.0,-1.7334,-1.7178,-1.7178,-1.6853,-1.6638,-1.6523,-1.6523,-1.6299,-1.5889,-1.6172,-1.6162,-1.5869,-1.5886,-1.5766,-1.5449,-1.465,-1.4266,-1.416,-1.3794,-1.3328,-1.2806,-1.2444,-1.2305,-1.2305,-1.2305,-1.2305,-1.2305,-1.2305,-1.2305,-1.2261,-1.1922,-1.1848,-1.1657,-1.064,-1.034,-1.019,-0.9485,-0.9296,-0.9372,-0.9777,-1.0072,-1.0078,-0.9069,-0.8846,-0.8542,-0.7557,-0.7326,-0.7099,-0.6273,-0.6101,-0.6054,-0.5898,-0.5833,-0.5692,-0.5333,-0.529,-0.5198,-0.4913,-0.4289,-0.3743,-0.3405,-0.2122,-0.1173,-0.0906,-0.0337,0.0,0.0,0.0,0.0,0.0,0.0,0.0135,0.0404,0.1006,0.1574,0.2143,0.2811,0.358,0.4453,0.4453,0.4788,-1.0963,-1.0846,0.0,0.0,0.0,0.0,0.0,0.0,0.0,0.0,0.0,0.0,0.0,0.0,0.0,0.0,0.0,0.0,0.0,0.0,0.0,0.0,0.0,0.0,0.0,0.0,0.0,0.0,0.0,0.0,0.0,-1.6697,-1.6697,-1.6697,-1.6687,-1.6514,-1.6095,-1.6085,-1.587,-1.5381,-1.5381,-1.5381,-1.5352,-1.4569,-1.4213,-1.4145,-1.3342,-1.2543,-1.1855,-1.2439,-1.2543,-1.2298,-1.2305,-1.2305,-1.2305,-1.2305,-1.2305,-1.2305,-1.2298,-1.2298,-1.2114,-1.1124,-1.0783,-1.0602,-0.9593,-0.9296,-0.9296,-0.9258,-0.9258,-0.9031,-0.8046,-0.8542,-0.9031,-0.8008,-0.7783,-0.7518,-0.6528,-0.63,-0.63,-0.63,-0.63,-0.6252,-0.602,-0.6159,-0.5809,-0.4429,-0.447,-0.426,-0.3027,-0.3001,-0.2682,-0.168,-0.1421,-0.094,-0.0067,0.0,0.0,0.0,0.0,0.0,0.0,0.0,0.0437,0.1307,0.1307,0.2209,0.4015,0.4015,0.4483,0.5395,0.5395,0.5395,-1.1415,0.0,0.0,0.0,0.0,0.0,0.0,0.0,0.0,0.0,0.0,0.0,0.0,0.0,0.0,0.0,0.0,0.0,0.0,0.0,0.0,0.0,0.0,0.0,0.0,0.0,0.0,0.0,0.0,0.0,0.0,-1.6436,-1.629,-1.629,-1.5967,-1.5742,-1.5605,-1.5605,-1.5233,-1.4569,-1.4569,-1.4569,-1.454,-1.4302,-1.3876,-1.3304,-1.2512,-1.2118,-1.2097,-1.2134,-1.2092,-1.2053,-1.2225,-1.2305,-1.2305,-1.2305,-1.2305,-1.2187,-1.1502,-1.1236,-1.1087,-1.0083,-0.9744,-0.9556,-0.8537,-0.8237,-0.8084,-0.7403,-0.7173,-0.7138,-0.6834,-0.6984,-0.7099,-0.6834,-0.6756,-0.6679,-0.6377,-0.63,-0.63,-0.63,-0.63,-0.6286,-0.6238,-0.5559,-0.4914,-0.4586,-0.3931,-0.308,-0.2115,-0.2019,-0.1652,-0.057,-0.0413,-0.0269,-0.0034,0.0,0.0,0.0,0.0572,0.0906,0.0906,0.0906,0.1341,0.2277,0.2878,0.348,0.4015,0.4652,0.5123,0.5395,0.5395,0.5395,-1.1092,0.0,0.0,0.0,0.0,0.0,0.0,0.0,0.0,0.0,0.0,0.0,0.0,0.0,0.0,0.0,0.0,0.0,0.0,0.0,0.0,0.0,0.0,0.0,0.0,0.0,0.0,0.0,0.0,0.0,0.0,-1.517,-1.4878,-1.4878,-1.4579,-1.4451,-1.4451,-1.4451,-1.4213,-1.3726,-1.3726,-1.3575,-1.3265,-1.3265,-1.2992,-1.2481,-1.1686,-1.1492,-1.1717,-1.1608,-1.1692,-1.1926,-1.2094,-1.2204,-1.2305,-1.2305,-1.204,-1.162,-1.1013,-1.0527,-1.004,-0.9031,-0.8694,-0.8504,-0.7518,-0.7215,-0.7061,-0.649,-0.63,-0.63,-0.63,-0.63,-0.63,-0.63,-0.63,-0.63,-0.63,-0.63,-0.63,-0.63,-0.5944,-0.567,-0.567,-0.4706,-0.3838,-0.3509,-0.2473,-0.1566,-0.1021,-0.0961,-0.0721,-0.007,0.0,0.0,0.0,0.0303,0.0504,0.0504,0.1374,0.2009,0.2342,0.2043,0.2277,0.3211,0.3747,0.4184,0.4553,0.5123,0.5395,0.5395,0.5395,0.5591,0.0,0.0,0.0,0.0,0.0,0.0,0.0,0.0,0.0,0.0,0.0,0.0,0.0,0.0,0.0,0.0,0.0,0.0,0.0,0.0,0.0,0.0,0.0,0.0,0.0,0.0,0.0,0.0,0.0,0.0,0.0,-1.3394,-1.3009,-1.3009,-1.3009,-1.3009,-1.3009,-1.3009,-1.2948,-1.2887,-1.2887,-1.2481,-1.1679,-1.1772,-1.1772,-1.1648,-1.0926,-1.074,-1.0955,-1.0982,-1.1323,-1.1866,-1.1893,-1.2008,-1.215,-1.215,-1.1545,-1.0634,-1.0559,-0.9927,-0.8993,-0.7974,-0.7668,-0.748,-0.6567,-0.63,-0.63,-0.63,-0.63,-0.63,-0.63,-0.63,-0.63,-0.63,-0.63,-0.63,-0.63,-0.6219,-0.6141,-0.6141,-0.5276,-0.4569,-0.4569,-0.3671,-0.2618,-0.1606,-0.0627,0.0,0.0,0.0,0.0,0.0,0.0068,0.0135,0.0135,0.0906,0.1441,0.1441,0.231,0.3178,0.3982,0.3245,0.3245,0.4115,0.4115,0.4553,0.5395,0.5395,0.5428,0.5524,0.5524,0.5984,0.0,0.0,0.0,0.0,0.0,0.0,0.0,0.0,0.0,0.0,0.0,0.0,0.0,0.0,0.0,0.0,0.0,0.0,0.0,0.0,0.0,0.0,0.0,0.0,0.0,0.0,0.0,0.0,0.0,0.0,-1.3252,-1.31,-1.3009,-1.3009,-1.3009,-1.3009,-1.3009,-1.3009,-1.2665,0.0,-1.205,-1.1624,-1.0863,-1.15,-1.1469,-1.0839,-1.0681,-1.0626,-1.0707,-1.0902,-1.1202,-1.1543,-1.1812,-1.1561,-1.1124,-1.1124,-1.049,-0.9518,-0.8723,-0.8309,-0.7974,-0.6949,-0.6641,-0.6567,-0.6377,-0.63,-0.63,-0.63,-0.63,-0.63,-0.63,-0.63,-0.63,-0.63,-0.63,-0.63,-0.63,-0.5628,-0.504,-0.504,-0.4178,-0.3435,-0.3435,-0.2581,-0.1567,-0.051,-0.0155,0.0,0.0,0.0,0.0,0.0,0.0607,0.1006,0.1006,0.1876,0.241,0.241,0.3245,0.3816,0.3982,0.3813,0.4151,0.509,0.509,0.5193,0.5395,0.5395,0.5752,0.6429,0.6429,0.6999,0.0,0.0,0.0,0.0,0.0,0.0,0.0,0.0,0.0,0.0,0.0,0.0,0.0,0.0,0.0,0.0,0.0,0.0,0.0,0.0,0.0,0.0,0.0,0.0,0.0,0.0,0.0,0.0,0.0,-1.242,-1.242,-1.2058,-1.1849,-1.1849,-1.1849,-1.1849,-1.1849,-1.1849,-1.1632,-1.1226,-1.1226,-1.1021,-1.0624,-1.1045,-1.0982,-1.0593,-1.0593,-1.0593,-1.06,-1.0754,-1.0764,-1.0701,-1.088,-1.0605,-1.0078,-1.0078,-0.9442,-0.8504,-0.7974,-0.748,-0.6984,-0.6451,-0.63,-0.63,-0.63,-0.63,-0.63,-0.63,-0.63,-0.63,-0.63,-0.5931,-0.5549,-0.5535,-0.555,-0.555,-0.555,-0.4686,-0.3943,-0.3943,-0.3086,-0.2386,-0.2386,-0.1528,-0.0625,-0.0077,0.0,0.0,0.0,0.0353,0.0624,0.0607,0.1441,0.1976,0.1976,0.2811,0.3366,0.3411,0.4269,0.481,0.4867,0.487,0.5021,0.5399,0.5395,0.5395,0.5395,0.5815,0.6312,0.6894,0.7318,0.8129,0.0,0.0,0.0,0.0,0.0,0.0,0.0,0.0,0.0,0.0,0.0,0.0,0.0,0.0,0.0,0.0,0.0,0.0,0.0,0.0,0.0,0.0,0.0,0.0,0.0,0.0,0.0,0.0,0.0,-1.1586,-1.1586,-1.0958,-1.0593,-1.0593,-1.0593,-1.0593,-1.0593,-1.0593,-1.0593,-1.0593,-1.0593,-1.0593,-1.0593,-1.0593,-1.0593,-1.0593,-1.0593,-1.0498,-1.0364,-1.0364,-1.0095,-0.9667,-0.9667,-0.9403,-0.9031,-0.9031,-0.8389,-0.7557,-0.7557,-0.6984,-0.63,-0.63,-0.63,-0.63,-0.63,-0.63,-0.63,-0.63,-0.618,-0.6018,-0.6031,-0.5243,-0.4425,-0.4421,-0.4282,-0.4214,-0.4404,-0.3593,-0.2851,-0.2851,-0.2034,-0.1333,-0.1333,-0.0588,0.0,0.0,0.0,0.0075,0.025,0.0919,0.1392,0.1557,0.2438,0.2982,0.2967,0.3789,0.4353,0.4453,0.5202,0.5681,0.5796,0.58,0.5688,0.5477,0.5638,0.5736,0.5736,0.6622,0.7268,0.7644,0.8351,0.9291,0.0,0.0,0.0,0.0,0.0,0.0,0.0,0.0,0.0,0.0,0.0,0.0,0.0,0.0,0.0,0.0,0.0,0.0,0.0,0.0,0.0,0.0,0.0,0.0,0.0,0.0,0.0,0.0,-1.0839,-1.0776,-1.0776,-1.0649,-1.0593,-1.0593,-1.0593,-1.0593,-1.0593,-1.0593,-1.0593,-1.0593,-1.0593,-1.0593,-1.0593,-1.0593,-1.0593,-1.0593,-1.0593,-1.0174,-0.9466,-0.9466,-0.9203,-0.8764,-0.8764,-0.8466,-0.8012,-0.8012,-0.7365,-0.649,-0.649,-0.6412,-0.63,-0.63,-0.63,-0.63,-0.63,-0.63,-0.63,-0.63,-0.5628,-0.4897,-0.4909,-0.4117,-0.3304,-0.3316,-0.2642,-0.2265,-0.3135,-0.2501,-0.1802,-0.1802,-0.0941,-0.0196,-0.0196,-0.0079,0.0,0.0,0.0,0.034,0.1273,0.1504,0.186,0.2611,0.3644,0.4194,0.3998,0.4959,0.5571,0.5591,0.5701,0.5783,0.58,0.58,0.5783,0.5742,0.6616,0.7035,0.7035,0.8041,0.893,0.9702,0.9806,1.0504,0.0,0.0,0.0,0.0,0.0,0.0,0.0,0.0,0.0,0.0,0.0,0.0,0.0,0.0,0.0,0.0,0.0,0.0,0.0,0.0,0.0,0.0,0.0,0.0,0.0,0.0,0.0,0.0,-1.0593,-1.0593,-1.0593,-1.0593,-1.0593,-1.0593,-1.0593,-1.0593,-1.0593,-1.0593,-1.0593,-1.0593,-1.0593,-1.0333,-0.9881,-0.9881,-0.9881,-0.9881,-0.9881,-0.9364,-0.8581,-0.8581,-0.8263,-0.7748,-0.7748,-0.7449,-0.6945,-0.6945,-0.6679,-0.63,-0.63,-0.63,-0.63,-0.63,-0.63,-0.6183,-0.5589,-0.5395,-0.5276,-0.4686,-0.4178,-0.3818,-0.3814,-0.3047,-0.2266,-0.2274,-0.1464,-0.0826,-0.1282,-0.0997,-0.0718,-0.069,-0.0311,0.0,0.0,0.0,0.0,0.0,0.0495,0.1053,0.1556,0.2558,0.3357,0.3746,0.4643,0.5194,0.5104,0.5548,0.5837,0.5925,0.5928,0.5969,0.6095,0.6098,0.6353,0.6906,0.6607,0.6754,0.7314,0.8232,0.9254,1.0396,1.0891,1.1469,0.0,0.0,0.0,0.0,0.0,0.0,0.0,0.0,0.0,0.0,0.0,0.0,0.0,0.0,0.0,0.0,0.0,0.0,0.0,0.0,0.0,0.0,0.0,0.0,0.0,0.0,0.0,0.0,-1.0593,-1.0593,-1.0593,-1.0593,-1.0593,-1.0593,-1.0593,-1.0593,-1.0593,-1.0364,-1.0269,-1.0269,-1.004,-0.9588,-0.8979,-0.8979,-0.8844,-0.8646,-0.8877,-0.8484,-0.7665,-0.7665,-0.7317,-0.6762,-0.6762,-0.6578,-0.63,-0.63,-0.63,-0.63,-0.63,-0.6141,-0.5906,-0.5906,-0.5709,-0.5354,-0.453,-0.4278,-0.4108,-0.3313,-0.2916,-0.271,-0.271,-0.195,-0.1175,-0.1189,-0.057,0.0,0.0,0.0,0.0,0.0,0.0,0.0,0.0,0.0236,0.039,0.0421,0.1296,0.2081,0.2338,0.3659,0.4643,0.4871,0.5523,0.5901,0.5864,0.5895,0.5966,0.6081,0.6088,0.6139,0.6293,0.6528,0.7022,0.7783,0.7064,0.7174,0.8207,0.9107,1.0033,1.1069,1.169,1.2098,0.0,0.0,0.0,0.0,0.0,0.0,0.0,0.0,0.0,0.0,0.0,0.0,0.0,0.0,0.0,0.0,0.0,0.0,0.0,0.0,0.0,0.0,0.0,0.0,0.0,0.0,0.0,0.0,-1.0593,-1.0593,-1.0593,-1.0593,-1.0593,-1.0593,-1.0593,-1.0593,-1.0593,-0.9786,-0.937,-0.937,-0.8517,-0.8124,-0.8059,-0.8059,-0.76,-0.6883,-0.7697,-0.7567,-0.6785,-0.6785,-0.6403,-0.5871,-0.5871,-0.6027,-0.63,-0.63,-0.63,-0.63,-0.63,-0.5628,-0.4766,-0.4766,-0.41,-0.324,-0.3202,-0.3193,-0.319,-0.3105,-0.2422,-0.1665,-0.1665,-0.087,-0.0075,-0.0074,-0.0037,0.0,0.0,0.0,0.0,0.0,0.0,0.0,0.0,0.0863,0.1528,0.1526,0.238,0.3389,0.4397,0.4629,0.5013,0.5844,0.6149,0.6214,0.5993,0.6152,0.6279,0.6286,0.6286,0.6289,0.63,0.7215,0.7744,0.7783,0.867,0.9632,1.063,1.1612,1.2148,1.2204,1.2278,1.2285,0.0,0.0,0.0,0.0,0.0,0.0,0.0,0.0,0.0,0.0,0.0,0.0,0.0,0.0,0.0,0.0,0.0,0.0,0.0,0.0,0.0,0.0,0.0,0.0,0.0,0.0,0.0,0.0,0.0,-1.0593,-1.0593,-1.0593,-1.0593,-1.0593,-1.0047,-0.9492,-0.8935,-0.8613,-0.8452,-0.8452,-0.8156,-0.7697,-0.7177,-0.7177,-0.6691,-0.5881,-0.6207,-0.6145,-0.5881,-0.5881,-0.5782,-0.5674,-0.5766,-0.5928,-0.6125,-0.6262,-0.63,-0.6222,-0.5512,-0.504,-0.4569,-0.3904,-0.3396,-0.2968,-0.2347,-0.2141,-0.1975,-0.1289,-0.0857,-0.0581,-0.0581,-0.0271,0.0,0.0,0.0,0.0,0.0,0.0,0.0,0.0,0.0,0.0236,0.0902,0.1333,0.1851,0.2594,0.351,0.4281,0.4748,0.5367,0.5848,0.6145,0.6265,0.6276,0.6183,0.6269,0.63,0.63,0.6911,0.7249,0.7249,0.8237,0.9064,0.9701,1.0078,1.0453,1.0783,1.1162,1.1657,1.2305,1.2305,1.2305,0.0,0.0,0.0,0.0,0.0,0.0,0.0,0.0,0.0,0.0,0.0,0.0,0.0,0.0,0.0,0.0,0.0,0.0,0.0,0.0,0.0,0.0,0.0,0.0,0.0,0.0,0.0,0.0,0.0,0.0,-1.0174,-0.9875,-0.9709,-0.9709,-0.9166,-0.8581,-0.7994,-0.7702,-0.7567,-0.7567,-0.7279,-0.6822,-0.6268,-0.6268,-0.5943,-0.5395,-0.5395,-0.5395,-0.5395,-0.5395,-0.5515,-0.5671,-0.5766,-0.5925,-0.6081,-0.5829,-0.5747,-0.5628,-0.453,-0.3945,-0.3556,-0.2813,-0.2345,-0.1917,-0.1254,-0.1053,-0.0932,-0.0196,0.0,0.0,0.0,0.0,0.0,0.0,0.0,0.0118,0.0471,0.0271,0.0115,0.046,0.0543,0.0863,0.1918,0.2387,0.291,0.3671,0.4616,0.5268,0.5354,0.5924,0.63,0.63,0.63,0.63,0.63,0.6606,0.6795,0.6795,0.7744,0.8313,0.8313,0.9253,1.0115,1.0783,1.1124,1.1316,1.1316,1.1316,1.1657,1.2305,1.2305,1.2482,0.0,0.0,0.0,0.0,0.0,0.0,0.0,0.0,0.0,0.0,0.0,0.0,0.0,0.0,0.0,0.0,0.0,0.0,0.0,0.0,0.0,0.0,0.0,0.0,0.0,0.0,0.0,0.0,-0.9786,-0.9306,-0.9274,-0.8452,-0.7994,-0.7962,-0.7962,-0.7962,-0.7929,-0.7079,-0.6654,-0.6654,-0.5818,-0.5395,-0.5395,-0.5395,-0.5395,-0.5395,-0.5395,-0.5395,-0.5359,-0.5395,-0.5566,-0.5796,-0.5764,-0.5949,-0.6135,-0.5038,-0.4647,-0.4491,-0.3435,-0.2425,-0.1607,-0.1568,-0.0863,0.0,0.0,0.0,0.0,0.0,0.0,0.0,0.0,0.0,0.0,0.0039,0.0039,0.0353,0.1411,0.0824,0.0392,0.145,0.1645,0.1957,0.2968,0.4021,0.4727,0.473,0.5634,0.6306,0.6306,0.6306,0.6306,0.63,0.63,0.63,0.6338,0.7249,0.7821,0.7859,0.8803,0.9334,0.9334,1.0303,1.082,1.082,1.1805,1.2305,1.2305,1.2305,1.2305,1.2305,1.2305,1.2806,-0.7622,0.0,0.0,0.0,0.0,0.0,0.0,0.0,0.0,0.0,0.0,0.0,0.0,0.0,0.0,0.0,0.0,0.0,0.0,0.0,0.0,0.0,0.0,0.0,0.0,0.0,0.0,0.0,-0.9434,-0.9043,-0.8388,-0.8124,-0.7702,-0.7079,-0.7046,-0.6756,-0.6112,-0.5881,-0.5752,-0.5752,-0.5524,-0.5395,-0.5395,-0.5395,-0.5395,-0.5395,-0.5395,-0.5024,-0.4453,-0.5123,-0.5508,-0.5587,-0.4899,-0.4772,-0.4879,-0.3917,-0.3552,-0.3398,-0.2386,-0.1841,-0.1489,-0.0706,-0.0235,0.0,0.0,0.0,0.0,0.0,0.0,0.0,0.0,0.0,0.0196,0.098,0.1176,0.145,0.2462,0.2462,0.2345,0.2618,0.2696,0.3008,0.4062,0.4491,0.499,0.5875,0.6251,0.6453,0.6453,0.6453,0.6416,0.631,0.63,0.6606,0.7326,0.7629,0.8122,0.8841,0.9814,1.0378,1.0378,1.1354,1.1885,1.1885,1.215,1.2305,1.2305,1.2305,1.2305,1.2305,1.2305,1.2445,0.0,0.0,0.0,0.0,0.0,0.0,0.0,-0.8766,0.0,0.0,0.0,0.0,0.0,0.0,0.0,0.0,0.0,0.0,0.0,0.0,0.0,0.0,0.0,0.0,0.0,-1.005,-0.9668,-0.9204,-0.8591,-0.7832,-0.6957,-0.6924,-0.6695,-0.617,-0.6174,-0.5914,-0.5395,-0.5395,-0.5395,-0.5395,-0.5395,-0.5395,-0.5395,-0.499,-0.4821,-0.4788,-0.4417,-0.3949,-0.3516,-0.4032,-0.4362,-0.4412,-0.3871,-0.3782,-0.3789,-0.2837,-0.2462,-0.2308,-0.1293,-0.0941,-0.0824,-0.0196,0.0,0.0,0.0,0.0,0.0,0.0,0.0,0.0118,0.0549,0.0667,0.0941,0.1996,0.2231,0.2503,0.3554,0.3787,0.3787,0.3787,0.3787,0.41,0.5196,0.5354,0.5613,0.633,0.6422,0.6422,0.6422,0.6422,0.6392,0.631,0.63,0.6718,0.7706,0.8199,0.8841,0.9857,1.0864,1.1428,1.1428,1.1996,1.2305,1.2305,1.2305,1.2305,1.2305,1.2305,1.2305,1.2305,1.2703,1.3127,0.0,0.0,0.0,0.0,0.0,0.0,-0.87,-0.8307,0.0,0.0,0.0,0.0,0.0,0.0,0.0,0.0,0.0,0.0,0.0,0.0,0.0,0.0,0.0,0.0,-0.992,-0.9223,-0.876,-0.8705,-0.7326,-0.618,-0.5377,-0.5361,-0.5368,-0.5368,-0.5385,-0.5395,-0.5395,-0.5395,-0.5359,-0.5259,-0.5259,-0.5193,-0.5057,-0.4251,-0.3849,-0.3813,-0.3045,-0.2644,-0.2551,-0.2561,-0.2701,-0.2876,-0.2764,-0.2793,-0.2813,-0.1801,-0.1411,-0.1293,-0.0314,0.0,0.0,0.0,0.0,0.0,0.0,0.0,0.0039,0.0157,0.0196,0.0432,0.1489,0.1762,0.2035,0.3046,0.3279,0.3552,0.4647,0.4882,0.4882,0.4882,0.4882,0.5196,0.6141,0.63,0.63,0.63,0.6313,0.6317,0.6303,0.6313,0.6317,0.6303,0.6412,0.6872,0.7897,0.8879,0.9895,1.0901,1.1805,1.2305,1.2305,1.2305,1.2305,1.2305,1.2338,1.2351,1.2351,1.2318,1.2342,1.2482,1.3346,1.4297,-0.8935,-0.8906,-0.8843,0.0,0.0,0.0,0.0,-0.6881,0.0,0.0,0.0,0.0,0.0,0.0,0.0,0.0,0.0,0.0,0.0,0.0,0.0,0.0,0.0,0.0,-0.8947,-0.8741,-0.8112,-0.6845,-0.5804,-0.5188,-0.5003,-0.5114,-0.5176,-0.5176,-0.5327,-0.5395,-0.5395,-0.5395,-0.5024,-0.4284,-0.4284,-0.3915,-0.3211,-0.3045,-0.2945,-0.2945,-0.2778,-0.2277,-0.158,-0.1556,-0.2097,-0.2804,-0.1943,-0.1725,-0.1762,-0.0706,-0.0314,-0.0275,-0.0079,0.0,0.0,0.0,0.0,0.0,0.0,0.0,0.0196,0.1058,0.1293,0.1528,0.254,0.2813,0.3086,0.4139,0.4375,0.4686,0.5747,0.5983,0.5983,0.5983,0.5983,0.6064,0.6261,0.63,0.63,0.63,0.6399,0.6429,0.6313,0.6402,0.6426,0.6313,0.7022,0.7897,0.8917,0.9927,1.0938,1.1922,1.2187,1.2305,1.2305,1.2305,1.2305,1.2305,1.2576,1.2697,1.2697,1.2418,1.2696,1.3426,1.4022,1.4756,-0.9257,-0.9016,-0.8775,-0.8628,0.0,0.0,0.0,0.0,0.0,0.0,0.0,0.0,0.0,0.0,0.0,0.0,0.0,0.0,0.0,0.0,0.0,0.0,0.0,0.0,-0.7913,-0.7452,-0.6739,-0.5623,-0.5083,-0.484,-0.4884,-0.4955,-0.5026,-0.5096,-0.5206,-0.5085,-0.4722,-0.4688,-0.4251,-0.3347,-0.3347,-0.3111,-0.2678,-0.2209,-0.2009,-0.1976,-0.1543,-0.1074,-0.0641,-0.0641,-0.0982,-0.1386,-0.0873,-0.0699,-0.0745,-0.0196,0.0,0.0,0.0,0.0,0.0,0.0,0.0,0.0,0.0,0.0389,0.1019,0.2074,0.2347,0.2581,0.3632,0.3904,0.4178,0.5237,0.5512,0.5628,0.618,0.63,0.63,0.63,0.63,0.63,0.63,0.63,0.63,0.63,0.6361,0.6381,0.631,0.6787,0.711,0.7069,0.7936,0.8955,0.997,1.0527,1.1242,1.2224,1.2305,1.2305,1.2305,1.2445,1.2599,1.2752,1.2899,1.3018,1.3018,1.2826,1.2981,1.3469,1.4736,1.5552,0.0,0.0,0.0,0.0,0.0,-0.7288,0.0,0.0,0.0,0.0,0.0,0.0,0.0,0.0,0.0,0.0,0.0,0.0,0.0,0.0,0.0,0.0,0.0,0.0,0.0,-0.5977,-0.5322,-0.4849,-0.4691,-0.467,-0.4823,-0.486,-0.4833,-0.4821,-0.4845,-0.4505,-0.3749,-0.3737,-0.3311,-0.2444,-0.2444,-0.2344,-0.2144,-0.1408,-0.104,-0.1006,-0.0303,0.0,0.0,0.0,0.0,0.0,0.0,0.0,0.0,0.0,0.0,0.0,0.0,0.0,0.0,0.0,0.0153,0.0311,0.0306,0.1042,0.2113,0.3124,0.3396,0.3671,0.4727,0.5002,0.5237,0.6103,0.63,0.63,0.63,0.63,0.63,0.63,0.63,0.63,0.63,0.63,0.63,0.63,0.63,0.6377,0.6567,0.7288,0.7859,0.8084,0.8993,0.9927,1.0746,1.0975,1.1428,1.2261,1.2358,1.2385,1.2385,1.2717,1.2991,1.3206,1.3267,1.3373,1.3605,1.3659,1.3698,1.3817,1.5543,1.6556,0.0,0.0,0.0,0.0,-0.8125,0.0,0.0,0.0,0.0,0.0,0.0,0.0,0.0,0.0,0.0,0.0,0.0,0.0,0.0,0.0,0.0,0.0,0.0,0.0,0.0,-0.482,-0.4439,-0.4532,-0.4379,-0.4335,-0.4535,-0.4672,-0.4429,-0.3789,-0.3897,-0.3594,-0.2866,-0.2841,-0.2376,-0.1474,-0.1474,-0.104,-0.0303,-0.0202,-0.0135,-0.0135,-0.0034,0.0,0.0,0.0,0.0,0.0,0.0,0.0,0.0,0.0,0.0,0.0,0.0,0.0,0.0,0.0,0.0644,0.1408,0.1436,0.2108,0.3163,0.4217,0.453,0.4766,0.5828,0.6103,0.6141,0.6261,0.63,0.63,0.63,0.63,0.63,0.63,0.63,0.63,0.63,0.63,0.63,0.63,0.63,0.6602,0.7518,0.7744,0.8122,0.9031,1.004,1.0671,1.0783,1.162,1.2187,1.2298,1.2589,1.273,1.273,1.2993,1.3173,1.3213,1.342,1.4068,1.5045,1.5286,1.5559,1.5855,1.6519,1.7763,0.0,0.0,0.0,0.0,0.0,0.0,-0.7276,0.0,-0.7013,0.0,0.0,0.0,0.0,0.0,0.0,0.0,0.0,0.0,0.0,0.0,0.0,0.0,0.0,0.0,0.0,0.0,0.0,0.0,-0.4257,-0.4058,-0.3711,-0.3805,-0.3592,-0.2988,-0.3027,-0.2682,-0.1896,-0.1882,-0.1441,-0.0538,-0.0538,-0.037,0.0,0.0,0.0,0.0,0.0,0.0,0.0,0.0,0.0,0.0,0.0,0.0,0.0,0.0,0.0,0.0,0.0,0.0392,0.1017,0.1624,0.2041,0.2492,0.3168,0.3711,0.4256,0.5315,0.5628,0.5747,0.618,0.63,0.63,0.63,0.63,0.63,0.63,0.63,0.63,0.63,0.63,0.63,0.63,0.63,0.649,0.7099,0.7176,0.7518,0.8542,0.9178,0.9696,1.0115,1.1056,1.1657,1.1657,1.2227,1.2596,1.2596,1.2884,1.3093,1.326,1.3353,1.35,1.3714,1.4434,1.5059,1.5535,1.6285,1.7056,1.7822,1.8027,1.8578,-0.8804,0.0,0.0,0.0,0.0,0.0,0.0,0.0,0.0,0.0,0.0,0.0,0.0,0.0,0.0,0.0,0.0,0.0,0.0,0.0,0.0,0.0,0.0,0.0,0.0,0.0,0.0,0.0,0.0,-0.3794,-0.3129,-0.3204,-0.2905,-0.2139,-0.2108,-0.1741,-0.0955,-0.0956,-0.0638,0.0,0.0,0.0,0.0,0.0,0.0,0.0,0.0,0.0,0.0,0.0,0.0,0.0038,0.0311,0.0432,0.0432,0.0432,0.0432,0.0471,0.0745,0.1365,0.2133,0.2825,0.321,0.3548,0.4435,0.4921,0.5315,0.6064,0.63,0.63,0.63,0.63,0.63,0.63,0.63,0.63,0.63,0.63,0.63,0.63,0.6528,0.6718,0.6718,0.6718,0.6945,0.7706,0.805,0.858,0.9593,1.034,1.0925,1.1302,1.2002,1.2458,1.2545,1.279,1.2945,1.3025,1.3206,1.342,1.3713,1.3726,1.3986,1.4524,1.5296,1.5985,1.6593,1.7374,1.835,1.9441,1.9155,1.9155,0.0,0.0,0.0,-0.7413,0.0,0.0,0.0,0.0,-0.5545,0.0,0.0,0.0,0.0,0.0,0.0,0.0,0.0,0.0,0.0,0.0,0.0,0.0,0.0,0.0,0.0,0.0,0.0,0.0,0.0,0.0,-0.3121,-0.3107,-0.2512,-0.1174,-0.1132,-0.0801,-0.0062,-0.0033,-0.0034,0.0,0.0,0.0,0.0,0.0,0.0,0.0,0.0,0.0,0.0,0.0,0.0,0.0114,0.1126,0.1568,0.1568,0.1568,0.1568,0.1684,0.2656,0.3041,0.3022,0.2946,0.3693,0.4648,0.4691,0.5431,0.6261,0.63,0.63,0.63,0.63,0.63,0.63,0.63,0.63,0.63,0.63,0.63,0.63,0.63,0.7099,0.7744,0.7744,0.7744,0.7744,0.7783,0.8618,0.9631,1.0634,1.0783,1.1302,1.2585,1.277,1.2891,1.316,1.3186,1.3313,1.3553,1.3586,1.372,1.4062,1.4075,1.4559,1.5621,1.5696,1.6756,1.8877,1.8917,1.9481,2.0527,1.9481,1.9559,0.0,0.0,-0.7509,-0.6813,0.0,0.0,0.0,0.0,0.0,0.0,0.0,0.0,0.0,0.0,0.0,0.0,0.0,0.0,0.0,0.0,0.0,0.0,0.0,0.0,0.0,0.0,0.0,0.0,-0.318,0.0,0.0,-0.1715,-0.1339,-0.0406,-0.0384,-0.0247,0.0,0.0,0.0,0.0,0.0,0.0,0.0,0.0,0.0,0.0,0.0,0.0,0.0072,0.0761,0.1044,0.1162,0.2183,0.2579,0.2579,0.2579,0.2579,0.273,0.3679,0.4018,0.4143,0.4747,0.5236,0.5601,0.5704,0.6022,0.63,0.63,0.63,0.63,0.63,0.63,0.63,0.63,0.63,0.63,0.63,0.6834,0.7292,0.7292,0.8267,0.9048,0.9048,0.9792,1.0315,1.0076,1.033,1.1008,1.2241,1.2383,1.2544,1.3,1.3053,1.3093,1.32,1.3347,1.358,1.3915,1.3935,1.3981,1.4082,1.4088,1.4615,1.5696,1.6396,1.7496,1.8997,1.9717,2.0245,2.0605,2.0245,2.0245,-0.7623,-0.7364,0.0,-0.6337,-0.6122,0.0,-0.5134,0.0,0.0,0.0,0.0,0.0,0.0,0.0,0.0,0.0,0.0,0.0,0.0,0.0,0.0,0.0,0.0,0.0,0.0,0.0,-0.2898,-0.2406,-0.2462,0.0,0.0,0.0,-0.0712,-0.0027,0.0,0.0,0.0,0.0,0.0,0.0,0.0,0.0,0.0,0.0,0.0,0.0,0.0,0.021,0.0619,0.1322,0.1812,0.2231,0.3281,0.3669,0.3669,0.3669,0.3904,0.432,0.486,0.5075,0.522,0.5819,0.603,0.6132,0.6269,0.63,0.63,0.63,0.63,0.63,0.63,0.63,0.63,0.63,0.63,0.6412,0.6756,0.7326,0.7915,0.8404,0.9412,1.0277,1.0403,1.1431,1.2046,1.1476,1.1688,1.2231,1.3107,1.3213,1.3253,1.3313,1.3327,1.3407,1.3514,1.3694,1.3881,1.4075,1.4088,1.4088,1.4088,1.4454,1.5179,1.6232,1.7334,1.847,1.9559,2.0245,2.0605,2.0605,2.0605,2.0605]},{"header":{"parameterUnit":"m.s-1","parameterCategory":1,"la1":30.6,"la2":29.2853,"lo1":-89.7004,"lo2":-87.6739,"dy":0.0162,"dx":0.0183,"nx":112,"ny":82,"refTime":"2026-03-14T00:00:00:Z","depth":0,"parameterNumber":3,"parameterNumberName":"V-component_of_WINDS"},"data":[0.0,0.0,0.0,0.0,0.0,0.0,0.0,0.0,0.0,0.0,0.0,0.0,0.0,0.0,0.0,0.0,0.0,0.0,0.0,0.0,0.0,0.0,0.0,0.0,0.0,0.0,0.0,0.0,0.0,0.0,0.0,0.0,0.0,0.0,0.0,0.0,0.0,0.0,0.0,0.0,0.0,0.0,0.0,0.0,0.0,0.0,0.0,0.0,0.0,0.0,0.0,0.0,0.0,0.0,0.0,0.0,0.0,0.0,0.0,0.0,0.0,0.0,0.0,0.0,0.0,0.0,0.0,0.0,0.0,0.0,0.0,0.0,0.0,0.0,0.0,0.0,0.0,0.0,0.0,0.0,0.0,0.0,0.0,0.0,0.0,0.0,0.0,0.0,0.0,0.0,0.0,-0.0387,-0.0126,0.0,0.0,0.044,0.0598,0.0348,0.0,0.0,0.0,0.0,0.0,0.0,0.0,0.0,0.0,0.0,0.0,0.0,0.0,0.0,0.0,0.0,0.0,0.0,0.0,0.0,0.0,0.0,0.0,0.0,0.0,0.0,0.0,0.0,0.0,0.0,0.0,0.0,0.0,0.0,0.0,0.0,0.0,0.0,0.0,0.0,0.0,0.0,0.0,0.0,0.0,0.0,0.0,0.0,0.0,0.0,0.0,0.0,0.0,0.0,0.0,0.0,0.0,0.0,0.0,0.0,0.0,0.0,0.0,0.0,0.0,0.0,0.0,0.0,0.0,0.0,0.0,0.0,0.0,0.0,0.0,0.0,0.0,0.0,0.0,0.0,0.0,0.0,0.0,0.0,0.0,0.0,0.0,0.0,0.0,0.0,0.0,0.0,0.0,0.0,0.0,0.0,0.0,0.0,0.0,0.0,0.0,0.0,0.0,0.0,-0.0934,-0.0142,-0.0022,0.0,0.0,0.0435,0.0509,0.0084,0.0,0.0,0.0,0.0,0.0,0.0,0.0,0.0,0.0,0.0,0.0,0.0,0.0,0.0,0.0,0.0,0.0,0.0,0.0,0.0,0.0,0.0,0.0,0.0,0.0,0.0,0.0,0.0,0.0,0.0,0.0,0.0,0.0,0.0,0.0,0.0,0.0,0.0,0.0,0.0,0.0,0.0,0.0,0.0,0.0,0.0,0.0,0.0,0.0,0.0,0.0,0.0,0.0,0.0,0.0,0.0,0.0,0.0,0.0,0.0,0.0,0.0,0.0,0.0,0.0,0.0,0.0,0.0,0.0,0.0,0.0,0.0,0.0,0.0,0.0,0.0,0.0,0.0,0.0,0.0,0.0,0.0,0.0,0.0,0.0,0.0,0.0,0.0,0.0,0.0,0.0,0.0,0.0,0.0,0.0,0.0,0.0,0.0,0.0,0.0,0.0,0.0,0.0,-0.0978,-0.0599,-0.0064,0.0,0.0,0.0,0.062,0.0863,0.0508,0.1386,0.0,0.0,0.0,0.0,0.0,0.0,0.0,0.0,0.0,0.0,0.0,0.0,0.0,0.0,0.0,0.0,0.0,0.0,0.0,0.0,0.0,0.0,0.0,0.0,0.0,0.0,0.0,0.0,0.0,0.0,0.0,0.0,0.0,0.0,0.0,0.0,0.0,0.0,0.0,0.0,0.0,0.0,0.0,0.0,0.0,0.0,0.0,0.0,0.0,0.0,0.0,0.0,0.0,0.0,0.0,0.0,0.0,0.0,0.0,0.0,0.0,0.0,0.0,0.0,0.0,0.0,0.0,0.0,0.0,0.0,0.0,0.0,0.0,0.0,0.0,0.0,0.0,0.0,0.0,0.0,0.0,0.0,0.0,0.0,0.0,0.0,0.0,0.0,0.0,0.0,0.0,0.0,0.0,0.0,0.0,0.0,0.0,0.0,0.0,0.0,0.0,0.0,-0.0347,-0.0235,-0.0022,0.0135,0.0202,0.0202,0.0981,0.1333,0.1014,0.1718,0.0,0.0,0.0,0.0,0.0,0.0,0.0,0.0,0.0,0.0,0.0,0.0,0.0,0.0,0.0,0.0,0.0,0.0,0.0,0.0,0.0,0.0,0.0,0.0,0.0,0.0,0.0,0.0,0.0,0.0,0.0,0.0,0.0,0.0,0.0,0.0,0.0,0.0,0.0,0.0,0.0,0.0,0.0,0.0,0.0,0.0,0.0,0.0,0.0,0.0,0.0,0.0,0.0,0.0,0.0,0.0,0.0,0.0,0.0,0.0,0.0,0.0,0.0,0.0,0.0,0.0,0.0,0.0,0.0,0.0,0.0,0.0,0.0,0.0,0.0,0.0,0.0,0.0,0.0,0.0,0.0,0.0,0.0,0.0,0.0,0.0,0.0,0.0,0.0,0.0,0.0,0.0,0.0,0.0,0.0,0.0,0.0,0.0,0.0,0.0,0.0,0.0,-0.0184,-0.002,0.0,0.0493,0.0828,0.0828,0.1524,0.176,0.1293,0.1743,0.0,0.0,0.0,0.0,0.0,0.0,0.0,0.0,0.0,0.0,0.0,0.0,0.0,0.0,0.0,0.0,0.0,0.0,0.0,0.0,0.0,0.0,0.0,0.0,0.0,0.0,0.0,0.0,0.0,0.0,0.0,0.0,0.0,0.0,0.0,0.0,0.0,0.0,0.0,0.0,0.0,0.0,0.0,0.0,0.0,0.0,0.0,0.0,0.0,0.0,0.0,0.0,0.0,0.0,0.0,0.0,0.0,0.0,0.0,0.0,0.0,0.0,0.0,0.0,0.0,0.0,0.0,0.0,0.0,0.0,0.0,0.0,0.0,0.0,0.0,0.0,0.0,0.0,0.0,0.0,0.0,0.0,0.0,0.0,0.0,0.0,0.0,0.0,0.0,0.0,0.0,0.0,0.0,0.0,0.0,0.0,0.0,0.0,0.0,0.0,0.0,0.0,0.0232,0.0647,0.0,0.1096,0.1436,0.1337,0.1816,0.1936,0.1519,0.0,0.0,0.0,0.0,0.0,0.0,0.0,0.0,0.0,0.0,0.0,0.0,0.0,0.0,0.0,0.0,0.0,0.0,0.0,0.0,0.0,0.0,0.0,0.0,0.0,0.0,0.0,0.0,0.0,0.0,0.0,0.0,0.0,0.0,0.0,0.0,0.0,0.0,0.0,0.0,0.0,0.0,0.0,0.0,0.0,0.0,0.0,0.0,0.0,0.0,0.0,0.0,0.0,0.0,0.0,0.0,0.0,0.0,0.0,0.0,0.0,0.0,0.0,0.0,0.0,0.0,0.0,0.0,0.0,0.0,0.0,0.0,0.0,0.0,0.0,0.0,0.0,0.0,0.0,0.0,0.0,0.0,0.0,0.0,0.0,0.0,0.0,0.0,0.0,0.0,0.0,0.0,0.0,0.0,0.0,0.0,0.0,0.0,0.0,0.0,0.0,0.0,0.0,0.0747,0.1222,0.0,0.1664,0.1967,0.1873,0.221,0.229,0.1969,0.0,0.0,0.0,0.0,0.0,0.0,0.0,0.0,0.0,0.0,0.0,0.0,0.0,0.0,0.0,0.0,0.0,0.0,0.0,0.0,0.0,0.0,0.0,0.0,0.0,0.0,0.0,0.0,0.0,0.0,0.0,0.0,0.0,0.0,0.0,0.0,0.0,0.0,0.0,0.0,0.0,0.0,0.0,0.0,0.0,0.0,0.0,0.0,0.0,0.0,0.0,0.0,0.0,0.0,0.0,0.0,0.0,0.0,0.0,0.0,0.0,0.0,0.0,0.0,0.0,0.0,0.0,0.0,0.0,0.0,0.0,0.0,0.0,0.0,0.0,0.0,0.0,0.0,0.0,0.0,0.0,0.0,0.0,0.0,0.0,0.0,0.0,0.0,0.0,0.0,0.0,0.0,0.0,0.0,0.0,0.0,0.0,0.0,0.0,0.0,0.0,0.0,0.0844,0.1326,0.1613,0.1607,0.2157,0.2497,0.2417,0.2725,0.2844,0.0,0.0,0.0,0.0,0.0,0.0,0.0,0.0,0.0,0.0,0.0,0.0,0.0,0.0,0.0,0.0,0.0,0.0,0.0,0.0,0.0,0.0,0.0,0.0,0.0,0.0,0.0,0.0,0.0,0.0,0.0,0.0,0.0,0.0,0.0,0.0,0.0,0.0,0.0,0.0,0.0,0.0,0.0,0.0,0.0,0.0,0.0,0.0,0.0,0.0,0.0,0.0,0.0,0.0,0.0,0.0,0.0,0.0,0.0,0.0,0.0,0.0,0.0,0.0,0.0,0.0,0.0,0.0,0.0,0.0,0.0,0.0,0.0,0.0,0.0,0.0,0.0,0.0,0.0,0.0,0.0,0.0,0.0,0.0,0.0,0.0,0.0,0.0,0.0,0.0,0.0,0.0,0.0,0.0,0.0,0.0,0.0,0.0,0.0,0.0,0.0,0.0,0.0,0.0763,0.1945,0.2729,0.2537,0.3312,0.3715,0.3416,0.3484,0.3237,0.2535,0.0,0.0,0.0,0.0,0.0,0.0,0.0,0.0,0.0,0.0,0.0,0.0,0.0,0.0,0.0,0.0,0.0,0.0,0.0,0.0,0.0,0.0,0.0,0.0,0.0,0.0,0.0,0.0,0.0,0.0,0.0,0.0,0.0,0.0,0.0,0.0,0.0,0.0,0.0,0.0,0.0,0.0,0.0,0.0,0.0,0.0,0.0,0.0,0.0,0.0,0.0,0.0,0.0,0.0,0.0,0.0,0.0,0.0,0.0,0.0,0.0,0.0,0.0,0.0,0.0,0.0,0.0,0.0,0.0,0.0,0.0,0.0,0.0,0.0,0.0,0.0,0.0,0.0,0.0,0.0,0.0,0.0,0.0,0.0,0.0,0.0,0.0,0.0,0.0,0.0,0.0,0.0,0.0,0.0,0.0,0.0,0.0,0.0,0.0,0.0,0.0,0.0,0.1493,0.2663,0.3483,0.3431,0.3966,0.4174,0.3792,0.3761,0.3496,0.2881,0.0,0.0,0.0,0.0,0.0,0.0,0.0,0.0,0.0,0.0,0.0,0.0,0.0,0.0,0.0,0.0,0.0,0.0,0.0,0.0,0.0,0.0,0.0,0.0,0.0,0.0,0.0,0.0,0.0,0.0,0.0,0.0,0.0,0.0,0.0,0.0,0.0,0.0,0.0,0.0,0.0,0.0,0.0,0.0,0.0,0.0,0.0,0.0,0.0,0.0,0.0,0.0,0.0,0.0,0.0,0.0,0.0,0.0,0.0,0.0,0.0,0.0,0.0,0.0,0.0,0.0,0.0,0.0,0.0,0.0,0.0,0.0,0.0,0.0,0.0,0.0,0.0,0.0,0.0,0.0,0.0,0.0,0.0,0.0,0.0,0.0,0.0,0.0,0.0,0.0,0.0,0.0,0.0,0.0,0.0,0.0,0.0,0.0,0.0,0.0,0.0,0.0,0.2616,0.3337,0.3927,0.4199,0.4277,0.4149,0.3787,0.3771,0.3667,0.3452,0.0,0.0,0.0,0.0,0.0,0.0,0.0,0.0,0.0,0.0,0.0,0.0,0.0,0.0,0.0,0.0,0.0,0.0,0.0,0.0,0.0,0.0,0.0,0.0,0.0,0.0,0.0,0.0,0.0,0.0,0.0,0.0,0.0,0.0,0.0,0.0,0.0,0.0,0.0,0.0,0.0,0.0,0.0,0.0,0.0,0.0,0.0,0.0,0.0,0.0,0.0,0.0,0.0,0.0,0.0,0.0,0.0,0.0,0.0,0.0,0.4897,0.0,0.0,0.0,0.0,0.0,0.0,0.0,0.0,0.0,0.0,0.0,0.0,0.0,0.0,0.0,0.0,0.0,0.0,0.0,0.0,0.0,0.0,0.0,0.0,0.0,0.0,0.0,0.0,0.0,0.0,0.0,0.0,0.0,0.0,0.0,0.0,0.0,0.0,0.0,0.0,0.0,0.2414,0.3334,0.4097,0.4469,0.484,0.4843,0.4295,0.4257,0.3871,0.3004,0.3491,0.0,0.0,0.0,0.0,0.0,0.0,0.0,0.0,0.0,0.0,0.0,0.0,0.0,0.0,0.0,0.0,0.0,0.0,0.0,0.0,0.0,0.0,0.0,0.0,0.0,0.0,0.0,0.0,0.0,0.0,0.0,0.0,0.0,0.0,0.0,0.0,0.0,0.0,0.0,0.0,0.0,0.0,0.0,0.0,0.0,0.0,0.0,0.0,0.0,0.0,0.0,0.0,0.0,0.0,0.0,0.0,0.0,0.0,0.0,0.0,0.601,0.0,0.0,0.0,0.0,0.0,0.0,0.0,0.0,0.0,0.0,0.0,0.0,0.0,0.0,0.0,0.0,0.0,0.0,0.0,0.0,0.0,0.0,0.0,0.0,0.0,0.0,0.0,0.0,0.0,0.0,0.0,0.0,0.0,0.0,0.0,0.0,0.0,0.0,0.0,0.0,0.31,0.3773,0.4386,0.4881,0.5151,0.5112,0.4635,0.4592,0.4335,0.3756,0.3764,0.0,0.0,0.0,0.0,0.0,0.0,0.0,0.0,0.0,0.0,0.0,0.0,0.0,0.0,0.0,0.0,0.0,0.0,0.0,0.0,0.0,0.0,0.0,0.0,0.0,0.0,0.0,0.0,0.0,0.0,0.0,0.0,0.0,0.0,0.0,0.0,0.0,0.0,0.0,0.0,0.0,0.0,0.0,0.0,0.0,0.0,0.0,0.0,0.0,0.0,0.0,0.0,0.0,0.8552,0.8923,0.8842,0.9039,0.9641,1.0429,0.8766,0.7921,0.7653,0.6761,0.0,0.0,0.0,0.0,0.0,0.0,0.0,0.0,0.0,0.0,0.0,0.0,0.0,0.0,0.0,0.0,0.0,0.0,0.0,0.0,0.0,0.0,0.0,0.0,0.5176,0.4947,0.3511,0.0,0.0,0.0,0.0,0.0,0.0,0.0,0.0,0.0,0.0,0.0,0.4095,0.4475,0.49,0.5451,0.5507,0.5382,0.5058,0.4953,0.4849,0.471,0.4176,0.3964,0.0,0.0,0.0,0.0,0.0,0.0,0.0,0.0,0.0,0.0,0.0,0.0,0.0,0.0,0.0,0.0,0.0,0.0,0.0,0.0,0.0,0.0,0.0,0.0,0.0,0.0,0.0,0.0,0.0,0.0,0.0,0.0,0.5154,0.5955,0.0,0.0,0.0,0.0,0.0,0.0,0.0,0.0,0.0,0.0,0.0,0.0,0.0,0.8103,0.8116,0.9313,0.9738,0.9398,1.0599,1.0956,1.0589,1.0997,1.1281,1.1412,1.1145,0.0,0.9297,0.8081,0.0,0.0,0.0,0.0,0.0,0.0,0.0,0.0,0.0,0.0,0.0,0.0,0.0,0.0,0.0,0.0,0.0,0.0,0.0,0.0,0.0,0.0,0.6619,0.5988,0.5861,0.5772,0.0,0.4556,0.3962,0.3922,0.3656,0.0,0.0,0.0,0.0,0.0,0.0,0.0,0.4783,0.5466,0.6,0.6311,0.6336,0.6234,0.596,0.5557,0.5149,0.473,0.4612,0.4311,0.3716,0.4246,0.0,0.0,0.0,0.0,0.0,0.0,0.0,0.0,0.0,0.0,0.0,0.0,0.0,0.0,0.0,0.0,0.0,0.0,0.0,0.0,0.0,0.0,0.0,0.0,0.0,0.0,0.0,0.0,0.0,0.5863,0.6406,0.7026,0.6347,0.6043,0.0,0.0,0.0,0.0,0.0,0.0,0.0,0.0,0.0,0.8379,0.9272,0.9767,0.9801,1.0839,1.129,1.1118,1.2177,1.2549,1.2373,1.2568,1.268,1.2651,1.2148,1.1608,1.0992,0.9477,0.8577,0.8034,0.0,0.0,0.0,0.0,0.7016,0.6957,0.752,0.7596,0.7445,0.7305,0.0,0.0,0.0,0.0,0.0,0.0,0.0,0.0,0.0,0.0,0.7807,0.7715,0.7682,0.7652,0.7532,0.6774,0.5887,0.0,0.4894,0.465,0.4045,0.0,0.0,0.0,0.0,0.4846,0.5537,0.5907,0.6205,0.6477,0.6503,0.6458,0.6332,0.5887,0.5533,0.5328,0.4857,0.4538,0.4443,0.4355,0.4232,0.0,0.0,0.0,0.0,0.0,0.0,0.0,0.0,0.0,0.0,0.0,0.0,0.0,0.0,0.0,0.0,0.0,0.0,0.0,0.0,0.0,0.0,0.0,0.0,0.0,0.0,0.0,0.0,0.691,0.7454,0.798,0.7509,0.7255,0.0,0.0,0.0,0.0,0.0,0.0,0.8973,0.9191,0.9555,1.0173,1.0935,1.1406,1.155,1.2311,1.2691,1.2701,1.3334,1.3636,1.3636,1.3636,1.3636,1.3633,1.2973,1.2632,1.2394,1.0702,0.9953,0.9739,0.8706,0.8223,0.8174,0.8579,0.8542,0.8367,0.8975,0.8977,0.8668,0.8472,0.8096,0.7629,0.7014,0.0,0.0,0.0,0.0,0.7745,0.8508,0.8623,0.8618,0.8936,0.9004,0.9004,0.9004,0.8454,0.7619,0.0,0.6088,0.5806,0.5078,0.0,0.0,0.0,0.0,0.566,0.6277,0.6449,0.6588,0.6779,0.6805,0.6804,0.6804,0.6283,0.5983,0.6057,0.5233,0.4877,0.5164,0.4521,0.4293,0.4589,0.0,0.0,0.0,0.0,0.0,0.0,0.0,0.0,0.0,0.0,0.0,0.0,0.0,0.0,0.0,0.0,0.0,0.0,0.0,0.0,0.0,0.0,0.0,0.0,0.0,0.0,0.0,0.0,0.0,0.8843,0.8909,0.0,0.0,0.0,0.0,0.9565,0.9566,0.9909,1.0738,1.0426,1.0613,1.1484,1.2353,1.2973,1.3379,1.3792,1.4007,1.4007,1.4055,1.4075,1.4075,1.4075,1.4075,1.4075,1.4026,1.3792,1.3311,1.156,1.0601,1.0222,0.9778,0.9376,0.913,0.9899,0.9942,0.9661,1.0079,0.9923,0.9535,0.9516,0.9233,0.883,0.842,0.8026,0.0,0.0,0.8648,0.8517,0.9321,0.9254,0.897,0.8987,0.9004,0.9004,0.9004,0.8871,0.8521,0.0,0.6932,0.6274,0.5988,0.0,0.5942,0.5929,0.6321,0.6718,0.7009,0.7385,0.7622,0.7637,0.7637,0.7642,0.7637,0.6865,0.6481,0.6732,0.5931,0.5424,0.5383,0.4868,0.4575,0.4596,0.4065,0.0,0.0,0.0,0.0,0.0,0.0,0.0,0.0,0.0,0.0,0.0,0.0,0.0,0.0,0.0,0.0,0.0,0.0,0.0,0.0,0.0,0.0,0.0,0.0,0.0,0.0,0.0,0.0,1.0567,1.0362,0.0,1.0432,1.0147,1.0236,1.0864,1.0926,1.1286,1.2139,1.229,1.2628,1.3203,1.35,1.3734,1.388,1.4336,1.4551,1.4551,1.4796,1.4933,1.4923,1.4678,1.4551,1.4531,1.4231,1.4026,1.3831,1.3217,1.2382,1.1487,1.1077,1.0841,1.0754,1.1025,1.106,1.0947,1.1083,1.1027,1.0781,1.0234,0.9751,0.9363,0.921,0.9073,0.9086,0.9677,0.9734,0.9685,0.9972,0.9941,0.9834,0.9834,0.9834,0.9834,0.9834,0.9827,0.9661,0.9033,0.8187,0.7409,0.6924,0.6768,0.6651,0.6479,0.6738,0.7178,0.7786,0.7771,0.7797,0.8062,0.7856,0.7695,0.7695,0.6901,0.6515,0.6786,0.5972,0.5474,0.5411,0.4889,0.4498,0.4286,0.375,0.3733,0.0,0.0,0.0,0.0,0.0,0.0,0.0,0.0,0.0,0.0,0.0,0.0,0.0,0.0,0.0,0.0,0.0,0.0,0.0,0.0,0.0,0.0,0.0,0.0,0.0,0.0,1.0782,1.1518,1.1672,1.1755,1.1794,1.1588,1.1685,1.2207,1.2377,1.2709,1.3271,1.3574,1.389,1.4309,1.4328,1.4397,1.4533,1.4853,1.5,1.5,1.5283,1.541,1.54,1.5117,1.5,1.498,1.466,1.4455,1.4328,1.4328,1.3743,1.2808,1.2416,1.224,1.222,1.2083,1.1937,1.179,1.1655,1.1606,1.1508,1.0919,1.0537,1.0283,1.0283,1.0283,1.0342,1.0655,1.0625,1.0488,1.0488,1.041,1.0303,1.0303,1.0303,1.0303,1.0303,1.0464,1.0495,1.013,0.9471,0.8789,0.8217,0.8017,0.7888,0.7734,0.7685,0.7873,0.8429,0.8245,0.818,0.8439,0.8237,0.8066,0.8066,0.7292,0.6894,0.7094,0.6307,0.5832,0.5807,0.5295,0.49,0.4677,0.4216,0.4145,0.4498,0.0,0.0,0.0,0.0,0.0,0.0,0.0,0.0,0.0,0.0,0.0,0.0,0.0,0.0,0.0,0.0,0.0,0.0,0.0,0.0,0.0,0.0,0.0,0.9651,1.041,1.1143,1.1636,1.2778,1.3203,1.235,1.3383,1.3938,1.3555,1.389,1.4124,1.4124,1.4143,1.4338,1.4785,1.4833,1.5,1.541,1.541,1.541,1.541,1.541,1.541,1.541,1.541,1.5371,1.5391,1.5391,1.5156,1.4766,1.4766,1.4512,1.4065,1.3656,1.3525,1.3477,1.3057,1.2627,1.2164,1.177,1.1636,1.1626,1.1648,1.1638,1.1628,1.165,1.1672,1.1672,1.1672,1.1335,1.0959,1.0949,1.0666,1.0371,1.0341,1.0341,1.0341,1.0341,1.0725,1.1027,1.1038,1.0794,1.0416,0.9846,0.9686,0.9644,0.9718,0.9203,0.0,0.8929,0.8861,0.8803,0.8839,0.8825,0.8825,0.8825,0.809,0.7641,0.77,0.6941,0.6521,0.659,0.6084,0.581,0.5792,0.5489,0.502,0.4376,0.0,0.0,0.0,0.0,0.0,0.0,0.0,0.0,0.0,0.0,0.0,0.0,0.0,0.0,0.0,0.0,0.0,0.0,0.0,0.0,0.0,0.0,1.0664,1.1007,1.1809,1.2607,1.334,1.3714,1.3841,1.3607,1.3899,1.4055,1.3938,1.4365,1.4609,1.4609,1.4893,1.5089,1.5234,1.5244,1.5293,1.541,1.541,1.541,1.541,1.541,1.541,1.541,1.541,1.5244,1.4951,1.4951,1.4707,1.428,1.428,1.4211,1.4094,1.3977,1.3938,1.389,1.3486,1.3066,1.2686,1.2582,1.2314,1.2109,1.2542,1.2492,1.234,1.2773,1.2909,1.2909,1.2909,1.28,1.2625,1.2236,1.2051,1.1866,1.148,1.1386,1.1386,1.1386,1.1763,1.1993,1.1664,1.206,1.2097,1.0923,1.0451,1.026,1.0268,0.9773,0.0,0.981,0.9232,0.9062,0.9751,0.9557,0.9383,0.9383,0.8554,0.7937,0.7711,0.6813,0.6265,0.6235,0.6096,0.59,0.566,0.5947,0.6079,0.0,0.0,0.0,0.0,0.0,0.0,0.0,0.0,0.0,0.0,0.0,0.0,0.0,0.0,0.0,0.0,0.0,0.0,0.0,0.0,0.0,0.0,1.0995,1.1738,1.2529,1.3086,1.3652,1.4299,1.4533,1.464,1.464,1.464,1.464,1.464,1.4902,1.5049,1.5049,1.5449,1.5684,1.5684,1.5684,1.5684,1.5684,1.5498,1.541,1.541,1.541,1.541,1.5371,1.5234,1.5019,1.4803,1.459,1.4338,1.4104,1.4104,1.4104,0.0,0.0,0.0,0.0,0.0,1.3203,1.3165,1.326,1.3091,1.2975,1.3575,1.3607,1.3477,1.3825,1.3933,1.3933,1.3933,1.3819,1.3614,1.3311,1.2915,1.2512,1.2212,1.1957,1.1792,1.1792,1.2174,1.2419,1.2156,1.2685,0.0,1.2121,1.16,1.1306,1.1337,1.081,1.0445,1.046,0.9954,0.9726,1.0043,0.9865,0.9725,0.9725,0.909,0.0,0.0,0.0,0.6705,0.645,0.6511,0.0,0.0,0.0,0.0,0.0,0.0,0.0,0.0,0.5798,0.6251,0.0,0.0,0.0,0.0,0.0,0.0,0.0,0.0,0.0,0.0,0.0,0.0,0.0,0.0,0.0,0.0,1.2119,1.2837,1.4016,1.4221,1.4397,1.4814,1.5186,1.541,1.541,1.5459,1.5488,1.5488,1.5537,1.5566,1.5566,0.0,0.0,0.0,0.0,1.6065,1.6016,1.5605,1.541,1.541,1.541,1.541,1.54,1.498,1.4784,1.4687,1.4221,1.406,1.4064,1.4064,1.4119,1.4222,1.4187,1.3919,1.3535,1.3328,1.3441,1.3735,1.3924,0.0,0.0,1.4617,1.4789,1.4812,1.488,1.4903,1.4903,1.4903,1.4641,1.4364,1.4307,1.362,1.2934,1.2876,1.2438,1.2055,1.2055,1.2329,1.2579,1.2579,1.2925,1.3198,1.3198,1.2814,1.2519,1.256,1.207,1.1526,1.1041,1.0822,1.0545,1.0144,0.0,0.0,0.9993,0.9657,0.9363,0.9174,0.8368,0.769,0.7216,0.7398,0.7505,0.7505,0.7762,0.7672,0.7221,0.8018,0.7968,0.7118,0.7646,0.7732,0.0,0.0,0.0,0.0,0.0,0.0,0.0,0.0,0.0,0.0,0.0,0.0,0.0,0.0,0.0,1.2504,1.3262,1.3948,1.457,1.4951,1.5167,1.5283,1.5361,1.541,1.541,1.5732,1.5968,1.5968,1.6269,1.6443,1.6443,1.6521,1.6436,1.6105,1.6095,1.5919,1.5537,1.5459,1.541,1.541,0.0,0.0,1.54,1.498,1.459,1.4211,1.3809,1.3721,1.3848,1.3848,1.4348,1.5024,1.477,1.4394,1.4096,1.4999,1.5128,1.4892,1.5096,1.5172,1.5201,1.537,1.5432,1.5521,1.5986,1.6151,0.0,1.6151,1.6111,1.5948,1.5504,1.5245,1.4994,1.455,1.4063,1.3655,1.3655,1.3339,1.3047,1.3047,1.3146,1.3198,1.3198,1.311,1.3056,1.3052,1.2601,1.2221,1.21,1.1275,1.0845,1.1224,1.0847,1.0557,1.0557,1.009,0.9717,0.9513,0.9288,0.9109,0.9004,0.9251,0.9381,0.9381,0.9595,0.9733,0.9787,1.0173,1.0309,1.0197,0.906,0.8631,0.0,0.0,0.0,0.0,0.0,0.0,0.0,0.0,0.0,0.0,0.0,1.0879,0.0,0.0,1.3066,1.373,1.4189,1.4609,1.5039,1.5283,1.541,1.541,1.5605,1.5732,1.5732,1.6143,1.6396,1.6396,1.6602,1.6886,1.7336,1.6939,1.6809,1.7053,1.6446,1.5987,1.5732,1.5518,1.5584,1.595,1.595,1.614,1.6479,1.6083,1.5631,1.5133,1.4696,1.4403,1.426,1.426,1.4541,1.5039,1.5376,1.5473,1.5516,1.5974,1.612,1.6122,1.6322,1.6194,1.5998,1.6395,1.6306,1.6117,1.6402,1.65,1.65,1.65,1.65,1.6437,1.6183,1.5906,1.563,1.5361,1.4884,1.4425,1.4166,1.3871,1.3559,1.3248,1.3198,1.3198,1.3198,1.3198,1.3198,1.3198,1.296,1.2701,1.2425,1.1899,1.1522,1.1406,1.1137,1.0909,1.0808,1.0557,1.0219,0.9825,0.9894,0.9875,0.971,0.9922,1.0119,1.0247,1.0349,1.0495,1.07,1.083,1.1028,1.1243,1.0793,1.0487,0.0,0.0,0.0,0.0,0.0,0.0,0.0,0.0,1.0371,1.1692,1.2227,1.2662,1.3379,1.389,1.4377,1.4834,1.4999,1.5175,1.5488,1.5654,1.5732,1.5613,1.596,1.6237,1.6347,1.6858,1.721,1.7301,1.7311,1.7573,1.8296,1.7554,1.741,1.803,1.7071,1.6487,1.6397,1.6015,1.6054,1.6492,1.6652,1.695,1.7374,1.7102,1.6755,1.6339,1.5866,1.5358,1.488,1.4994,1.5119,1.5315,1.6221,1.6862,1.7211,1.694,1.7063,1.7352,1.7563,1.7315,1.6988,1.7414,1.7149,1.6663,1.6663,1.6588,1.65,1.65,1.65,1.65,1.65,1.6183,1.5856,1.5856,1.5449,1.4934,1.45,1.4254,1.3959,1.3483,1.3347,1.334,1.334,1.3408,1.3408,1.3232,1.3284,1.3188,1.2748,1.2676,1.2411,1.1747,1.1482,1.1213,1.0928,1.0956,1.078,1.0272,1.0524,1.0568,1.0358,1.0495,1.0702,1.0978,1.1043,1.1156,1.1305,1.1397,1.1562,1.1838,1.2519,1.2437,1.1123,1.0196,0.0,1.0381,1.003,1.0137,0.0,0.0,1.1741,1.3018,1.333,1.3389,1.3486,1.417,1.4853,1.5273,1.5664,1.5968,1.6016,1.6576,1.6836,1.6431,1.642,1.6665,1.7208,1.82,1.902,1.9512,1.9441,1.941,1.9503,1.8973,1.8514,1.8271,1.8118,1.7847,1.7445,1.7379,1.7062,1.651,1.7174,1.7174,1.6641,1.6872,1.6961,1.6886,1.6488,1.5995,1.5543,1.6086,1.6613,1.7157,1.7742,1.8276,1.8734,1.851,1.8478,1.8534,1.8746,1.8771,1.8634,1.8243,1.7739,1.731,1.731,1.6923,1.65,1.65,1.65,1.65,1.65,1.645,1.64,1.64,1.6007,1.558,1.5517,1.4777,1.4091,1.4009,1.3912,1.3818,1.3818,1.4117,1.4084,1.3323,1.3547,1.3792,1.374,1.3628,1.3519,1.3425,1.2457,1.1571,1.0952,1.1129,1.1222,1.1161,1.1454,1.174,1.1927,1.1958,1.2107,1.237,1.2615,1.2748,1.2766,1.3123,1.3319,1.3365,1.3798,1.3611,1.194,0.0,0.0,0.0,1.1406,1.1807,1.2891,1.291,1.2988,1.4033,1.4248,1.4326,1.457,1.4902,1.5293,0.0,1.6407,1.6816,1.6737,1.7437,1.7748,1.72,1.7523,1.7823,1.7915,1.8858,1.9401,1.9312,1.9569,1.9797,1.9985,1.9091,1.8701,1.9048,1.8289,1.779,1.7605,1.7605,1.766,1.7797,1.8085,1.8313,1.8436,1.8579,1.8458,1.8145,1.7653,1.7134,1.6665,1.6923,1.7162,1.7461,1.799,1.8519,1.9046,1.9264,1.9333,1.9334,1.9445,1.9259,1.8958,1.8732,1.8304,1.7802,1.7498,1.7212,1.6948,1.6588,1.65,1.65,1.65,1.65,1.65,1.65,1.6574,1.6553,1.6236,1.6052,1.5738,1.5038,1.4857,1.4702,1.4316,1.439,1.4374,1.4016,1.4117,1.4246,1.4246,1.4202,1.4112,1.3955,1.3378,1.2725,1.2059,1.2106,1.2013,1.1619,1.1876,1.2149,1.2416,1.2578,1.2787,1.3069,1.3182,1.3226,1.3226,1.3484,1.3653,1.3791,1.4544,1.4803,1.2525,0.0,0.0,1.222,1.2602,1.314,1.3375,1.3643,1.4072,1.4805,1.4961,1.5049,1.5352,1.541,0.0,1.6507,1.7151,1.7588,1.7717,1.844,1.8691,1.7975,1.8555,1.8923,1.8726,1.9489,1.9874,1.9655,1.984,2.0082,2.0334,1.9319,1.8982,1.9649,1.8701,1.8205,1.8205,1.8205,1.8367,1.8688,1.89,1.9176,1.9501,1.9721,1.9522,1.8983,1.8581,1.8129,1.7624,1.7473,1.7564,1.7865,1.8103,1.8631,1.9259,1.966,1.9798,1.9798,1.9798,1.956,1.9221,1.9221,1.8857,1.8355,1.7953,1.7614,1.7322,1.6873,1.6742,1.671,1.671,1.6837,1.693,1.693,1.7229,1.7417,1.7029,1.7129,1.7038,1.618,1.5977,1.5721,1.5069,1.5037,1.5043,1.4873,1.486,1.4814,1.4674,1.4783,1.471,1.4326,1.4161,1.3845,1.3258,1.3209,1.3046,1.2643,1.2629,1.2736,1.2996,1.3004,1.322,1.3684,1.3709,1.3837,1.4119,1.4275,1.4445,1.4663,1.546,1.5893,0.0,0.0,1.2418,1.3252,1.3467,1.3701,1.4541,1.4736,1.4873,1.5303,1.5391,1.54,1.541,1.541,1.5949,1.7675,1.7975,1.8239,1.894,1.9679,1.9795,1.878,1.9307,1.9759,0.0,2.031,2.0874,2.1387,2.0949,2.0675,2.069,2.0085,1.9772,1.9798,1.9759,1.9721,1.9721,1.9721,1.9397,1.8715,1.9423,1.9397,1.8768,1.9475,1.9522,1.9008,1.8983,1.8669,1.8141,1.7601,1.8016,1.8907,1.8405,1.8857,1.9773,1.9798,1.9798,1.9798,1.9798,1.9798,1.9773,1.9773,1.9396,1.897,1.8958,1.8229,1.741,1.7385,1.7316,1.7271,1.7271,1.7666,1.8046,1.8046,1.8066,1.8072,1.8058,1.7647,1.7288,1.7246,1.715,1.6841,1.6173,1.6373,1.6427,1.5845,1.5755,1.5595,1.5134,1.5477,1.5501,1.4843,1.4767,1.4626,1.4276,1.4237,1.4389,1.4685,1.4052,1.3769,1.4028,1.3385,1.3453,1.4444,1.447,1.4955,1.5931,1.6114,1.6328,1.6515,1.6753,1.6865,0.0,0.0,1.3539,1.3821,1.4141,1.4502,1.5078,1.5205,1.5156,1.5029,1.5,1.4912,1.4591,1.5192,1.5997,1.6877,1.8463,1.9529,1.9338,2.061,2.1063,1.9596,1.9994,0.0,0.0,0.0,0.0,2.0955,2.0792,2.0691,2.0691,2.0138,1.9798,1.9798,1.9798,1.9798,1.9798,1.9798,1.9669,1.9423,1.9669,1.9669,1.9449,1.9695,1.971,1.9547,1.9547,1.9246,1.8719,1.8531,1.8669,1.8983,1.8795,1.9183,1.9798,1.9798,1.9798,1.9798,1.9798,1.9798,1.9798,1.9798,1.9978,2.0134,1.9781,1.9684,1.9548,1.8741,1.8832,1.8953,1.8051,1.8295,1.865,1.8208,1.838,1.8631,1.8631,1.8757,1.8768,1.8311,1.8185,1.7948,1.728,1.7274,1.713,1.6503,1.6069,1.5741,1.558,1.5912,1.6045,1.5815,1.5984,1.5896,1.5328,1.5304,1.5144,1.4815,1.4729,1.4741,1.4823,1.4767,1.4877,1.5223,1.5394,1.566,1.5992,1.6333,1.6538,1.6613,1.7351,1.7762,0.0,1.3838,1.4182,1.4484,1.4805,1.5078,1.5352,1.5293,1.5107,1.4844,1.4658,1.4463,1.4163,1.4938,1.5831,1.6462,1.8572,2.0032,1.978,2.1223,2.1832,2.0564,2.0767,0.0,0.0,0.0,0.0,2.0704,2.0691,2.0691,2.0691,2.0138,1.9798,1.9798,1.9798,1.9798,1.9798,1.9798,1.9798,1.9798,1.9798,1.9798,1.9798,1.9798,1.9798,1.9798,1.9798,1.961,1.9259,1.9083,1.9108,1.9259,1.907,1.9321,1.9798,1.9798,1.9952,2.0131,1.9875,1.9798,1.985,2.008,2.0459,2.0779,2.0646,2.0729,2.0733,1.9952,2.0062,2.0182,1.931,1.9381,1.9564,1.913,1.9104,1.9188,1.9188,1.946,1.9573,1.9136,1.9061,1.8852,1.8177,1.7782,1.7409,1.6985,1.6479,1.6108,1.5997,1.6163,1.6355,1.6477,1.6672,1.6674,1.6362,1.6341,1.6205,1.5896,1.579,1.5741,1.5741,1.5651,1.5773,1.6136,1.6317,1.6614,1.7065,1.7337,1.7486,1.7577,1.8302,1.8707,1.4492,1.4531,1.4397,1.5244,1.543,1.5371,1.5381,1.5068,1.4766,1.4725,1.4375,1.4055,0.0,0.0,1.5453,1.6488,1.8338,1.9841,2.0344,2.1527,2.2133,0.0,0.0,0.0,0.0,0.0,0.0,2.0817,0.0,2.0704,2.0729,2.0125,1.9798,1.9798,1.9798,1.9798,1.9798,1.9798,1.9798,1.9798,1.9798,1.9798,1.9798,1.9798,1.9798,1.9798,1.9798,1.9798,1.9761,1.9246,1.9359,1.9799,1.9284,1.9409,1.9901,1.9901,2.0295,2.0771,2.0118,1.9901,1.9991,2.0646,2.087,2.1004,2.1568,2.1416,2.1018,2.099,2.1018,2.1034,2.0961,2.0862,2.0778,2.0718,2.0213,1.9753,1.9708,1.9708,1.9708,1.9744,1.9747,1.9551,1.8921,1.8052,1.743,1.7385,1.707,1.6733,1.6369,1.6326,1.6474,1.6789,1.6841,1.6993,1.7296,1.7332,1.7451,1.7789,1.7156,1.6787,1.6787,1.6109,1.6197,1.7157,1.7194,1.7796,1.901,1.9001,1.9109,1.9305,1.9506,1.9596,1.5166,1.541,1.5654,1.588,1.5654,1.5332,1.5019,1.4863,1.4539,1.359,1.3525,1.3369,0.0,0.0,0.0,1.588,1.8458,0.0,2.0595,2.1943,0.0,0.0,0.0,2.1945,2.1531,2.1857,0.0,0.0,2.1157,2.0867,2.1282,2.0338,1.9798,1.9798,1.9798,1.9798,1.9798,1.9798,1.9798,1.9798,1.9798,1.9798,1.9798,1.9798,1.9798,1.9798,1.9798,1.9798,1.9798,1.966,1.9978,2.0534,2.0403,2.0699,2.1232,2.1232,2.1328,2.1448,2.128,2.1232,2.1256,2.1424,2.1795,2.2244,2.2406,2.2655,2.2827,2.2371,2.2566,2.2687,2.1737,2.1839,2.1934,2.0946,2.0554,2.0318,1.9813,1.9708,1.9782,2.0089,2.0431,2.0618,2.0429,1.9798,1.9128,1.8573,1.7989,1.7391,1.6749,1.6888,1.7089,1.7163,1.7396,1.7577,1.767,1.767,1.7704,1.7789,1.7804,1.7828,1.7828,1.784,1.7958,1.8209,1.8413,1.869,1.901,1.915,1.9243,1.9305,1.9506,1.9643,1.5859,1.6172,1.6309,1.6144,1.5732,1.5303,1.4883,1.4492,1.3965,1.3091,1.292,0.0,0.0,0.0,0.0,0.0,0.0,0.0,2.052,2.1819,2.2606,0.0,2.2456,0.0,2.2234,2.2456,2.2644,0.0,2.1656,2.1182,2.1468,2.0413,1.9798,1.9798,1.9798,1.9798,1.9798,1.9798,1.9798,1.9798,1.9798,1.9798,1.9798,2.0105,2.0232,2.0245,0.0,2.0632,2.0632,2.0632,2.0868,2.1186,2.1186,2.14,2.1697,2.1697,2.1899,2.2146,2.2146,2.2308,2.2478,2.2216,2.2392,2.2754,2.3009,2.3334,2.3535,2.3176,2.3325,2.343,2.2712,2.2762,2.2828,2.2067,2.1845,2.1691,2.1321,2.0978,2.0721,2.0629,2.0829,2.0991,2.0991,2.0569,2.009,1.9654,1.9157,1.8572,1.7823,1.7469,1.7356,1.7497,1.7681,1.78,1.78,1.78,1.7856,1.7971,1.8114,1.8249,1.8371,1.8518,1.8669,1.877,1.8923,1.9086,1.9261,1.9383,1.9467,1.9513,1.9707,1.9832,1.6492,1.6697,1.6609,1.6281,1.5732,1.5215,1.4795,1.4033,1.3281,1.2827,0.0,0.0,1.1583,0.0,1.4161,1.4668,0.0,1.928,2.0395,2.1572,2.2493,2.3045,2.3108,2.3108,2.3108,2.3108,2.307,2.2995,2.2071,2.1493,2.1493,2.0413,1.9798,1.9798,1.9901,1.9927,1.9927,2.0016,2.0042,2.0042,2.0042,2.0042,2.0067,2.075,2.1063,2.1088,2.1715,0.0,2.1821,2.1821,2.1827,2.1828,2.1828,2.1875,2.1955,2.1955,2.2308,2.2807,2.2807,2.3143,2.3508,2.2987,2.2807,2.292,2.3443,2.3595,2.3595,2.3595,2.3595,2.3616,2.3702,2.3626,2.353,2.3499,2.3425,2.3304,2.3208,2.2663,2.1988,2.1344,2.1198,2.1182,2.1182,2.0922,2.0711,2.0598,2.0358,1.9896,1.9147,1.8145,1.7591,1.7777,1.78,1.7811,1.7856,1.7839,1.7971,1.8239,1.829,1.841,1.8632,1.8679,1.8798,1.9035,1.9035,1.9222,1.9608,1.9608,1.9663,1.9796,1.9948,1.9988,1.6658,1.6697,1.6687,1.6609,1.5752,1.4775,1.4319,1.3594,0.0,0.0,0.0,1.1577,1.1182,0.0,0.0,1.5342,0.0,0.0,0.0,0.0,2.2493,0.0,0.0,0.0,0.0,0.0,0.0,0.0,0.0,2.1493,2.1493,2.0413,1.9798,1.9798,2.0334,2.0635,2.0635,2.1124,2.1363,2.1363,2.1363,2.1363,2.139,2.2054,2.2375,2.2402,2.3059,0.0,2.2533,2.2533,2.253,2.2535,2.2535,2.2838,2.326,2.326,2.3341,2.3443,2.3443,2.3508,2.3573,2.3486,2.3443,2.3465,2.3573,2.3595,2.3595,2.3595,2.3595,2.3702,2.4158,2.4235,2.4184,2.4103,2.4031,2.3863,2.332,2.2882,2.2554,2.2439,2.2224,2.2077,2.2077,2.202,2.1773,2.1164,2.1032,2.0703,1.9913,1.9116,1.8412,1.7867,1.78,1.7883,1.8103,1.8125,1.8249,1.8508,1.8743,1.8887,1.8931,1.9082,1.9204,1.9261,1.9243,1.9357,1.9608,1.9608,1.9663,1.9796,1.9948,1.9988,1.7012,1.734,1.7503,1.685,1.6254,1.5623,1.4816,0.0,0.0,0.0,0.0,0.0,1.1087,0.0,0.0,0.0,0.0,0.0,0.0,0.0,0.0,0.0,0.0,0.0,0.0,0.0,0.0,0.0,0.0,2.2477,2.1146,2.0263,1.9952,2.0295,2.0622,2.0955,2.1269,2.1568,2.1697,2.1697,2.1697,2.1697,2.1724,2.2746,2.3225,2.3277,2.4244,0.0,2.4206,2.4206,2.42,2.4217,2.4217,2.4392,2.4642,2.4642,2.4433,2.4111,2.4111,2.3894,2.3595,2.3595,2.3595,2.3659,2.3927,2.3815,2.3659,2.3943,2.4012,2.4074,2.4328,2.4796,2.5217,2.5139,2.531,2.5307,2.4596,2.4314,2.4093,2.3707,2.3224,2.2868,2.2868,2.255,2.2192,2.1837,2.1769,2.1498,2.072,2.0445,2.0019,1.9281,1.9213,1.9331,1.9636,1.9268,1.9157,1.9424,1.9156,1.9043,1.915,1.9243,1.9297,1.9297,1.9804,2.0178,2.037,2.0916,2.1223,2.1363,2.1421,2.1468,1.7197,1.7775,1.802,1.7244,1.6871,1.6439,1.5545,1.4177,0.0,0.0,0.0,0.0,0.0,0.0,0.0,0.0,0.0,0.0,0.0,0.0,0.0,0.0,0.0,0.0,0.0,0.0,0.0,0.0,0.0,0.0,2.1443,2.0759,2.0666,2.1204,2.1207,2.1428,2.1899,2.2025,2.2109,2.2109,2.2109,2.218,2.2358,2.3567,2.4194,2.4378,2.5545,0.0,0.0,2.5809,2.5734,2.5615,2.5615,2.5615,2.5615,2.5615,2.534,2.4972,2.4837,2.4517,2.4146,2.3994,2.3794,2.3702,2.4225,2.4116,2.3879,2.443,2.4556,2.4612,2.4697,2.5373,2.6031,2.6138,2.6436,2.6539,2.5964,2.571,2.5439,2.4846,2.4135,2.3594,2.3441,2.2977,2.2575,2.2405,2.2457,2.2289,2.17,2.1809,2.1761,2.1248,2.0835,2.0743,2.1072,2.0519,2.0267,2.0536,1.9956,1.9661,1.9822,1.9848,1.9853,1.987,2.0659,2.1183,2.1428,2.2206,2.2666,2.2797,2.2797,2.2797,1.6926,1.7259,1.7446,1.7999,1.7206,1.6244,1.6123,0.0,0.0,0.0,0.0,1.1922,1.2294,0.0,0.0,0.0,0.0,0.0,0.0,0.0,0.0,0.0,0.0,0.0,0.0,0.0,0.0,0.0,0.0,0.0,2.3452,2.2784,2.2468,2.2517,2.2517,2.2558,2.2603,2.3143,2.3428,2.3428,2.3428,2.3733,2.4357,2.5095,2.5768,2.6365,2.7096,0.0,0.0,2.6497,2.6153,2.5615,2.5615,2.5615,2.5615,2.5615,2.591,2.6242,2.5552,2.5649,2.5931,2.5274,2.4389,2.3702,2.4225,2.4369,2.443,2.4989,2.5125,2.524,2.5742,2.5924,2.612,2.6522,2.6674,2.6674,2.6607,2.6065,2.5576,2.5507,2.4898,2.4186,2.3526,2.3613,2.3494,2.2764,2.2923,2.3088,2.3029,2.3035,2.3146,2.3379,2.1932,2.1072,2.1338,2.1303,2.1379,2.1641,2.1585,2.1557,2.1574,2.1574,2.1627,2.1745,2.1842,2.2082,2.2468,2.2555,2.2666,2.2797,2.2797,2.2797,1.6636,1.7312,1.7857,1.7845,1.7604,1.7099,1.5985,0.0,0.0,1.3325,1.271,1.2282,1.2473,0.0,0.0,0.0,0.0,0.0,0.0,0.0,0.0,0.0,0.0,0.0,0.0,0.0,0.0,0.0,0.0,0.0,2.6064,2.4314,2.3297,2.3297,2.3292,2.329,2.3246,2.3866,2.4201,2.4201,2.4627,2.4956,2.5217,2.5899,2.6348,2.6632,2.7315,0.0,0.0,2.721,2.7046,2.6806,2.6806,2.6806,2.6855,2.7202,2.7242,2.7036,2.6676,2.6443,2.625,2.5958,2.5263,2.4657,2.5202,2.5144,2.4992,2.554,2.567,2.5726,2.5943,2.6209,2.647,2.6657,2.6691,2.6691,2.6691,2.6471,2.6251,2.6251,2.5866,2.5433,2.5141,2.5004,2.4646,2.3829,2.3836,2.3749,2.3271,2.338,2.3555,2.3682,2.3052,2.2754,2.3057,2.2638,2.2411,2.2511,2.2132,2.1925,2.1925,2.2047,2.2131,2.2176,2.2779,2.3157,2.3316,2.3921,2.4274,2.4366,2.4366,2.4381,1.6364,1.719,1.7918,1.7752,1.7832,1.7563,0.0,0.0,1.4182,1.3653,1.3095,1.2703,1.2703,1.3321,1.4072,0.0,0.0,0.0,0.0,0.0,0.0,0.0,0.0,0.0,0.0,0.0,0.0,0.0,0.0,0.0,2.76,2.5847,2.4765,2.4571,2.4367,2.4231,2.4193,2.4649,2.4903,2.4903,2.5367,2.5704,2.5914,2.6378,2.6692,2.6926,2.739,0.0,0.0,2.76,2.76,2.7625,2.781,2.786,2.7959,2.8543,2.8566,2.8278,2.7965,2.7685,2.7388,2.7176,2.6586,2.6036,2.6417,2.6016,2.5542,2.6068,2.6209,2.6209,2.6209,2.6453,2.6691,2.6691,2.6791,2.6873,2.6873,2.6971,2.7051,2.7051,2.687,2.663,2.642,2.6211,2.58,2.5021,2.4772,2.449,2.3923,2.3848,2.3855,2.3855,2.3855,2.3937,2.418,2.3676,2.3373,2.3446,2.2996,2.2768,2.2828,2.2963,2.3057,2.3095,2.3793,2.4173,2.4249,2.4966,2.5354,2.5394,2.5421,2.5474,1.6126,1.6705,1.729,1.8014,1.7802,1.726,0.0,1.5668,1.4733,1.4198,1.3609,1.3181,1.3181,1.321,1.3579,0.0,0.0,0.0,0.0,0.0,0.0,0.0,0.0,0.0,0.0,0.0,0.0,0.0,0.0,0.0,2.76,2.7585,2.7245,2.6587,2.5944,2.5576,2.5585,2.56,2.56,2.56,2.5615,2.5959,2.6572,2.6587,2.6971,0.0,0.0,0.0,0.0,2.76,2.76,2.766,2.8262,2.8487,2.8559,2.9157,2.9761,3.0157,2.9436,2.9579,2.9937,2.9211,2.8415,2.7772,2.7772,2.6934,2.6103,2.6573,2.6691,2.6691,2.6691,2.6691,2.6691,2.6691,2.7003,2.7286,2.7286,2.7622,2.7897,2.7897,2.788,2.7649,2.6916,2.7002,2.694,2.6188,2.5692,2.5393,2.5374,2.4685,2.419,2.419,2.419,2.4208,2.419,2.419,2.4266,2.4468,2.4485,2.4564,2.4752,2.4759,2.4831,2.4966,2.4985,2.5099,2.5284,2.5356,2.539,2.5394,2.5477,2.5522,1.5736,1.6172,1.6526,1.6498,1.6635,1.6446,1.5148,1.4871,1.4632,1.3684,1.3328,1.3198,1.3198,1.3198,1.3579,1.4708,0.0,0.0,0.0,0.0,0.0,0.0,0.0,0.0,0.0,0.0,0.0,0.0,0.0,0.0,2.76,2.76,2.7285,2.6617,2.6393,2.6063,2.5615,2.6048,2.6273,2.6288,2.6761,2.7091,2.7285,2.7285,2.7639,0.0,0.0,0.0,0.0,2.8834,2.8834,2.8857,2.9042,2.9111,2.918,2.9783,3.0145,3.0257,2.9942,2.9941,3.0055,2.9837,2.9245,2.8704,2.9228,2.8022,2.6505,2.6657,2.6691,2.6758,2.7035,2.7115,2.7178,2.7454,2.7622,2.7707,2.7707,2.7811,2.7897,2.7897,2.8088,2.8179,2.7941,2.819,2.8152,2.7371,2.7138,2.6641,2.554,2.5172,2.4805,2.4263,2.433,2.441,2.441,2.441,2.4495,2.4693,2.4795,2.4872,2.4924,2.5066,2.516,2.5208,2.5208,2.5255,2.5379,2.5395,2.5453,2.5543,2.5604,2.597,0.0,1.5402,1.5711,1.5454,1.5643,1.5567,1.4362,1.4349,1.4331,1.3403,1.3198,1.3198,1.3198,1.334,1.377,1.4679,0.0,0.0,0.0,0.0,0.0,0.0,0.0,0.0,0.0,0.0,0.0,0.0,0.0,0.0,2.76,2.76,2.7405,2.7001,2.6986,2.6791,2.6363,2.6776,2.6986,2.6986,2.7405,2.76,2.7625,2.7835,2.814,0.0,0.0,0.0,0.0,2.9406,2.9406,2.9429,2.9651,2.9739,2.9805,3.0414,3.0638,3.0633,3.0533,3.0531,3.0531,3.0531,3.0023,2.9468,2.9805,2.8814,2.7453,2.686,2.7012,2.7331,2.731,2.7409,2.7589,2.784,2.801,2.8088,2.8088,2.8215,2.8326,2.8326,2.8476,2.8633,2.8633,2.8839,2.8822,2.8338,2.7989,2.7449,2.6439,2.6035,2.557,2.4829,2.4883,2.4879,2.4689,2.4636,2.47,2.4857,2.4949,2.5034,2.5105,2.5224,2.5308,2.5308,2.5317,2.5363,2.5394,2.5459,2.5695,2.6124,2.6171,2.666,0.0,1.4425,1.4821,1.4783,1.4808,1.4702,1.416,1.4078,0.0,1.3328,1.3232,1.3262,1.33,1.37,1.4216,1.4787,0.0,0.0,0.0,0.0,0.0,0.0,0.0,0.0,0.0,0.0,0.0,0.0,0.0,0.0,2.76,2.76,2.7625,2.766,2.766,2.766,2.766,2.766,2.7685,2.7735,2.7735,2.7735,2.776,2.8295,2.8583,0.0,0.0,0.0,0.0,2.9518,2.9518,2.9585,3.0145,3.0356,3.0435,3.0995,3.119,3.119,3.119,3.119,3.119,3.119,3.0753,3.0138,2.9782,2.9386,2.8742,2.7352,2.772,2.8359,2.7641,2.7751,2.8007,2.7986,2.821,2.8446,2.8446,2.8737,2.9005,2.9005,2.9005,2.9005,2.9005,2.9005,2.9005,2.9005,2.8367,2.7904,2.782,2.7198,2.6499,2.5874,2.5835,2.5665,2.5228,2.496,2.4864,2.501,2.5022,2.5124,2.538,2.5385,2.5428,2.5495,2.555,2.5608,2.5608,2.5724,2.6242,2.709,2.709,2.7559,1.3403,0.0,1.4173,1.3704,1.3954,1.4135,0.0,1.3765,0.0,0.0,0.0,0.0,0.0,0.0,0.0,0.0,0.0,0.0,0.0,0.0,0.0,0.0,0.0,0.0,0.0,0.0,0.0,0.0,0.0,2.76,2.76,2.76,2.781,2.8271,2.8286,2.8286,2.8286,2.8286,2.8535,2.8973,2.8973,2.8973,2.8973,2.9111,2.9451,0.0,0.0,0.0,3.0777,3.0777,3.0777,3.0797,3.0918,3.0995,3.1015,3.1151,3.119,3.119,3.119,3.119,3.119,3.119,3.1291,3.1282,3.0647,2.9989,2.9453,2.9446,2.9653,2.9741,2.9201,2.9143,2.912,2.8821,2.8803,2.8863,2.8863,2.8929,2.9005,2.9005,2.9005,2.9005,2.9005,2.9005,2.9005,2.9005,2.9004,2.8781,2.8123,2.8045,2.7756,2.6995,2.7059,2.7117,2.6995,2.5742,2.5036,2.5214,2.5224,2.5547,2.625,2.6288,2.6632,2.7353,2.7476,2.753,2.753,2.7628,2.7773,2.7988,2.7988,2.8435,1.3267,1.3634,1.4009,1.369,1.4001,1.4249,1.3725,0.0,0.0,0.0,0.0,0.0,0.0,0.0,0.0,0.0,0.0,0.0,0.0,0.0,0.0,0.0,0.0,0.0,0.0,0.0,0.0,0.0,0.0,2.771,2.7993,2.8018,2.8295,2.8896,2.8919,2.8919,2.8919,2.8919,2.9081,2.9406,2.9406,2.9406,2.9406,2.9695,2.9995,0.0,0.0,0.0,3.119,3.119,3.119,3.119,3.119,3.119,3.119,3.119,3.119,3.119,3.119,3.1312,3.1487,3.1487,3.177,3.2091,3.1888,3.1579,3.1117,3.0488,3.068,3.0933,3.0341,3.0318,3.0274,2.9685,2.9537,2.9445,2.9078,2.9005,2.9005,2.9005,2.91,2.9171,2.9171,2.9259,2.9324,2.9324,2.9436,2.9364,2.8886,2.8965,2.879,2.8066,2.8084,2.8039,2.7757,2.6882,2.6373,2.65,2.6486,2.6697,2.7178,2.7224,2.7512,2.8074,2.8159,2.8227,2.8256,2.8281,2.8516,2.8906,2.8906,2.9312,1.3458,1.3833,1.4259,1.4098,1.4444,1.4713,0.0,0.0,0.0,0.0,0.0,0.0,0.0,0.0,0.0,0.0,0.0,0.0,0.0,0.0,0.0,0.0,0.0,0.0,0.0,0.0,0.0,0.0,0.0,2.7993,2.8606,2.8654,2.8919,2.9518,2.954,2.9585,2.9673,2.9585,2.9585,2.9673,2.9673,2.9673,2.9695,3.0208,3.0435,3.0477,0.0,0.0,3.119,3.119,3.119,3.119,3.119,3.119,3.119,3.119,3.119,3.121,3.1271,3.1564,3.1915,3.1915,3.2213,3.2681,3.3075,3.3243,3.294,3.1309,3.152,3.2097,3.1347,3.1362,3.1347,3.043,3.021,2.9989,2.917,2.9005,2.9017,2.9044,2.9235,2.9412,2.9434,2.9589,2.9705,2.9705,2.9731,2.9756,2.9756,2.9782,2.9614,2.91,2.9044,2.8836,2.8321,2.8275,2.8285,2.8293,2.8041,2.7964,2.81,2.8302,2.8477,2.857,2.8596,2.8645,2.8691,2.8691,2.9082,2.9805,2.9785,3.011,1.4008,1.4697,1.4934,1.4136,1.4661,1.5211,0.0,0.0,0.0,0.0,0.0,0.0,0.0,0.0,0.0,0.0,0.0,0.0,0.0,0.0,0.0,0.0,0.0,0.0,0.0,0.0,0.0,0.0,0.0,2.863,2.9225,2.9248,2.954,3.0145,3.0166,3.0414,3.0918,3.0414,3.0414,3.0918,3.0918,3.0918,3.0918,3.1015,3.1055,3.1055,0.0,3.119,3.119,3.119,3.119,3.119,3.119,3.119,3.119,3.119,3.119,3.1249,3.1584,3.2021,3.2383,3.2383,3.2713,3.3124,3.3184,3.3451,3.3639,3.3342,3.3387,3.3341,3.2554,3.2392,3.2045,3.0558,3.021,2.9989,2.917,2.9005,2.9067,2.9289,2.9372,2.9454,2.9616,2.9678,2.9705,2.9705,2.9845,2.9954,2.9954,3.0155,3.026,3.0157,3.0157,3.013,3.0019,3.0019,3.0037,3.0099,2.8714,2.8236,2.8962,2.9839,3.0294,3.0325,3.0425,3.0488,3.0508,3.0508,3.0566,3.0703,3.0576,3.0563,1.3852,1.4756,1.5417,1.4713,1.5674,1.6662,0.0,0.0,0.0,0.0,0.0,0.0,0.0,0.0,0.0,0.0,0.0,0.0,0.0,0.0,0.0,0.0,0.0,0.0,0.0,0.0,0.0,0.0,0.0,0.0,2.9848,2.9908,3.0166,3.0777,3.0797,3.0918,3.119,3.0918,3.0935,3.119,3.119,3.0987,3.0615,3.1021,3.097,3.0615,0.0,3.0615,3.0615,3.0615,3.0736,3.0962,3.1373,3.1677,3.1914,3.1914,3.1914,3.1932,3.2109,3.2501,3.289,3.289,3.3166,3.3522,3.3522,3.3648,3.3807,3.3807,3.3807,3.3715,3.3348,3.3256,3.2963,3.1775,3.15,3.1323,3.0664,3.0506,3.0453,3.0301,3.0348,3.0311,2.9921,2.9973,3.0085,3.0085,3.0162,3.0209,3.0209,3.0317,3.0404,3.0404,3.0404,3.0419,3.0442,3.0447,3.0477,3.0498,2.9775,2.9558,2.9994,3.0441,3.0723,3.0814,3.0878,3.0898,3.0898,3.0898,3.0858,3.0793,3.0722,3.0635,1.3798,1.4674,1.5548,0.0,0.0,0.0,0.0,0.0,0.0,0.0,0.0,0.0,0.0,0.0,0.0,0.0,0.0,0.0,0.0,0.0,0.0,0.0,0.0,0.0,0.0,0.0,0.0,0.0,0.0,0.0,3.0477,3.0497,3.072,3.119,3.119,3.1106,3.0937,3.0937,3.0937,3.0937,3.0937,3.0565,2.9871,3.0429,3.0378,2.9837,2.9837,2.9893,2.9969,3.0158,3.0486,3.0924,3.1673,3.2179,3.2501,3.2501,3.2567,3.2665,3.2665,3.2968,3.3332,3.3332,3.355,3.3807,3.3807,3.3807,3.3807,3.3807,3.3807,3.3807,3.3807,3.3807,3.3613,3.2869,3.2692,3.2551,3.2022,3.188,3.1793,3.1437,3.1502,3.1352,3.0548,3.0727,3.0846,3.0462,3.0731,3.0923,3.0731,3.0865,3.0904,3.0712,3.0727,3.0674,3.0548,3.0545,3.0556,3.0556,3.06,3.0655,3.0693,3.0722,3.0793,3.0898,3.0898,3.0879,3.0858,3.0858,3.0791,3.0679,3.0667,3.0606,1.4387,1.4786,1.5156,1.6308,0.0,0.0,0.0,0.0,0.0,0.0,0.0,0.0,0.0,0.0,0.0,0.0,0.0,0.0,0.0,0.0,0.0,0.0,0.0,0.0,0.0,0.0,0.0,0.0,0.0,0.0,3.1095,3.1151,3.1151,3.119,3.119,3.0869,3.0192,3.0192,3.0192,3.0192,3.0192,2.9786,2.9077,2.9128,2.9128,2.9077,2.9077,2.926,2.9609,3.0335,3.0887,3.1339,3.215,3.2467,3.2501,3.2501,3.2777,3.3154,3.3154,3.3422,3.3748,3.3748,3.378,3.3807,3.3807,3.3807,3.3807,3.3807,3.3807,3.3807,3.3807,3.3807,3.3666,3.3089,3.2973,3.2821,3.2298,3.2175,3.222,3.2441,3.2508,3.2301,3.1674,3.2212,3.2199,3.0635,3.1712,3.2449,3.1698,3.2256,3.2429,3.1698,3.1669,3.14,3.0665,3.0657,3.0686,3.0686,3.0689,3.0692,3.0695,3.0816,3.0898,3.0898,3.0898,3.0837,3.0718,3.0718,3.0677,3.0611,3.0529,3.0516,1.4049,1.4663,1.5233,0.0,0.0,0.0,0.0,0.0,0.0,0.0,0.0,0.0,0.0,0.0,0.0,0.0,0.0,0.0,0.0,0.0,0.0,0.0,0.0,0.0,0.0,0.0,0.0,0.0,0.0,0.0,3.119,3.0768,3.0531,3.0531,3.0057,2.9704,2.9414,2.9433,2.9161,2.8669,2.9178,2.9008,2.8281,2.8755,2.8739,2.8282,2.851,2.899,2.9606,3.0149,3.0956,3.1903,3.2918,3.3299,3.3299,3.3299,3.3419,3.3564,3.3564,3.368,3.3807,3.3807,3.3807,3.3829,3.4012,3.4056,3.4093,3.4295,3.4353,3.4307,3.4105,3.4056,3.4036,3.406,3.4049,3.4057,3.4006,3.4002,3.3919,3.3652,3.3592,3.3344,3.2571,3.2275,3.2102,3.1968,3.2064,3.2218,3.2429,3.2775,3.27,3.1858,3.1366,3.0994,3.0685,3.0765,3.0816,3.0816,3.0816,3.0816,3.0816,3.0878,3.0898,3.0898,3.0816,3.0746,3.0695,3.0665,3.0609,3.0541,3.0501,3.0477,1.4015,1.4724,1.5509,0.0,0.0,0.0,0.0,0.0,0.0,0.0,0.0,0.0,0.0,0.0,0.0,0.0,0.0,0.0,0.0,0.0,0.0,0.0,0.0,0.0,0.0,0.0,0.0,0.0,0.0,0.0,0.0,3.0023,2.9753,2.9753,2.9264,2.8891,2.8619,2.8619,2.823,2.7452,2.801,2.7994,2.7486,2.8151,2.8152,2.7657,2.8067,2.8613,2.9275,3.0095,3.1304,3.272,3.3506,3.3807,3.3807,3.3807,3.3807,3.3807,3.3807,3.3807,3.3802,3.3902,3.3928,3.3974,3.4265,3.4357,3.4401,3.4643,3.4694,3.4674,3.4521,3.4416,3.4434,3.4754,3.4832,3.4908,3.5174,3.5223,3.509,3.4691,3.4603,3.4334,3.3449,3.3083,3.291,3.297,3.2937,3.3051,3.3371,3.3713,3.3502,3.24,3.1334,3.072,3.0768,3.0857,3.0898,3.0898,3.0898,3.0898,3.0898,3.0898,3.0879,3.0837,3.0745,3.0682,3.0648,3.0594,3.0533,3.0477,3.0477,3.0446,1.4483,1.5031,0.0,0.0,0.0,0.0,0.0,0.0,0.0,0.0,0.0,0.0,0.0,0.0,0.0,0.0,0.0,0.0,0.0,0.0,0.0,0.0,0.0,0.0,0.0,0.0,0.0,0.0,0.0,0.0,0.0,2.8993,2.8993,2.8993,2.8976,2.8602,2.7807,2.779,2.7418,2.6708,2.6708,2.6708,2.6725,2.7115,2.7303,2.7317,2.7739,2.8088,2.8533,3.0216,3.2047,3.3788,3.3807,3.3807,3.3807,3.3807,3.3807,3.3807,3.3788,3.3788,3.3855,3.4111,3.42,3.4277,3.4593,3.4694,3.4694,3.4704,3.4704,3.4764,3.5025,3.4908,3.4764,3.5034,3.5105,3.5182,3.5439,3.55,3.55,3.55,3.55,3.5231,3.4359,3.493,3.495,3.336,3.4536,3.533,3.4594,3.5185,3.5054,3.3454,3.1745,3.0767,3.0898,3.0898,3.0898,3.0898,3.0898,3.0898,3.0898,3.0898,3.0837,3.0695,3.0695,3.0624,3.0498,3.0498,3.0453,3.0404,3.0404,3.0404,1.4003,0.0,0.0,0.0,0.0,0.0,0.0,0.0,0.0,0.0,0.0,0.0,0.0,0.0,0.0,0.0,0.0,0.0,0.0,0.0,0.0,0.0,0.0,0.0,0.0,0.0,0.0,0.0,0.0,0.0,0.0,2.8467,2.8145,2.8145,2.7655,2.7266,2.7029,2.7029,2.7062,2.7115,2.7115,2.7115,2.7131,2.7257,2.7454,2.7736,2.8102,2.8635,2.9385,3.1305,3.2449,3.3005,3.3587,3.3807,3.3807,3.3807,3.3807,3.3829,3.4006,3.4074,3.4123,3.4453,3.4551,3.4603,3.4889,3.4981,3.5016,3.5207,3.5254,3.5281,3.5361,3.5312,3.5289,3.5361,3.5376,3.5391,3.5486,3.55,3.55,3.55,3.55,3.5423,3.5154,3.4852,3.4693,3.4836,3.4837,3.4766,3.4584,3.4237,3.3631,3.2632,3.1521,3.0858,3.0898,3.0898,3.0898,3.0898,3.0815,3.0768,3.0768,3.0768,3.0713,3.0638,3.0587,3.0545,3.0498,3.0447,3.0411,3.0404,3.0404,3.0404,1.4753,0.0,0.0,0.0,0.0,0.0,0.0,0.0,0.0,0.0,0.0,0.0,0.0,0.0,0.0,0.0,0.0,0.0,0.0,0.0,0.0,0.0,0.0,0.0,0.0,0.0,0.0,0.0,0.0,0.0,0.0,2.8012,2.7836,2.7836,2.742,2.7178,2.7178,2.7178,2.7303,2.753,2.753,2.7604,2.7733,2.7733,2.7862,2.8116,2.8476,2.9081,2.9937,3.115,3.2014,3.2656,3.3115,3.3532,3.3807,3.3807,3.3881,3.3986,3.4147,3.43,3.4445,3.4764,3.487,3.4917,3.5182,3.5266,3.5297,3.5446,3.55,3.55,3.55,3.55,3.55,3.55,3.55,3.55,3.55,3.55,3.55,3.55,3.5522,3.5547,3.5547,3.5155,3.5044,3.5628,3.5363,3.4984,3.4672,3.3873,3.3058,3.2285,3.1426,3.0898,3.0898,3.0858,3.0816,3.0816,3.0711,3.0657,3.0614,3.0655,3.0638,3.0554,3.0513,3.0495,3.0462,3.0411,3.0404,3.0404,3.0404,3.0349,0.0,0.0,0.0,0.0,0.0,0.0,0.0,0.0,0.0,0.0,0.0,0.0,0.0,0.0,0.0,0.0,0.0,0.0,0.0,0.0,0.0,0.0,0.0,0.0,0.0,0.0,0.0,0.0,0.0,0.0,0.0,2.7692,2.7897,2.7897,2.7897,2.7897,2.7897,2.7897,2.7926,2.7954,2.7954,2.8116,2.8458,2.842,2.842,2.8471,2.8839,2.9409,3.0099,3.0173,3.1109,3.2491,3.2564,3.3104,3.3842,3.3842,3.4012,3.4246,3.4269,3.4478,3.4774,3.5062,3.513,3.519,3.5432,3.55,3.55,3.55,3.55,3.55,3.55,3.55,3.55,3.55,3.55,3.55,3.55,3.5494,3.5508,3.5508,3.5568,3.5606,3.5606,3.5671,3.5764,3.5882,3.5893,3.5566,3.4687,3.3828,3.2988,3.2168,3.1367,3.0879,3.0879,3.0768,3.0689,3.0689,3.0636,3.0558,3.0503,3.0551,3.0551,3.0485,3.0485,3.0462,3.0404,3.0404,3.0398,3.0361,3.0361,3.0254,0.0,0.0,0.0,0.0,0.0,0.0,0.0,0.0,0.0,0.0,0.0,0.0,0.0,0.0,0.0,0.0,0.0,0.0,0.0,0.0,0.0,0.0,0.0,0.0,0.0,0.0,0.0,0.0,0.0,0.0,2.7783,2.7855,2.7897,2.7897,2.7897,2.7897,2.7897,2.7897,2.8034,0.0,2.8303,2.8502,2.8863,2.8552,2.8565,2.8893,2.8952,2.9097,2.9317,2.9953,3.0779,3.1715,3.2344,3.3222,3.4111,3.4111,3.4311,3.4614,3.4823,3.4944,3.5062,3.5339,3.5398,3.5432,3.5486,3.55,3.55,3.55,3.55,3.55,3.55,3.55,3.55,3.55,3.55,3.55,3.55,3.5534,3.5582,3.5582,3.5635,3.5675,3.5675,3.5786,3.5884,3.5973,3.541,3.4668,3.3789,3.2969,3.2129,3.1269,3.0912,3.0745,3.0745,3.0665,3.0628,3.0628,3.0551,3.0524,3.0503,3.0505,3.05,3.0417,3.0417,3.0419,3.0404,3.0404,3.0299,3.0082,3.0082,3.0316,0.0,0.0,0.0,0.0,0.0,0.0,0.0,0.0,0.0,0.0,0.0,0.0,0.0,0.0,0.0,0.0,0.0,0.0,0.0,0.0,0.0,0.0,0.0,0.0,0.0,0.0,0.0,0.0,0.0,2.8143,2.8143,2.8321,2.843,2.843,2.843,2.843,2.843,2.843,2.852,2.8682,2.8682,2.8803,2.8994,2.8773,2.8797,2.9005,2.9005,2.9005,2.9023,2.9445,3.0396,3.1638,3.2051,3.3129,3.4434,3.4434,3.4634,3.4917,3.5062,3.519,3.5312,3.5453,3.55,3.55,3.55,3.55,3.55,3.55,3.55,3.55,3.55,3.5207,3.5032,3.5449,3.5546,3.5546,3.5546,3.5591,3.5642,3.5642,3.5726,3.5799,3.5799,3.5885,3.5815,3.5449,3.498,3.4258,3.2988,3.24,3.1771,3.0892,3.0708,3.0659,3.0659,3.0594,3.0734,3.1142,3.1115,3.1253,3.162,3.1639,3.1259,3.0423,3.0404,3.0404,3.0404,3.0267,3.0347,3.062,3.0481,3.074,0.0,0.0,0.0,0.0,0.0,0.0,0.0,0.0,0.0,0.0,0.0,0.0,0.0,0.0,0.0,0.0,0.0,0.0,0.0,0.0,0.0,0.0,0.0,0.0,0.0,0.0,0.0,0.0,0.0,2.8496,2.8496,2.8827,2.9005,2.9005,2.9005,2.9005,2.9005,2.9005,2.9005,2.9005,2.9005,2.9005,2.9005,2.9005,2.9005,2.9005,2.9005,2.904,2.9067,2.9067,3.0172,3.1867,3.1867,3.3064,3.4764,3.4764,3.4944,3.5174,3.5174,3.5312,3.55,3.55,3.55,3.55,3.55,3.55,3.55,3.55,3.5501,3.5489,3.5329,3.4822,3.4483,3.5054,3.519,3.5276,3.5548,3.5679,3.5726,3.5726,3.5821,3.5913,3.5913,3.5952,3.5762,3.5039,3.4805,3.4199,3.2792,3.2389,3.1884,3.0996,3.0978,3.097,3.0814,3.0862,3.1221,3.1937,3.1942,3.2218,3.2872,3.2891,3.2256,3.0865,3.0797,3.0759,3.0759,3.05,3.0714,3.1387,3.1166,3.1368,0.0,0.0,0.0,0.0,0.0,0.0,0.0,0.0,0.0,0.0,0.0,0.0,0.0,0.0,0.0,0.0,0.0,0.0,0.0,0.0,0.0,0.0,0.0,0.0,0.0,0.0,0.0,0.0,2.8893,2.8917,2.8917,2.8964,2.9005,2.9005,2.9005,2.9005,2.9005,2.9005,2.9005,2.9005,2.9005,2.9005,2.9005,2.9005,2.9005,2.9005,2.9005,2.9134,2.9351,2.9351,3.0456,3.2147,3.2147,3.3336,3.5053,3.5053,3.5215,3.5446,3.5446,3.546,3.55,3.55,3.55,3.55,3.55,3.55,3.55,3.55,3.5534,3.5405,3.4654,3.4462,3.4314,3.3665,3.3568,3.3987,3.5389,3.5772,3.5873,3.5873,3.5925,3.5995,3.5995,3.5996,3.5957,3.584,3.5176,3.4608,3.4312,3.3599,3.276,3.1846,3.2295,3.2405,3.1702,3.2218,3.2633,3.2749,3.275,3.2795,3.2891,3.2891,3.2795,3.2564,3.2338,3.2229,3.2229,3.1953,3.1797,3.1734,3.1702,3.1971,0.0,0.0,0.0,0.0,0.0,0.0,0.0,0.0,0.0,0.0,0.0,0.0,0.0,0.0,0.0,0.0,0.0,0.0,0.0,0.0,0.0,0.0,0.0,0.0,0.0,0.0,0.0,0.0,2.9005,2.9005,2.9005,2.9005,2.9005,2.9005,2.9005,2.9005,2.9005,2.9005,2.9005,2.9005,2.9005,2.9078,2.9214,2.9214,2.9214,2.9214,2.9214,2.9363,2.9561,2.9561,3.0704,3.2427,3.2427,3.3598,3.532,3.532,3.5391,3.55,3.55,3.55,3.55,3.55,3.55,3.552,3.554,3.557,3.5568,3.5591,3.5635,3.5577,3.5184,3.4828,3.4574,3.4691,3.4383,3.4404,3.5602,3.5142,3.4641,3.513,3.5643,3.5996,3.5996,3.5996,3.582,3.5351,3.4918,3.4456,3.3949,3.3437,3.2974,3.2559,3.2778,3.2794,3.2453,3.2716,3.3103,3.3603,3.3622,3.3853,3.4346,3.4365,3.4279,3.4133,3.3216,3.2649,3.2488,3.2267,3.2274,3.2478,3.2316,3.2612,0.0,0.0,0.0,0.0,0.0,0.0,0.0,0.0,0.0,0.0,0.0,0.0,0.0,0.0,0.0,0.0,0.0,0.0,0.0,0.0,0.0,0.0,0.0,0.0,0.0,0.0,0.0,0.0,2.9005,2.9005,2.9005,2.9005,2.9005,2.9005,2.9005,2.9005,2.9005,2.9067,2.91,2.91,2.916,2.9291,2.9483,2.9483,2.9504,2.9542,2.9494,2.9589,2.9771,2.9771,3.0923,3.2687,3.2687,3.3839,3.55,3.55,3.55,3.55,3.55,3.5508,3.5528,3.5528,3.554,3.5556,3.5611,3.5485,3.5368,3.5627,3.5564,3.5424,3.5424,3.5024,3.4726,3.5156,3.4819,3.4668,3.5762,3.498,3.4258,3.4902,3.5566,3.5996,3.5996,3.5995,3.576,3.5095,3.4937,3.4645,3.3963,3.3747,3.3567,3.3337,3.3453,3.3468,3.3256,3.343,3.3833,3.4487,3.4526,3.4814,3.5462,3.5439,3.5304,3.5105,3.3961,3.3218,3.2918,3.2701,3.2817,3.3203,3.3011,3.3238,0.0,0.0,0.0,0.0,0.0,0.0,0.0,0.0,0.0,0.0,0.0,0.0,0.0,0.0,0.0,0.0,0.0,0.0,0.0,0.0,0.0,0.0,0.0,0.0,0.0,0.0,0.0,0.0,2.9005,2.9005,2.9005,2.9005,2.9005,2.9005,2.9005,2.9005,2.9005,2.9246,2.9382,2.9382,2.9579,2.967,2.9687,2.9687,2.9788,2.9962,2.9763,2.9796,2.9984,2.9984,3.1125,3.2878,3.2878,3.3962,3.55,3.55,3.55,3.55,3.55,3.5534,3.56,3.56,3.5644,3.5693,3.5696,3.5168,3.4717,3.5489,3.519,3.4667,3.4667,3.4677,3.4492,3.3711,3.3496,3.3926,3.5625,3.5937,3.5879,3.5918,3.5976,3.5996,3.5996,3.5947,3.5885,3.5846,3.5721,3.5601,3.549,3.5461,3.5113,3.4231,3.4872,3.5019,3.4205,3.4891,3.5385,3.5423,3.5423,3.5442,3.55,3.5266,3.5113,3.5105,3.4775,3.444,3.4104,3.3844,3.3718,3.376,3.3733,3.3752,0.0,0.0,0.0,0.0,0.0,0.0,0.0,0.0,0.0,0.0,0.0,0.0,0.0,0.0,0.0,0.0,0.0,0.0,0.0,0.0,0.0,0.0,0.0,0.0,0.0,0.0,0.0,0.0,0.0,2.9005,2.9005,2.9005,2.9005,2.9005,2.9178,2.9322,2.9456,2.9551,2.9598,2.9598,2.9661,2.9763,2.9893,2.9893,3.0025,3.0254,3.0169,3.0202,3.0254,3.0254,3.1008,3.2179,3.2699,3.3622,3.4737,3.5288,3.55,3.5514,3.5552,3.5582,3.5606,3.5646,3.5678,3.5717,3.5802,3.5639,3.5472,3.5797,3.5693,3.5503,3.5503,3.5526,3.5469,3.5137,3.5078,3.5234,3.5879,3.5566,3.5176,3.5176,3.5625,3.5995,3.5946,3.5913,3.6066,3.6529,3.604,3.5839,3.6371,3.591,3.5419,3.5071,3.5308,3.5365,3.5064,3.5327,3.55,3.55,3.5346,3.5239,3.5239,3.4981,3.4735,3.4542,3.4434,3.4323,3.42,3.4099,3.3974,3.3807,3.3807,3.3807,0.0,0.0,0.0,0.0,0.0,0.0,0.0,0.0,0.0,0.0,0.0,0.0,0.0,0.0,0.0,0.0,0.0,0.0,0.0,0.0,0.0,0.0,0.0,0.0,0.0,0.0,0.0,0.0,0.0,0.0,2.9134,2.9195,2.923,2.923,2.9405,2.9561,2.9705,2.9782,2.9796,2.9796,2.9888,2.9996,3.0136,3.0136,3.0222,3.0404,3.0404,3.0404,3.0404,3.0404,3.1077,3.216,3.2699,3.3603,3.4706,3.5303,3.5534,3.5534,3.5611,3.5661,3.5702,3.5749,3.5783,3.5828,3.5916,3.5727,3.5574,3.5917,3.5781,3.5625,3.5918,3.5996,3.5996,3.5996,3.5996,3.5996,3.5973,3.5526,3.5136,3.5114,3.5562,3.5947,3.5847,3.5819,3.5976,3.6456,3.5974,3.5786,3.6366,3.5881,3.55,3.55,3.55,3.55,3.55,3.5424,3.5369,3.5369,3.5113,3.4963,3.4963,3.4685,3.4423,3.42,3.4111,3.4068,3.4068,3.4068,3.3974,3.3807,3.3807,3.3721,0.0,0.0,0.0,0.0,0.0,0.0,0.0,0.0,0.0,0.0,0.0,0.0,0.0,0.0,0.0,0.0,0.0,0.0,0.0,0.0,0.0,0.0,0.0,0.0,0.0,0.0,0.0,0.0,2.9246,2.9402,2.9412,2.9598,2.9705,2.9713,2.9713,2.9713,2.9722,2.9916,3.0013,3.0013,3.0286,3.0404,3.0404,3.0404,3.0404,3.0404,3.0404,3.0404,3.039,3.0404,3.1365,3.2872,3.2897,3.3955,3.5469,3.5563,3.5596,3.5616,3.5675,3.5797,3.5901,3.5903,3.5947,3.5996,3.5996,3.541,3.4902,3.5762,3.5391,3.4922,3.5781,3.5996,3.5996,3.5996,3.5996,3.5975,3.591,3.5948,3.5974,3.5908,3.588,3.5845,3.5717,3.5633,3.5605,3.5625,3.5572,3.5538,3.5538,3.5538,3.5538,3.55,3.55,3.55,3.5493,3.5239,3.5096,3.5088,3.4822,3.4684,3.4684,3.4368,3.4188,3.4188,3.3923,3.3807,3.3807,3.3807,3.3807,3.3807,3.3807,3.3578,1.3235,0.0,0.0,0.0,0.0,0.0,0.0,0.0,0.0,0.0,0.0,0.0,0.0,0.0,0.0,0.0,0.0,0.0,0.0,0.0,0.0,0.0,0.0,0.0,0.0,0.0,0.0,0.0,2.9361,2.9464,2.9616,2.967,2.9782,2.9916,2.9924,3.0011,3.0208,3.0254,3.0299,3.0299,3.0361,3.0404,3.0404,3.0404,3.0404,3.0404,3.0404,3.0428,3.0477,3.0411,3.1038,3.2095,3.278,3.3687,3.4717,3.5409,3.5663,3.5698,3.5799,3.5871,3.5907,3.595,3.5976,3.5996,3.5996,3.582,3.5684,3.5937,3.582,3.5703,3.5937,3.5996,3.5995,3.5944,3.5938,3.5908,3.5775,3.5775,3.5783,3.5764,3.5758,3.5733,3.5648,3.5616,3.5787,3.6325,3.6381,3.6365,3.6365,3.6365,3.6154,3.5558,3.55,3.5424,3.5223,3.5138,3.5008,3.4813,3.451,3.4345,3.4345,3.4056,3.3915,3.3915,3.3842,3.3807,3.3807,3.3807,3.3807,3.3807,3.3807,3.3734,0.0,0.0,0.0,0.0,0.0,0.0,0.0,1.7824,0.0,0.0,0.0,0.0,0.0,0.0,0.0,0.0,0.0,0.0,0.0,0.0,0.0,0.0,0.0,0.0,0.0,2.8577,2.8688,2.8861,2.9355,2.9748,2.9985,2.9992,3.0044,3.0157,3.0176,3.0248,3.0404,3.0404,3.0404,3.0404,3.0404,3.0404,3.0404,3.0433,3.0441,3.0446,3.0463,3.0507,3.056,3.089,3.1536,3.2416,3.3331,3.4186,3.4951,3.5551,3.5775,3.5805,3.5895,3.5945,3.5948,3.5995,3.5996,3.5996,3.5996,3.5996,3.5996,3.5996,3.5996,3.5996,3.5972,3.5951,3.5925,3.5843,3.5829,3.5791,3.5683,3.5659,3.5659,3.5659,3.5659,3.5644,3.556,3.5556,3.5694,3.6129,3.6192,3.6192,3.6192,3.6192,3.6019,3.5558,3.55,3.5383,3.5122,3.499,3.4813,3.4518,3.4195,3.4031,3.4031,3.3876,3.3807,3.3807,3.3807,3.3807,3.3807,3.3807,3.3807,3.3807,3.3638,3.3433,0.0,0.0,0.0,0.0,0.0,0.0,1.8765,1.7763,0.0,0.0,0.0,0.0,0.0,0.0,0.0,0.0,0.0,0.0,0.0,0.0,0.0,0.0,0.0,0.0,2.7629,2.7869,2.7997,2.8035,2.9112,2.9875,3.011,3.0212,3.025,3.025,3.0346,3.0404,3.0404,3.0404,3.039,3.0408,3.0408,3.0419,3.0422,3.0486,3.052,3.0505,3.0571,3.0609,3.0695,3.1654,3.2505,3.3294,3.4166,3.5006,3.5749,3.5853,3.591,3.5914,3.5975,3.5996,3.5996,3.5996,3.5996,3.5996,3.5996,3.5996,3.5996,3.5996,3.5995,3.5974,3.5907,3.5875,3.5841,3.571,3.5689,3.5663,3.5596,3.5585,3.5585,3.5585,3.5585,3.556,3.5508,3.55,3.55,3.55,3.5577,3.5596,3.5519,3.5577,3.5596,3.5519,3.546,3.5354,3.5079,3.4803,3.4508,3.4183,3.3923,3.3807,3.3807,3.3807,3.3807,3.3807,3.3899,3.3935,3.3935,3.3844,3.3793,3.3721,3.3452,3.3078,1.9108,1.9208,1.9237,0.0,0.0,0.0,0.0,1.6979,0.0,0.0,0.0,0.0,0.0,0.0,0.0,0.0,0.0,0.0,0.0,0.0,0.0,0.0,0.0,0.0,2.7034,2.7102,2.7276,2.7581,2.8058,2.8338,2.8371,2.9006,2.9352,2.9352,3.0019,3.0404,3.0404,3.0404,3.0428,3.0482,3.0482,3.0511,3.0554,3.0571,3.0581,3.0581,3.0597,3.0638,3.0799,3.2384,3.3098,3.33,3.4222,3.5114,3.5875,3.595,3.5975,3.5975,3.5996,3.5996,3.5996,3.5996,3.5996,3.5996,3.5996,3.5996,3.5995,3.5922,3.5914,3.5885,3.5769,3.5749,3.5726,3.5639,3.5631,3.5591,3.5534,3.5515,3.5515,3.5515,3.5515,3.5521,3.5507,3.55,3.55,3.55,3.6058,3.6231,3.5577,3.6077,3.6212,3.5577,3.5304,3.5079,3.4793,3.4478,3.4171,3.3902,3.3829,3.3807,3.3807,3.3807,3.3807,3.3807,3.4435,3.4766,3.4766,3.4119,3.362,3.3335,3.3851,3.3836,2.055,2.0551,2.0548,2.0144,0.0,0.0,0.0,0.0,0.0,0.0,0.0,0.0,0.0,0.0,0.0,0.0,0.0,0.0,0.0,0.0,0.0,0.0,0.0,0.0,2.6398,2.6532,2.6903,2.7637,2.7424,2.7448,2.7876,2.828,2.8684,2.9088,2.9525,2.9982,3.0456,3.0462,3.0486,3.0559,3.0559,3.0565,3.0606,3.0624,3.0657,3.0659,3.0723,3.0762,3.0931,3.265,3.3325,3.3428,3.4774,3.5579,3.5949,3.5995,3.5996,3.5996,3.5996,3.5996,3.5937,3.5488,3.5644,3.5918,3.5488,3.5623,3.5923,3.5838,3.5802,3.5786,3.5675,3.5646,3.5635,3.5574,3.5552,3.5534,3.5501,3.55,3.55,3.55,3.55,3.55,3.55,3.55,3.55,3.55,3.5846,3.5962,3.5558,3.5748,3.5745,3.5335,3.507,3.4784,3.4486,3.43,3.4093,3.3815,3.3807,3.3807,3.3807,3.4192,3.4614,3.5037,3.544,3.5646,3.5646,3.5238,3.4952,3.4746,3.4611,3.4423,0.0,0.0,0.0,0.0,0.0,2.0023,0.0,0.0,0.0,0.0,0.0,0.0,0.0,0.0,0.0,0.0,0.0,0.0,0.0,0.0,0.0,0.0,0.0,0.0,0.0,2.5761,2.6303,2.7327,2.6601,2.6486,2.7351,2.7563,2.7944,2.862,2.8953,2.9482,3.0257,3.0435,3.0544,3.0625,3.0625,3.0633,3.0667,3.071,3.0744,3.0745,3.0858,3.0898,3.1035,3.2715,3.3398,3.3574,3.5312,3.5996,3.5996,3.5996,3.5996,3.5996,3.5996,3.5996,3.5859,3.498,3.5175,3.5624,3.5096,3.5375,3.5836,3.5703,3.5678,3.5671,3.5605,3.5588,3.5574,3.5515,3.55,3.55,3.55,3.55,3.55,3.55,3.55,3.55,3.55,3.55,3.55,3.55,3.55,3.5486,3.5432,3.5231,3.5088,3.5016,3.4774,3.4478,3.4211,3.4159,3.4031,3.3802,3.3954,3.4027,3.4027,3.4821,3.5573,3.6285,3.645,3.6494,3.6387,3.6534,3.6394,3.5994,3.5325,3.4906,0.0,0.0,0.0,0.0,2.2172,0.0,0.0,0.0,0.0,0.0,0.0,0.0,0.0,0.0,0.0,0.0,0.0,0.0,0.0,0.0,0.0,0.0,0.0,0.0,0.0,2.4232,2.4702,2.5538,2.4832,2.474,2.5558,2.6327,2.6824,2.6962,2.8406,2.9272,2.9431,3.0199,3.0611,3.0687,3.0687,3.0744,3.0877,3.0878,3.0879,3.0879,3.0898,3.0898,3.1035,3.2715,3.3398,3.3574,3.5312,3.5996,3.5996,3.5996,3.5996,3.5996,3.5996,3.5996,3.5859,3.498,3.4721,3.4874,3.5557,3.5739,3.57,3.563,3.5611,3.56,3.5541,3.5515,3.5508,3.5507,3.55,3.55,3.55,3.55,3.55,3.55,3.55,3.55,3.55,3.55,3.55,3.55,3.55,3.5405,3.5182,3.5113,3.5008,3.4764,3.4445,3.4235,3.42,3.3986,3.3829,3.3788,3.4472,3.4857,3.4857,3.5697,3.6193,3.6303,3.6997,3.7131,3.6662,3.7365,3.6765,3.4993,3.5527,3.5337,0.0,0.0,0.0,0.0,0.0,0.0,1.9924,0.0,1.9334,0.0,0.0,0.0,0.0,0.0,0.0,0.0,0.0,0.0,0.0,0.0,0.0,0.0,0.0,0.0,0.0,0.0,0.0,0.0,2.4298,2.4253,2.4644,2.5459,2.618,2.6748,2.7922,2.884,2.9412,3.0234,3.0708,3.0816,3.0816,3.0857,3.0898,3.0898,3.0898,3.0898,3.0898,3.1191,3.1758,3.293,3.3691,3.4277,3.5527,3.5996,3.5996,3.5996,3.5996,3.5996,3.5996,3.5974,3.5864,3.5412,3.4608,3.403,3.5327,3.5686,3.5626,3.5562,3.5534,3.5534,3.5501,3.55,3.55,3.55,3.55,3.55,3.55,3.55,3.55,3.55,3.55,3.55,3.55,3.55,3.5446,3.5289,3.5273,3.5182,3.4908,3.4705,3.4524,3.4423,3.4153,3.3974,3.3974,3.4291,3.4491,3.4491,3.5279,3.5973,3.6431,3.6813,3.7217,3.7679,3.7724,3.7626,3.7389,3.7453,3.6892,3.5745,3.6057,3.5974,2.419,0.0,0.0,0.0,0.0,0.0,0.0,0.0,0.0,0.0,0.0,0.0,0.0,0.0,0.0,0.0,0.0,0.0,0.0,0.0,0.0,0.0,0.0,0.0,0.0,0.0,0.0,0.0,0.0,2.3623,2.4173,2.4754,2.5499,2.6437,2.7556,2.8462,2.9164,3.0219,3.0794,3.0898,3.0898,3.0898,3.0898,3.0898,3.0898,3.0898,3.0898,3.1387,3.2266,3.3066,3.3906,3.4785,3.5643,3.5974,3.5974,3.5974,3.5974,3.5973,3.593,3.5736,3.5502,3.5395,3.4519,3.3759,3.5171,3.5579,3.5562,3.5521,3.55,3.55,3.55,3.55,3.55,3.55,3.55,3.55,3.55,3.55,3.55,3.55,3.5439,3.5383,3.5383,3.5383,3.532,3.5122,3.5044,3.4898,3.4593,3.4357,3.4257,3.4402,3.4247,3.4229,3.4468,3.5023,3.5445,3.5665,3.6285,3.6997,3.7804,3.7841,3.8038,3.8462,3.8099,3.7772,3.7488,3.7154,3.6704,3.6182,3.6312,3.6312,0.0,0.0,0.0,2.2399,0.0,0.0,0.0,0.0,2.106,0.0,0.0,0.0,0.0,0.0,0.0,0.0,0.0,0.0,0.0,0.0,0.0,0.0,0.0,0.0,0.0,0.0,0.0,0.0,0.0,0.0,2.4115,2.4215,2.4677,2.5618,2.7301,2.8231,2.834,3.0039,3.0898,3.0898,3.0898,3.0898,3.0898,3.0898,3.0898,3.0898,3.0898,3.1387,3.2266,3.3066,3.3906,3.4785,3.5588,3.5903,3.5903,3.5903,3.5903,3.5878,3.5741,3.5201,3.4536,3.4542,3.4412,3.4434,3.5334,3.5544,3.5507,3.55,3.55,3.55,3.55,3.55,3.55,3.55,3.55,3.55,3.55,3.55,3.55,3.55,3.5289,3.5113,3.5113,3.5113,3.5113,3.5105,3.4889,3.4582,3.4246,3.42,3.4402,3.4931,3.4968,3.5298,3.6156,3.6229,3.6578,3.7364,3.7456,3.7823,3.8634,3.867,3.8428,3.7946,3.7893,3.7415,3.6457,3.6437,3.6161,3.5644,3.6161,3.6118,0.0,0.0,2.5866,2.4257,0.0,0.0,0.0,0.0,0.0,0.0,0.0,0.0,0.0,0.0,0.0,0.0,0.0,0.0,0.0,0.0,0.0,0.0,0.0,0.0,0.0,0.0,0.0,0.0,2.2274,0.0,0.0,2.453,2.5023,2.4801,2.7068,2.828,2.8301,3.0039,3.0898,3.0898,3.0898,3.0898,3.0898,3.0898,3.0898,3.0898,3.0898,3.1699,3.3008,3.3233,3.4183,3.5508,3.5695,3.5766,3.5766,3.5766,3.5766,3.5677,3.5002,3.4592,3.436,3.4322,3.427,3.4391,3.5264,3.5509,3.55,3.55,3.55,3.55,3.55,3.55,3.55,3.55,3.55,3.55,3.55,3.5361,3.525,3.525,3.5455,3.5627,3.5627,3.5916,3.5972,3.5431,3.5297,3.5316,3.5549,3.5583,3.5671,3.584,3.5862,3.5973,3.6266,3.6795,3.7437,3.823,3.8285,3.8414,3.8689,3.8707,3.8449,3.7893,3.7596,3.7097,3.6395,3.6032,3.5783,3.56,3.5783,3.5783,2.626,2.6779,0.0,2.5655,2.4903,0.0,2.2127,0.0,0.0,0.0,0.0,0.0,0.0,0.0,0.0,0.0,0.0,0.0,0.0,0.0,0.0,0.0,0.0,0.0,0.0,0.0,2.046,2.1113,2.1402,0.0,0.0,0.0,2.5088,2.4863,2.7109,2.8301,2.8301,3.0039,3.0898,3.0898,3.0898,3.0898,3.0898,3.0898,3.0898,3.0918,3.123,3.2128,3.3393,3.3646,3.4581,3.5829,3.5709,3.5652,3.5652,3.5652,3.5646,3.55,3.4582,3.4472,3.4668,3.4315,3.4417,3.4776,3.5327,3.55,3.55,3.55,3.55,3.55,3.55,3.55,3.55,3.55,3.55,3.546,3.5376,3.5223,3.5155,3.5343,3.5593,3.5841,3.613,3.6391,3.6398,3.5988,3.5838,3.5903,3.6258,3.6303,3.6413,3.6703,3.674,3.6835,3.7129,3.7624,3.8138,3.867,3.8707,3.8707,3.8707,3.853,3.8167,3.7667,3.7173,3.6643,3.6118,3.5783,3.56,3.56,3.56,3.56]}]]